<?xml version='1.0' encoding='UTF-8'?><gpx version="1.1" creator="JPX - https://github.com/jenetics/jpx" xmlns="http://www.topografix.com/GPX/1/1"><trk><trkseg><trkpt lat="43.57623187508848" lon="-5.952933382850844"><ele>11.999999999999998</ele><time>2026-04-03T07:06:30.614Z</time></trkpt><trkpt lat="43.57615939862339" lon="-5.952943978860586"><ele>12.0</ele><time>2026-04-03T07:06:35.422Z</time></trkpt><trkpt lat="43.576087784814746" lon="-5.952919644139388"><ele>12.0</ele><time>2026-04-03T07:06:39.228Z</time></trkpt><trkpt lat="43.5760775225555" lon="-5.952823591103904"><ele>12.0</ele><time>2026-04-03T07:06:42.08Z</time></trkpt><trkpt lat="43.57611347067971" lon="-5.952708840372385"><ele>12.0</ele><time>2026-04-03T07:06:45.989Z</time></trkpt><trkpt lat="43.576112413493526" lon="-5.952602113354391"><ele>11.999999999999998</ele><time>2026-04-03T07:06:47.99Z</time></trkpt><trkpt lat="43.57610861729849" lon="-5.952514038835151"><ele>12.0</ele><time>2026-04-03T07:06:49.992Z</time></trkpt><trkpt lat="43.57612942842152" lon="-5.952408112699999"><ele>12.0</ele><time>2026-04-03T07:06:51.993Z</time></trkpt><trkpt lat="43.57614529286686" lon="-5.952310991567907"><ele>12.0</ele><time>2026-04-03T07:06:53.994Z</time></trkpt><trkpt lat="43.57613813533947" lon="-5.95221683060293"><ele>12.0</ele><time>2026-04-03T07:06:55.994Z</time></trkpt><trkpt lat="43.576157477624285" lon="-5.952098988896206"><ele>12.0</ele><time>2026-04-03T07:06:57.995Z</time></trkpt><trkpt lat="43.57618493762696" lon="-5.9519726946400136"><ele>12.0</ele><time>2026-04-03T07:06:59.996Z</time></trkpt><trkpt lat="43.57620068690214" lon="-5.951837613108492"><ele>12.0</ele><time>2026-04-03T07:07:01.996Z</time></trkpt><trkpt lat="43.57622239612224" lon="-5.951693934600674"><ele>11.8</ele><time>2026-04-03T07:07:03.997Z</time></trkpt><trkpt lat="43.576242428462386" lon="-5.951611329249868"><ele>11.6</ele><time>2026-04-03T07:07:04.997Z</time></trkpt><trkpt lat="43.5762524402448" lon="-5.951495829119862"><ele>11.4</ele><time>2026-04-03T07:07:06.998Z</time></trkpt><trkpt lat="43.57627850045294" lon="-5.951349235304528"><ele>11.200000000000001</ele><time>2026-04-03T07:07:08.998Z</time></trkpt><trkpt lat="43.57630527127241" lon="-5.951214097928347"><ele>11.0</ele><time>2026-04-03T07:07:10.998Z</time></trkpt><trkpt lat="43.576316085171115" lon="-5.951088066309233"><ele>11.0</ele><time>2026-04-03T07:07:12.998Z</time></trkpt><trkpt lat="43.57633716785493" lon="-5.950963498704374"><ele>11.0</ele><time>2026-04-03T07:07:14.999Z</time></trkpt><trkpt lat="43.57636069461087" lon="-5.950839977149968"><ele>11.0</ele><time>2026-04-03T07:07:16.999Z</time></trkpt><trkpt lat="43.57639033140277" lon="-5.950723716839996"><ele>11.0</ele><time>2026-04-03T07:07:18.999Z</time></trkpt><trkpt lat="43.57640078863137" lon="-5.950614256507692"><ele>11.0</ele><time>2026-04-03T07:07:20.999Z</time></trkpt><trkpt lat="43.57641684152824" lon="-5.950495234603512"><ele>11.0</ele><time>2026-04-03T07:07:22.999Z</time></trkpt><trkpt lat="43.57642640286944" lon="-5.950378532080915"><ele>11.0</ele><time>2026-04-03T07:07:25Z</time></trkpt><trkpt lat="43.57644585479926" lon="-5.950269795285409"><ele>11.0</ele><time>2026-04-03T07:07:27Z</time></trkpt><trkpt lat="43.576460937398416" lon="-5.9501743535347416"><ele>11.0</ele><time>2026-04-03T07:07:29Z</time></trkpt><trkpt lat="43.57648078099023" lon="-5.9500847018994865"><ele>11.0</ele><time>2026-04-03T07:07:31Z</time></trkpt><trkpt lat="43.57646078634818" lon="-5.949984054483481"><ele>11.0</ele><time>2026-04-03T07:07:33Z</time></trkpt><trkpt lat="43.576479883260944" lon="-5.949895293325947"><ele>11.0</ele><time>2026-04-03T07:07:35Z</time></trkpt><trkpt lat="43.57652269384182" lon="-5.949793312463265"><ele>11.0</ele><time>2026-04-03T07:07:37Z</time></trkpt><trkpt lat="43.57654840896472" lon="-5.94967091402571"><ele>11.0</ele><time>2026-04-03T07:07:40Z</time></trkpt><trkpt lat="43.576564968526505" lon="-5.949582486674962"><ele>11.0</ele><time>2026-04-03T07:07:42Z</time></trkpt><trkpt lat="43.576589044046315" lon="-5.9494955326905705"><ele>11.0</ele><time>2026-04-03T07:07:44Z</time></trkpt><trkpt lat="43.576618648536225" lon="-5.94938430404635"><ele>11.0</ele><time>2026-04-03T07:07:46Z</time></trkpt><trkpt lat="43.57663708283848" lon="-5.949286805441043"><ele>11.0</ele><time>2026-04-03T07:07:48Z</time></trkpt><trkpt lat="43.57663373394703" lon="-5.9491932082410015"><ele>11.0</ele><time>2026-04-03T07:07:50Z</time></trkpt><trkpt lat="43.57666771016146" lon="-5.949073670812102"><ele>10.5</ele><time>2026-04-03T07:07:52Z</time></trkpt><trkpt lat="43.57668200788212" lon="-5.948955938448394"><ele>10.0</ele><time>2026-04-03T07:07:54Z</time></trkpt><trkpt lat="43.576691696111766" lon="-5.948823275037042"><ele>9.5</ele><time>2026-04-03T07:07:57Z</time></trkpt><trkpt lat="43.57671622732759" lon="-5.948724020016533"><ele>9.0</ele><time>2026-04-03T07:07:59Z</time></trkpt><trkpt lat="43.57673815241361" lon="-5.94859852311246"><ele>8.5</ele><time>2026-04-03T07:08:02Z</time></trkpt><trkpt lat="43.57673122297078" lon="-5.948477568982224"><ele>8.0</ele><time>2026-04-03T07:08:05Z</time></trkpt><trkpt lat="43.57674504154202" lon="-5.9483638954652145"><ele>7.999999999999999</ele><time>2026-04-03T07:08:07Z</time></trkpt><trkpt lat="43.576791413495734" lon="-5.9482566160659776"><ele>8.0</ele><time>2026-04-03T07:08:10Z</time></trkpt><trkpt lat="43.576797619718825" lon="-5.948160619150042"><ele>8.0</ele><time>2026-04-03T07:08:12Z</time></trkpt><trkpt lat="43.576824415695114" lon="-5.94804257923501"><ele>8.0</ele><time>2026-04-03T07:08:14Z</time></trkpt><trkpt lat="43.576846929344306" lon="-5.947940034348525"><ele>7.999999999999999</ele><time>2026-04-03T07:08:16Z</time></trkpt><trkpt lat="43.57686369655364" lon="-5.947841047306774"><ele>8.0</ele><time>2026-04-03T07:08:19Z</time></trkpt><trkpt lat="43.576870707912576" lon="-5.9477376155070125"><ele>7.999999999999999</ele><time>2026-04-03T07:08:21Z</time></trkpt><trkpt lat="43.576887328369004" lon="-5.947635707094152"><ele>8.0</ele><time>2026-04-03T07:08:23Z</time></trkpt><trkpt lat="43.576861283853084" lon="-5.947533938691336"><ele>8.0</ele><time>2026-04-03T07:08:25Z</time></trkpt><trkpt lat="43.57685331811825" lon="-5.947405581579601"><ele>8.0</ele><time>2026-04-03T07:08:27Z</time></trkpt><trkpt lat="43.57687468353277" lon="-5.947291262295932"><ele>7.999999999999999</ele><time>2026-04-03T07:08:29Z</time></trkpt><trkpt lat="43.57690468784768" lon="-5.947137742657522"><ele>8.0</ele><time>2026-04-03T07:08:31Z</time></trkpt><trkpt lat="43.57692571214391" lon="-5.947006949264707"><ele>8.0</ele><time>2026-04-03T07:08:33Z</time></trkpt><trkpt lat="43.57694817445443" lon="-5.946883616175172"><ele>8.0</ele><time>2026-04-03T07:08:35.001Z</time></trkpt><trkpt lat="43.5769666266625" lon="-5.9467648035890575"><ele>8.0</ele><time>2026-04-03T07:08:37.001Z</time></trkpt><trkpt lat="43.577000540156156" lon="-5.9466175196895215"><ele>8.0</ele><time>2026-04-03T07:08:39.001Z</time></trkpt><trkpt lat="43.577023104355916" lon="-5.946460354870243"><ele>8.0</ele><time>2026-04-03T07:08:41.001Z</time></trkpt><trkpt lat="43.577040164716514" lon="-5.946336777456587"><ele>8.200000000000001</ele><time>2026-04-03T07:08:43.001Z</time></trkpt><trkpt lat="43.577059776430445" lon="-5.946205688725617"><ele>8.4</ele><time>2026-04-03T07:08:45.001Z</time></trkpt><trkpt lat="43.57707940594166" lon="-5.946095589262966"><ele>8.600000000000001</ele><time>2026-04-03T07:08:47.001Z</time></trkpt><trkpt lat="43.5771094560466" lon="-5.945983189895602"><ele>8.8</ele><time>2026-04-03T07:08:49.001Z</time></trkpt><trkpt lat="43.577125709946046" lon="-5.945861389292697"><ele>9.0</ele><time>2026-04-03T07:08:51.001Z</time></trkpt><trkpt lat="43.5771682070252" lon="-5.945742150070572"><ele>9.000000000000002</ele><time>2026-04-03T07:08:54Z</time></trkpt><trkpt lat="43.577186526678105" lon="-5.945644603663376"><ele>9.0</ele><time>2026-04-03T07:08:56Z</time></trkpt><trkpt lat="43.57720697033729" lon="-5.945514098278085"><ele>9.0</ele><time>2026-04-03T07:08:59Z</time></trkpt><trkpt lat="43.577233813159154" lon="-5.945415832688084"><ele>9.0</ele><time>2026-04-03T07:09:01Z</time></trkpt><trkpt lat="43.57726228666891" lon="-5.9453322554780135"><ele>9.0</ele><time>2026-04-03T07:09:03Z</time></trkpt><trkpt lat="43.57727889217217" lon="-5.945247638010411"><ele>9.000000000000002</ele><time>2026-04-03T07:09:05Z</time></trkpt><trkpt lat="43.577301388752424" lon="-5.945160726678203"><ele>9.0</ele><time>2026-04-03T07:09:07Z</time></trkpt><trkpt lat="43.57732984752649" lon="-5.945072136271057"><ele>8.5</ele><time>2026-04-03T07:09:09Z</time></trkpt><trkpt lat="43.57735563124153" lon="-5.944964139110839"><ele>8.0</ele><time>2026-04-03T07:09:11Z</time></trkpt><trkpt lat="43.57740067133913" lon="-5.9448224702913315"><ele>7.5</ele><time>2026-04-03T07:09:13Z</time></trkpt><trkpt lat="43.577439818655506" lon="-5.944708570865172"><ele>7.0</ele><time>2026-04-03T07:09:15Z</time></trkpt><trkpt lat="43.57746442636832" lon="-5.944617894582693"><ele>6.5</ele><time>2026-04-03T07:09:17Z</time></trkpt><trkpt lat="43.577500258351606" lon="-5.944525901765656"><ele>6.0</ele><time>2026-04-03T07:09:19Z</time></trkpt><trkpt lat="43.57753874619372" lon="-5.944408394594055"><ele>6.0</ele><time>2026-04-03T07:09:21Z</time></trkpt><trkpt lat="43.577576519076814" lon="-5.944294963069989"><ele>6.0</ele><time>2026-04-03T07:09:24Z</time></trkpt><trkpt lat="43.577616949152755" lon="-5.944186650752435"><ele>6.0</ele><time>2026-04-03T07:09:26Z</time></trkpt><trkpt lat="43.5776780397191" lon="-5.944065548314309"><ele>6.0</ele><time>2026-04-03T07:09:28Z</time></trkpt><trkpt lat="43.57772751572509" lon="-5.943954618752438"><ele>6.0</ele><time>2026-04-03T07:09:30Z</time></trkpt><trkpt lat="43.57778740206586" lon="-5.943840164477585"><ele>6.0</ele><time>2026-04-03T07:09:32Z</time></trkpt><trkpt lat="43.57781810724921" lon="-5.943757907034193"><ele>6.0</ele><time>2026-04-03T07:09:34Z</time></trkpt><trkpt lat="43.5778674905525" lon="-5.943674126511791"><ele>6.0</ele><time>2026-04-03T07:09:36Z</time></trkpt><trkpt lat="43.57790449735824" lon="-5.943582391081358"><ele>6.0</ele><time>2026-04-03T07:09:38Z</time></trkpt><trkpt lat="43.577959262747655" lon="-5.943484454843958"><ele>6.0</ele><time>2026-04-03T07:09:40Z</time></trkpt><trkpt lat="43.57799124905013" lon="-5.943390671205363"><ele>6.0</ele><time>2026-04-03T07:09:42Z</time></trkpt><trkpt lat="43.57804644679343" lon="-5.943289361711733"><ele>6.5</ele><time>2026-04-03T07:09:44Z</time></trkpt><trkpt lat="43.57807883074812" lon="-5.94319628630322"><ele>7.0</ele><time>2026-04-03T07:09:45.999Z</time></trkpt><trkpt lat="43.57811290815365" lon="-5.943085942099824"><ele>7.5</ele><time>2026-04-03T07:09:47.999Z</time></trkpt><trkpt lat="43.57815782646042" lon="-5.942988091366626"><ele>8.0</ele><time>2026-04-03T07:09:49.999Z</time></trkpt><trkpt lat="43.57819146674231" lon="-5.9428745674664505"><ele>8.5</ele><time>2026-04-03T07:09:51.999Z</time></trkpt><trkpt lat="43.57823252749981" lon="-5.942784991002661"><ele>9.0</ele><time>2026-04-03T07:09:53.999Z</time></trkpt><trkpt lat="43.57828369811383" lon="-5.942684481578599"><ele>9.0</ele><time>2026-04-03T07:09:55.999Z</time></trkpt><trkpt lat="43.5783402548289" lon="-5.942572910535021"><ele>9.0</ele><time>2026-04-03T07:09:57.999Z</time></trkpt><trkpt lat="43.57838817880799" lon="-5.942501225399912"><ele>9.0</ele><time>2026-04-03T07:09:58.999Z</time></trkpt><trkpt lat="43.578479561510505" lon="-5.942385359120991"><ele>9.0</ele><time>2026-04-03T07:10:00.999Z</time></trkpt><trkpt lat="43.57856499004244" lon="-5.942263621406436"><ele>9.0</ele><time>2026-04-03T07:10:02.999Z</time></trkpt><trkpt lat="43.578638219058604" lon="-5.942166384372333"><ele>9.4</ele><time>2026-04-03T07:10:04.999Z</time></trkpt><trkpt lat="43.57869663484015" lon="-5.9420622145373345"><ele>9.8</ele><time>2026-04-03T07:10:06.999Z</time></trkpt><trkpt lat="43.57876601390244" lon="-5.941946315042402"><ele>10.200000000000001</ele><time>2026-04-03T07:10:08.999Z</time></trkpt><trkpt lat="43.57884257072332" lon="-5.941848378025585"><ele>10.600000000000001</ele><time>2026-04-03T07:10:10.999Z</time></trkpt><trkpt lat="43.578905925383154" lon="-5.941737364745112"><ele>11.0</ele><time>2026-04-03T07:10:12.999Z</time></trkpt><trkpt lat="43.57896782247539" lon="-5.941631063734984"><ele>11.0</ele><time>2026-04-03T07:10:14.999Z</time></trkpt><trkpt lat="43.579046327507" lon="-5.941524552586193"><ele>11.0</ele><time>2026-04-03T07:10:16.999Z</time></trkpt><trkpt lat="43.57911000388743" lon="-5.941407998178015"><ele>11.0</ele><time>2026-04-03T07:10:18.999Z</time></trkpt><trkpt lat="43.579166150183106" lon="-5.941313351416944"><ele>11.0</ele><time>2026-04-03T07:10:20.999Z</time></trkpt><trkpt lat="43.57924849961076" lon="-5.941199471307997"><ele>11.0</ele><time>2026-04-03T07:10:22.999Z</time></trkpt><trkpt lat="43.57931903269811" lon="-5.941092299791324"><ele>11.0</ele><time>2026-04-03T07:10:24.999Z</time></trkpt><trkpt lat="43.57938785174094" lon="-5.940987697886071"><ele>11.0</ele><time>2026-04-03T07:10:26.999Z</time></trkpt><trkpt lat="43.579449430828554" lon="-5.940904678501649"><ele>11.0</ele><time>2026-04-03T07:10:28.999Z</time></trkpt><trkpt lat="43.57950016657053" lon="-5.940814584202188"><ele>11.0</ele><time>2026-04-03T07:10:30.999Z</time></trkpt><trkpt lat="43.579560838292515" lon="-5.9407419641127435"><ele>11.0</ele><time>2026-04-03T07:10:32.999Z</time></trkpt><trkpt lat="43.57960625814322" lon="-5.940677564545359"><ele>11.0</ele><time>2026-04-03T07:10:34.999Z</time></trkpt><trkpt lat="43.579618891048646" lon="-5.940574854557661"><ele>11.166666666666666</ele><time>2026-04-03T07:10:37.999Z</time></trkpt><trkpt lat="43.57964573648766" lon="-5.940487581109891"><ele>11.333333333333332</ele><time>2026-04-03T07:10:40Z</time></trkpt><trkpt lat="43.579700502792114" lon="-5.940404912495076"><ele>11.5</ele><time>2026-04-03T07:10:43Z</time></trkpt><trkpt lat="43.57974887359737" lon="-5.940339414542542"><ele>11.666666666666666</ele><time>2026-04-03T07:10:46Z</time></trkpt><trkpt lat="43.579786744124526" lon="-5.940266214706463"><ele>11.833333333333334</ele><time>2026-04-03T07:10:48Z</time></trkpt><trkpt lat="43.57984320275074" lon="-5.940178294105135"><ele>12.0</ele><time>2026-04-03T07:10:51Z</time></trkpt><trkpt lat="43.579907161799376" lon="-5.940080532476646"><ele>11.999999999999998</ele><time>2026-04-03T07:10:54Z</time></trkpt><trkpt lat="43.579949411526925" lon="-5.940014824916466"><ele>12.0</ele><time>2026-04-03T07:10:56Z</time></trkpt><trkpt lat="43.5799895207406" lon="-5.939942425404258"><ele>12.0</ele><time>2026-04-03T07:10:58Z</time></trkpt><trkpt lat="43.58004164341878" lon="-5.939830786053265"><ele>12.0</ele><time>2026-04-03T07:11:01Z</time></trkpt><trkpt lat="43.58007296385755" lon="-5.9397539287797"><ele>12.0</ele><time>2026-04-03T07:11:03Z</time></trkpt><trkpt lat="43.580100761892425" lon="-5.939669641058513"><ele>11.999999999999998</ele><time>2026-04-03T07:11:05Z</time></trkpt><trkpt lat="43.58014206483739" lon="-5.939587380505879"><ele>12.0</ele><time>2026-04-03T07:11:07Z</time></trkpt><trkpt lat="43.580180777766735" lon="-5.939495682536144"><ele>12.0</ele><time>2026-04-03T07:11:09Z</time></trkpt><trkpt lat="43.58020308248641" lon="-5.939410580580066"><ele>12.0</ele><time>2026-04-03T07:11:11Z</time></trkpt><trkpt lat="43.580258362975584" lon="-5.93931954932125"><ele>12.0</ele><time>2026-04-03T07:11:13Z</time></trkpt><trkpt lat="43.58028142260886" lon="-5.939211045547348"><ele>12.0</ele><time>2026-04-03T07:11:15Z</time></trkpt><trkpt lat="43.580312535624444" lon="-5.939114945627236"><ele>12.0</ele><time>2026-04-03T07:11:17Z</time></trkpt><trkpt lat="43.58034917942275" lon="-5.938996343929045"><ele>12.0</ele><time>2026-04-03T07:11:19Z</time></trkpt><trkpt lat="43.58036130327929" lon="-5.938898494589235"><ele>12.833333333333334</ele><time>2026-04-03T07:11:21Z</time></trkpt><trkpt lat="43.58038765585641" lon="-5.93879583651068"><ele>13.666666666666668</ele><time>2026-04-03T07:11:23Z</time></trkpt><trkpt lat="43.5804160541399" lon="-5.93870041498275"><ele>14.5</ele><time>2026-04-03T07:11:25Z</time></trkpt><trkpt lat="43.580437997957596" lon="-5.938587956774039"><ele>15.333333333333334</ele><time>2026-04-03T07:11:27Z</time></trkpt><trkpt lat="43.58045282723525" lon="-5.9384872759939835"><ele>16.166666666666668</ele><time>2026-04-03T07:11:28.999Z</time></trkpt><trkpt lat="43.580479451979734" lon="-5.9383783237047805"><ele>17.0</ele><time>2026-04-03T07:11:30.999Z</time></trkpt><trkpt lat="43.58051222690098" lon="-5.938264562842616"><ele>17.0</ele><time>2026-04-03T07:11:32.999Z</time></trkpt><trkpt lat="43.58053957147828" lon="-5.938141832492061"><ele>17.0</ele><time>2026-04-03T07:11:34.999Z</time></trkpt><trkpt lat="43.580576741280986" lon="-5.938025325326706"><ele>17.0</ele><time>2026-04-03T07:11:36.999Z</time></trkpt><trkpt lat="43.58059684411735" lon="-5.937934080028495"><ele>17.0</ele><time>2026-04-03T07:11:38.999Z</time></trkpt><trkpt lat="43.58061377758192" lon="-5.937841893101349"><ele>17.0</ele><time>2026-04-03T07:11:40.999Z</time></trkpt><trkpt lat="43.58064047762606" lon="-5.937728679553456"><ele>17.0</ele><time>2026-04-03T07:11:43.999Z</time></trkpt><trkpt lat="43.58065972358088" lon="-5.937643780240334"><ele>16.166666666666668</ele><time>2026-04-03T07:11:46.999Z</time></trkpt><trkpt lat="43.5806771108006" lon="-5.937518780993666"><ele>15.333333333333334</ele><time>2026-04-03T07:11:49.999Z</time></trkpt><trkpt lat="43.58070820777596" lon="-5.9374200967411985"><ele>14.5</ele><time>2026-04-03T07:11:51.999Z</time></trkpt><trkpt lat="43.58072662973811" lon="-5.937302125999413"><ele>13.666666666666668</ele><time>2026-04-03T07:11:54.999Z</time></trkpt><trkpt lat="43.58074576235383" lon="-5.937195320760594"><ele>12.833333333333334</ele><time>2026-04-03T07:11:57.999Z</time></trkpt><trkpt lat="43.58077058251822" lon="-5.937084562593293"><ele>12.0</ele><time>2026-04-03T07:11:59.999Z</time></trkpt><trkpt lat="43.58078155055522" lon="-5.936996759064074"><ele>11.999999999999998</ele><time>2026-04-03T07:12:01.999Z</time></trkpt><trkpt lat="43.58081647539301" lon="-5.936907176900091"><ele>12.0</ele><time>2026-04-03T07:12:03.999Z</time></trkpt><trkpt lat="43.58083980877269" lon="-5.936824769939654"><ele>12.0</ele><time>2026-04-03T07:12:06.999Z</time></trkpt><trkpt lat="43.580793023683846" lon="-5.936762881154479"><ele>12.0</ele><time>2026-04-03T07:13:00Z</time></trkpt><trkpt lat="43.58079396160213" lon="-5.936668215685542"><ele>12.0</ele><time>2026-04-03T07:13:04Z</time></trkpt><trkpt lat="43.58080920614574" lon="-5.936553412639606"><ele>11.999999999999998</ele><time>2026-04-03T07:13:08Z</time></trkpt><trkpt lat="43.58081573683273" lon="-5.936431769031394"><ele>12.0</ele><time>2026-04-03T07:13:11Z</time></trkpt><trkpt lat="43.58081518189747" lon="-5.936339465317247"><ele>11.166666666666666</ele><time>2026-04-03T07:13:13Z</time></trkpt><trkpt lat="43.58081471215271" lon="-5.93623625833969"><ele>10.333333333333334</ele><time>2026-04-03T07:13:15Z</time></trkpt><trkpt lat="43.580796475392205" lon="-5.936137086591453"><ele>9.5</ele><time>2026-04-03T07:13:17Z</time></trkpt><trkpt lat="43.58077088129023" lon="-5.936050076941675"><ele>8.666666666666668</ele><time>2026-04-03T07:13:19Z</time></trkpt><trkpt lat="43.580734810552535" lon="-5.935946504550638"><ele>7.833333333333334</ele><time>2026-04-03T07:13:21Z</time></trkpt><trkpt lat="43.58070135052364" lon="-5.935848518250423"><ele>7.0</ele><time>2026-04-03T07:13:23Z</time></trkpt><trkpt lat="43.58065981353222" lon="-5.935753637827429"><ele>6.833333333333334</ele><time>2026-04-03T07:13:25Z</time></trkpt><trkpt lat="43.580606372246606" lon="-5.935665650216477"><ele>6.666666666666667</ele><time>2026-04-03T07:13:27Z</time></trkpt><trkpt lat="43.580553538032625" lon="-5.935593200593325"><ele>6.5</ele><time>2026-04-03T07:13:29Z</time></trkpt><trkpt lat="43.5805000629663" lon="-5.935500574089084"><ele>6.333333333333334</ele><time>2026-04-03T07:13:31Z</time></trkpt><trkpt lat="43.58044809981552" lon="-5.935410210024125"><ele>6.166666666666667</ele><time>2026-04-03T07:13:33Z</time></trkpt><trkpt lat="43.580426205418384" lon="-5.935293805492798"><ele>6.0</ele><time>2026-04-03T07:13:34.999Z</time></trkpt><trkpt lat="43.58041461170788" lon="-5.9351832219585905"><ele>6.0</ele><time>2026-04-03T07:13:36.999Z</time></trkpt><trkpt lat="43.580409301871725" lon="-5.935065313020265"><ele>6.0</ele><time>2026-04-03T07:13:38.999Z</time></trkpt><trkpt lat="43.58041033587977" lon="-5.934940976382369"><ele>6.0</ele><time>2026-04-03T07:13:40.999Z</time></trkpt><trkpt lat="43.58042340002225" lon="-5.934823975346663"><ele>6.0</ele><time>2026-04-03T07:13:42.999Z</time></trkpt><trkpt lat="43.580434372440514" lon="-5.934709379707477"><ele>6.0</ele><time>2026-04-03T07:13:45.999Z</time></trkpt><trkpt lat="43.580432268772114" lon="-5.934606805616203"><ele>6.0</ele><time>2026-04-03T07:13:47.999Z</time></trkpt><trkpt lat="43.5804407513355" lon="-5.934487208648797"><ele>5.833333333333333</ele><time>2026-04-03T07:13:49.999Z</time></trkpt><trkpt lat="43.58045579131755" lon="-5.934348909174192"><ele>5.666666666666667</ele><time>2026-04-03T07:13:51.999Z</time></trkpt><trkpt lat="43.58045239720798" lon="-5.9342324527786126"><ele>5.5</ele><time>2026-04-03T07:13:53.999Z</time></trkpt><trkpt lat="43.58043885771643" lon="-5.934125566752434"><ele>5.333333333333334</ele><time>2026-04-03T07:13:55.999Z</time></trkpt><trkpt lat="43.580429000584175" lon="-5.9340191807406555"><ele>5.166666666666667</ele><time>2026-04-03T07:13:57.999Z</time></trkpt><trkpt lat="43.580418758244726" lon="-5.933889869739206"><ele>5.0</ele><time>2026-04-03T07:13:59.999Z</time></trkpt><trkpt lat="43.58041637389143" lon="-5.933765663412183"><ele>4.8</ele><time>2026-04-03T07:14:01.999Z</time></trkpt><trkpt lat="43.580406912526065" lon="-5.933632997827776"><ele>4.6</ele><time>2026-04-03T07:14:03.999Z</time></trkpt><trkpt lat="43.58039644136577" lon="-5.933501142762195"><ele>4.4</ele><time>2026-04-03T07:14:05.999Z</time></trkpt><trkpt lat="43.58038000871344" lon="-5.933371263364175"><ele>4.2</ele><time>2026-04-03T07:14:07.999Z</time></trkpt><trkpt lat="43.5803706073988" lon="-5.933228719699047"><ele>4.0</ele><time>2026-04-03T07:14:09.999Z</time></trkpt><trkpt lat="43.5803615887599" lon="-5.933081914361584"><ele>4.2</ele><time>2026-04-03T07:14:11.999Z</time></trkpt><trkpt lat="43.580339588831315" lon="-5.9329370917535655"><ele>4.4</ele><time>2026-04-03T07:14:13.999Z</time></trkpt><trkpt lat="43.58031290149072" lon="-5.932809253649013"><ele>4.6</ele><time>2026-04-03T07:14:15.999Z</time></trkpt><trkpt lat="43.580304938527576" lon="-5.932681693992288"><ele>4.8</ele><time>2026-04-03T07:14:17.999Z</time></trkpt><trkpt lat="43.58028839465444" lon="-5.932576249331764"><ele>5.0</ele><time>2026-04-03T07:14:19.999Z</time></trkpt><trkpt lat="43.580279966079274" lon="-5.932451848884435"><ele>5.0</ele><time>2026-04-03T07:14:21.999Z</time></trkpt><trkpt lat="43.58029192660377" lon="-5.932315340458453"><ele>5.0</ele><time>2026-04-03T07:14:23.999Z</time></trkpt><trkpt lat="43.580300832529055" lon="-5.932193986797014"><ele>5.0</ele><time>2026-04-03T07:14:25.999Z</time></trkpt><trkpt lat="43.5803056639333" lon="-5.932074667751946"><ele>5.0</ele><time>2026-04-03T07:14:27.999Z</time></trkpt><trkpt lat="43.58031670211608" lon="-5.931947581262544"><ele>5.0</ele><time>2026-04-03T07:14:29.999Z</time></trkpt><trkpt lat="43.58032226051275" lon="-5.931829540688197"><ele>4.833333333333334</ele><time>2026-04-03T07:14:31.999Z</time></trkpt><trkpt lat="43.580338277715654" lon="-5.931691917439235"><ele>4.666666666666667</ele><time>2026-04-03T07:14:33.999Z</time></trkpt><trkpt lat="43.580345048667134" lon="-5.931566510610318"><ele>4.5</ele><time>2026-04-03T07:14:35.999Z</time></trkpt><trkpt lat="43.58035579305808" lon="-5.931448835013285"><ele>4.333333333333333</ele><time>2026-04-03T07:14:37.999Z</time></trkpt><trkpt lat="43.58036439028938" lon="-5.93132628586274"><ele>4.166666666666666</ele><time>2026-04-03T07:14:39.999Z</time></trkpt><trkpt lat="43.580382980581724" lon="-5.931220144200639"><ele>4.0</ele><time>2026-04-03T07:14:41.999Z</time></trkpt><trkpt lat="43.58038362406842" lon="-5.931083081281262"><ele>3.9999999999999996</ele><time>2026-04-03T07:14:44.999Z</time></trkpt><trkpt lat="43.58039756081965" lon="-5.930990764515807"><ele>4.0</ele><time>2026-04-03T07:14:47.999Z</time></trkpt><trkpt lat="43.58042358060309" lon="-5.9308929079211765"><ele>4.0</ele><time>2026-04-03T07:14:51.998Z</time></trkpt><trkpt lat="43.58048936856023" lon="-5.930827176808889"><ele>4.0</ele><time>2026-04-03T07:14:54.998Z</time></trkpt><trkpt lat="43.580531108115466" lon="-5.930732773331731"><ele>3.9999999999999996</ele><time>2026-04-03T07:14:57.998Z</time></trkpt><trkpt lat="43.58055317855486" lon="-5.9306052767010105"><ele>4.0</ele><time>2026-04-03T07:15:00.998Z</time></trkpt><trkpt lat="43.580578709028856" lon="-5.930494356198731"><ele>3.9999999999999996</ele><time>2026-04-03T07:15:03.998Z</time></trkpt><trkpt lat="43.58060516535032" lon="-5.93037573125515"><ele>4.0</ele><time>2026-04-03T07:15:06.998Z</time></trkpt><trkpt lat="43.58062643664863" lon="-5.930260554587336"><ele>4.0</ele><time>2026-04-03T07:15:09.998Z</time></trkpt><trkpt lat="43.58063473899861" lon="-5.930162991671858"><ele>4.0</ele><time>2026-04-03T07:15:12.998Z</time></trkpt><trkpt lat="43.580651810677516" lon="-5.930065450277172"><ele>3.9999999999999996</ele><time>2026-04-03T07:15:15.998Z</time></trkpt><trkpt lat="43.580659952675745" lon="-5.929977887509129"><ele>4.0</ele><time>2026-04-03T07:15:18.998Z</time></trkpt><trkpt lat="43.580705083396" lon="-5.929904486657019"><ele>3.571428571428571</ele><time>2026-04-03T07:15:29.998Z</time></trkpt><trkpt lat="43.58071426892356" lon="-5.929804280001807"><ele>3.1428571428571423</ele><time>2026-04-03T07:15:47.998Z</time></trkpt><trkpt lat="43.5807008873269" lon="-5.929705719368272"><ele>2.714285714285714</ele><time>2026-04-03T07:15:51.998Z</time></trkpt><trkpt lat="43.58072094197179" lon="-5.929620437286315"><ele>2.2857142857142856</ele><time>2026-04-03T07:15:54.998Z</time></trkpt><trkpt lat="43.58073259143411" lon="-5.929514207358649"><ele>1.857142857142857</ele><time>2026-04-03T07:15:58.998Z</time></trkpt><trkpt lat="43.58074349336033" lon="-5.929428590648983"><ele>1.4285714285714284</ele><time>2026-04-03T07:16:00.998Z</time></trkpt><trkpt lat="43.58075437361835" lon="-5.929340955707895"><ele>1.0</ele><time>2026-04-03T07:16:02.998Z</time></trkpt><trkpt lat="43.58077867516733" lon="-5.9292174912353115"><ele>1.0</ele><time>2026-04-03T07:16:05.998Z</time></trkpt><trkpt lat="43.5808093241559" lon="-5.92912001831536"><ele>0.9999999999999999</ele><time>2026-04-03T07:16:08.997Z</time></trkpt><trkpt lat="43.58083003033558" lon="-5.929023057612995"><ele>1.0</ele><time>2026-04-03T07:16:11.997Z</time></trkpt><trkpt lat="43.58087154834792" lon="-5.928939202534334"><ele>1.0</ele><time>2026-04-03T07:16:15.997Z</time></trkpt><trkpt lat="43.580930094531304" lon="-5.928892345846008"><ele>0.9999999999999999</ele><time>2026-04-03T07:16:19.997Z</time></trkpt><trkpt lat="43.5809872057701" lon="-5.928935698965874"><ele>1.0</ele><time>2026-04-03T07:16:24.997Z</time></trkpt><trkpt lat="43.58102301925097" lon="-5.929019140745228"><ele>1.0</ele><time>2026-04-03T07:16:29.997Z</time></trkpt><trkpt lat="43.58106246356066" lon="-5.929122803017018"><ele>1.0</ele><time>2026-04-03T07:16:33.997Z</time></trkpt><trkpt lat="43.581132696270274" lon="-5.929226377509729"><ele>1.0</ele><time>2026-04-03T07:16:37.997Z</time></trkpt><trkpt lat="43.58119489390459" lon="-5.929322066153887"><ele>1.0</ele><time>2026-04-03T07:16:40.997Z</time></trkpt><trkpt lat="43.58125128142057" lon="-5.929388854410202"><ele>1.0</ele><time>2026-04-03T07:16:42.997Z</time></trkpt><trkpt lat="43.58133335597837" lon="-5.929445071179487"><ele>1.0</ele><time>2026-04-03T07:16:44.997Z</time></trkpt><trkpt lat="43.58141165304417" lon="-5.929501957982359"><ele>1.5</ele><time>2026-04-03T07:16:46.997Z</time></trkpt><trkpt lat="43.581489580536186" lon="-5.929545781980772"><ele>2.0</ele><time>2026-04-03T07:16:48.997Z</time></trkpt><trkpt lat="43.58156720666327" lon="-5.9295853604382485"><ele>2.5</ele><time>2026-04-03T07:16:50.997Z</time></trkpt><trkpt lat="43.58163150974672" lon="-5.929595388333233"><ele>3.0</ele><time>2026-04-03T07:16:52.997Z</time></trkpt><trkpt lat="43.58172069215594" lon="-5.929612205870849"><ele>3.4999999999999996</ele><time>2026-04-03T07:16:54.997Z</time></trkpt><trkpt lat="43.58181583776058" lon="-5.929643089852929"><ele>4.0</ele><time>2026-04-03T07:16:57.997Z</time></trkpt><trkpt lat="43.58190856705663" lon="-5.929679258101141"><ele>4.0</ele><time>2026-04-03T07:16:59.997Z</time></trkpt><trkpt lat="43.58200192181869" lon="-5.929704547792182"><ele>4.0</ele><time>2026-04-03T07:17:01.997Z</time></trkpt><trkpt lat="43.58207240324009" lon="-5.929732973933192"><ele>4.0</ele><time>2026-04-03T07:17:03.997Z</time></trkpt><trkpt lat="43.5822021248534" lon="-5.929761938277886"><ele>4.0</ele><time>2026-04-03T07:17:06.997Z</time></trkpt><trkpt lat="43.58228339001741" lon="-5.929786554609911"><ele>4.0</ele><time>2026-04-03T07:17:08.997Z</time></trkpt><trkpt lat="43.58236089609289" lon="-5.929810713113205"><ele>4.166666666666666</ele><time>2026-04-03T07:17:10.997Z</time></trkpt><trkpt lat="43.58242716680795" lon="-5.929821849533787"><ele>4.333333333333333</ele><time>2026-04-03T07:17:12.997Z</time></trkpt><trkpt lat="43.58252277446433" lon="-5.929850111926341"><ele>4.5</ele><time>2026-04-03T07:17:14.997Z</time></trkpt><trkpt lat="43.5825992862279" lon="-5.929868381186319"><ele>4.666666666666667</ele><time>2026-04-03T07:17:16.997Z</time></trkpt><trkpt lat="43.58266494047966" lon="-5.929881362032614"><ele>4.833333333333334</ele><time>2026-04-03T07:17:18.997Z</time></trkpt><trkpt lat="43.582742908179895" lon="-5.929904724359859"><ele>5.0</ele><time>2026-04-03T07:17:20.997Z</time></trkpt><trkpt lat="43.58282914814134" lon="-5.929924521061144"><ele>5.0</ele><time>2026-04-03T07:17:22.997Z</time></trkpt><trkpt lat="43.58293015890117" lon="-5.929941320645856"><ele>5.0</ele><time>2026-04-03T07:17:25.996Z</time></trkpt><trkpt lat="43.58300563368843" lon="-5.929954920779353"><ele>5.0</ele><time>2026-04-03T07:17:27.996Z</time></trkpt><trkpt lat="43.58308665128785" lon="-5.929983673063868"><ele>5.0</ele><time>2026-04-03T07:17:29.996Z</time></trkpt><trkpt lat="43.5831533117246" lon="-5.9299879021033695"><ele>5.0</ele><time>2026-04-03T07:17:31.996Z</time></trkpt><trkpt lat="43.58327150661933" lon="-5.930015423781586"><ele>5.0</ele><time>2026-04-03T07:17:34.996Z</time></trkpt><trkpt lat="43.583346723843526" lon="-5.930035325801113"><ele>5.0</ele><time>2026-04-03T07:17:36.996Z</time></trkpt><trkpt lat="43.58345117205701" lon="-5.930065275874622"><ele>5.0</ele><time>2026-04-03T07:17:38.996Z</time></trkpt><trkpt lat="43.58354639998224" lon="-5.9300976117795665"><ele>5.0</ele><time>2026-04-03T07:17:40.996Z</time></trkpt><trkpt lat="43.583634804183646" lon="-5.9301056397978735"><ele>5.0</ele><time>2026-04-03T07:17:42.996Z</time></trkpt><trkpt lat="43.58371306512295" lon="-5.930115455407848"><ele>5.0</ele><time>2026-04-03T07:17:44.996Z</time></trkpt><trkpt lat="43.58381616347446" lon="-5.930150845367958"><ele>4.6</ele><time>2026-04-03T07:17:46.996Z</time></trkpt><trkpt lat="43.58392036528329" lon="-5.930187626259954"><ele>4.2</ele><time>2026-04-03T07:17:48.996Z</time></trkpt><trkpt lat="43.58402836094661" lon="-5.930215567922027"><ele>3.8</ele><time>2026-04-03T07:17:50.996Z</time></trkpt><trkpt lat="43.5841100662065" lon="-5.930228016920001"><ele>3.4</ele><time>2026-04-03T07:17:52.996Z</time></trkpt><trkpt lat="43.58420286236858" lon="-5.930264704193449"><ele>3.0</ele><time>2026-04-03T07:17:54.996Z</time></trkpt><trkpt lat="43.58430420311155" lon="-5.930295523073675"><ele>3.0</ele><time>2026-04-03T07:17:56.996Z</time></trkpt><trkpt lat="43.58438361739137" lon="-5.930314510400345"><ele>3.0</ele><time>2026-04-03T07:17:58.996Z</time></trkpt><trkpt lat="43.58445115896335" lon="-5.930336572826465"><ele>3.0</ele><time>2026-04-03T07:18:00.996Z</time></trkpt><trkpt lat="43.58453457406313" lon="-5.930350740476935"><ele>3.0</ele><time>2026-04-03T07:18:02.996Z</time></trkpt><trkpt lat="43.58460272186124" lon="-5.930371326108738"><ele>3.0</ele><time>2026-04-03T07:18:04.996Z</time></trkpt><trkpt lat="43.58467618689604" lon="-5.930389196352328"><ele>3.0</ele><time>2026-04-03T07:18:06.996Z</time></trkpt><trkpt lat="43.58476769646666" lon="-5.9304110233628515"><ele>3.0</ele><time>2026-04-03T07:18:08.996Z</time></trkpt><trkpt lat="43.584865061299" lon="-5.930439052024194"><ele>3.0</ele><time>2026-04-03T07:18:10.996Z</time></trkpt><trkpt lat="43.58494618784621" lon="-5.930458829083048"><ele>3.0</ele><time>2026-04-03T07:18:12.996Z</time></trkpt><trkpt lat="43.585022283478864" lon="-5.930480235141222"><ele>3.0</ele><time>2026-04-03T07:18:14.996Z</time></trkpt><trkpt lat="43.58512037495611" lon="-5.930516268653778"><ele>3.0</ele><time>2026-04-03T07:18:16.996Z</time></trkpt><trkpt lat="43.585279303713335" lon="-5.930526023340955"><ele>3.0</ele><time>2026-04-03T07:18:20.996Z</time></trkpt><trkpt lat="43.58535690172483" lon="-5.930550366332942"><ele>3.0</ele><time>2026-04-03T07:18:22.996Z</time></trkpt><trkpt lat="43.58542309036737" lon="-5.930597841519203"><ele>3.0</ele><time>2026-04-03T07:18:24.996Z</time></trkpt><trkpt lat="43.58551096803276" lon="-5.93063339218777"><ele>3.0</ele><time>2026-04-03T07:18:26.996Z</time></trkpt><trkpt lat="43.585590703670086" lon="-5.930677902241979"><ele>3.0</ele><time>2026-04-03T07:18:28.996Z</time></trkpt><trkpt lat="43.58565748455727" lon="-5.930701301746574"><ele>3.0</ele><time>2026-04-03T07:18:30.996Z</time></trkpt><trkpt lat="43.58575691429904" lon="-5.930721992904392"><ele>3.0</ele><time>2026-04-03T07:18:32.996Z</time></trkpt><trkpt lat="43.585940901444154" lon="-5.930760811587562"><ele>3.0</ele><time>2026-04-03T07:18:36.996Z</time></trkpt><trkpt lat="43.586002303144895" lon="-5.930801336945618"><ele>3.0</ele><time>2026-04-03T07:18:38.996Z</time></trkpt><trkpt lat="43.586067709710875" lon="-5.930857683161632"><ele>3.0</ele><time>2026-04-03T07:18:40.996Z</time></trkpt><trkpt lat="43.586134395177595" lon="-5.930892752957739"><ele>3.0</ele><time>2026-04-03T07:18:42.995Z</time></trkpt><trkpt lat="43.586222938049985" lon="-5.930926918464404"><ele>2.4</ele><time>2026-04-03T07:18:44.995Z</time></trkpt><trkpt lat="43.58631185164827" lon="-5.930947568140844"><ele>1.7999999999999998</ele><time>2026-04-03T07:18:46.995Z</time></trkpt><trkpt lat="43.58637849787412" lon="-5.930979031496766"><ele>1.2</ele><time>2026-04-03T07:18:48.995Z</time></trkpt><trkpt lat="43.58649650160177" lon="-5.930947633838496"><ele>0.6</ele><time>2026-04-03T07:18:51.995Z</time></trkpt><trkpt lat="43.58659809203035" lon="-5.930951184987529"><ele>0.0</ele><time>2026-04-03T07:18:53.995Z</time></trkpt><trkpt lat="43.58666564775964" lon="-5.930993151462086"><ele>0.0</ele><time>2026-04-03T07:18:55.995Z</time></trkpt><trkpt lat="43.58673542529668" lon="-5.93102369851309"><ele>0.0</ele><time>2026-04-03T07:18:57.995Z</time></trkpt><trkpt lat="43.586807777962846" lon="-5.931054281483862"><ele>0.0</ele><time>2026-04-03T07:18:59.995Z</time></trkpt><trkpt lat="43.58687976241607" lon="-5.931090617446254"><ele>0.0</ele><time>2026-04-03T07:19:01.995Z</time></trkpt><trkpt lat="43.587159785754196" lon="-5.931107845050756"><ele>0.75</ele><time>2026-04-03T07:19:11.995Z</time></trkpt><trkpt lat="43.58735978865785" lon="-5.931111699804243"><ele>1.5</ele><time>2026-04-03T07:19:16.995Z</time></trkpt><trkpt lat="43.58744001950283" lon="-5.931128097781953"><ele>2.25</ele><time>2026-04-03T07:19:18.995Z</time></trkpt><trkpt lat="43.58749901266148" lon="-5.931169843312584"><ele>3.0</ele><time>2026-04-03T07:19:20.995Z</time></trkpt><trkpt lat="43.587610984185964" lon="-5.931168534123268"><ele>3.0</ele><time>2026-04-03T07:19:24.995Z</time></trkpt><trkpt lat="43.58782568284209" lon="-5.931165393391835"><ele>3.0</ele><time>2026-04-03T07:19:29.995Z</time></trkpt><trkpt lat="43.587923170205904" lon="-5.931118385220164"><ele>3.0</ele><time>2026-04-03T07:19:31.995Z</time></trkpt><trkpt lat="43.588028311937876" lon="-5.931099310320449"><ele>3.0</ele><time>2026-04-03T07:19:33.995Z</time></trkpt><trkpt lat="43.58813494470551" lon="-5.931079766741341"><ele>3.4</ele><time>2026-04-03T07:19:35.995Z</time></trkpt><trkpt lat="43.58824490492129" lon="-5.931045296076077"><ele>3.8</ele><time>2026-04-03T07:19:37.995Z</time></trkpt><trkpt lat="43.58833661699476" lon="-5.931035540251642"><ele>4.2</ele><time>2026-04-03T07:19:39.995Z</time></trkpt><trkpt lat="43.58844609370376" lon="-5.931022828852307"><ele>4.6</ele><time>2026-04-03T07:19:41.995Z</time></trkpt><trkpt lat="43.588552252058484" lon="-5.9310114096743956"><ele>5.0</ele><time>2026-04-03T07:19:43.995Z</time></trkpt><trkpt lat="43.58865351403369" lon="-5.931003138771136"><ele>4.6</ele><time>2026-04-03T07:19:45.995Z</time></trkpt><trkpt lat="43.588753447140924" lon="-5.931001798033215"><ele>4.2</ele><time>2026-04-03T07:19:47.995Z</time></trkpt><trkpt lat="43.588851118636164" lon="-5.931014169183405"><ele>3.8</ele><time>2026-04-03T07:19:49.995Z</time></trkpt><trkpt lat="43.58893270363005" lon="-5.930998412416199"><ele>3.4</ele><time>2026-04-03T07:19:51.995Z</time></trkpt><trkpt lat="43.58902745634939" lon="-5.931004295561723"><ele>3.0</ele><time>2026-04-03T07:19:53.995Z</time></trkpt><trkpt lat="43.589108035084486" lon="-5.931005579106836"><ele>3.0</ele><time>2026-04-03T07:19:55.995Z</time></trkpt><trkpt lat="43.58950102768478" lon="-5.931039251485958"><ele>3.0</ele><time>2026-04-03T07:20:06.994Z</time></trkpt><trkpt lat="43.58957312596906" lon="-5.931083028876936"><ele>3.333333333333333</ele><time>2026-04-03T07:20:08.994Z</time></trkpt><trkpt lat="43.58965406243847" lon="-5.9311386884639665"><ele>3.6666666666666665</ele><time>2026-04-03T07:20:10.994Z</time></trkpt><trkpt lat="43.58974686067209" lon="-5.931166305532144"><ele>4.0</ele><time>2026-04-03T07:20:12.994Z</time></trkpt><trkpt lat="43.59010963370512" lon="-5.931166110683748"><ele>4.0</ele><time>2026-04-03T07:20:21.994Z</time></trkpt><trkpt lat="43.590197775308674" lon="-5.931235369229878"><ele>4.0</ele><time>2026-04-03T07:20:23.994Z</time></trkpt><trkpt lat="43.59024330841627" lon="-5.931324162836488"><ele>4.0</ele><time>2026-04-03T07:20:25.994Z</time></trkpt><trkpt lat="43.5902589765374" lon="-5.931435752077222"><ele>4.0</ele><time>2026-04-03T07:20:27.994Z</time></trkpt><trkpt lat="43.590264647075195" lon="-5.931571933105053"><ele>4.0</ele><time>2026-04-03T07:20:29.994Z</time></trkpt><trkpt lat="43.59026887800788" lon="-5.931698297865126"><ele>3.6666666666666665</ele><time>2026-04-03T07:20:31.994Z</time></trkpt><trkpt lat="43.59028604696999" lon="-5.93179779073569"><ele>3.333333333333333</ele><time>2026-04-03T07:20:33.994Z</time></trkpt><trkpt lat="43.59030060276731" lon="-5.931887505362781"><ele>3.0</ele><time>2026-04-03T07:20:35.994Z</time></trkpt><trkpt lat="43.59030914369902" lon="-5.931995632688992"><ele>2.6666666666666665</ele><time>2026-04-03T07:20:37.994Z</time></trkpt><trkpt lat="43.590324709010886" lon="-5.932110112983016"><ele>2.333333333333333</ele><time>2026-04-03T07:20:39.994Z</time></trkpt><trkpt lat="43.59033335041214" lon="-5.932230784700866"><ele>2.0</ele><time>2026-04-03T07:20:41.994Z</time></trkpt><trkpt lat="43.59032968285335" lon="-5.932327207483125"><ele>1.9999999999999998</ele><time>2026-04-03T07:20:43.994Z</time></trkpt><trkpt lat="43.59032212303625" lon="-5.9324467764214575"><ele>2.0</ele><time>2026-04-03T07:20:45.994Z</time></trkpt><trkpt lat="43.59030738003174" lon="-5.932544643892648"><ele>2.0</ele><time>2026-04-03T07:20:47.994Z</time></trkpt><trkpt lat="43.59031283348958" lon="-5.932639401473286"><ele>2.0</ele><time>2026-04-03T07:20:49.994Z</time></trkpt><trkpt lat="43.59030035574044" lon="-5.932750371431473"><ele>1.9999999999999998</ele><time>2026-04-03T07:20:51.994Z</time></trkpt><trkpt lat="43.59026939571944" lon="-5.932848654277341"><ele>2.0</ele><time>2026-04-03T07:20:53.994Z</time></trkpt><trkpt lat="43.590236878635764" lon="-5.932957506451455"><ele>1.8333333333333333</ele><time>2026-04-03T07:20:55.994Z</time></trkpt><trkpt lat="43.59021428220857" lon="-5.933067885220382"><ele>1.6666666666666665</ele><time>2026-04-03T07:20:57.994Z</time></trkpt><trkpt lat="43.590183497621545" lon="-5.933157602722518"><ele>1.5</ele><time>2026-04-03T07:20:59.994Z</time></trkpt><trkpt lat="43.59015337218105" lon="-5.933256750433483"><ele>1.3333333333333333</ele><time>2026-04-03T07:21:01.994Z</time></trkpt><trkpt lat="43.59012408420968" lon="-5.933353953351633"><ele>1.1666666666666665</ele><time>2026-04-03T07:21:03.994Z</time></trkpt><trkpt lat="43.59009216749022" lon="-5.93345821305722"><ele>1.0</ele><time>2026-04-03T07:21:05.994Z</time></trkpt><trkpt lat="43.590051493832306" lon="-5.933558049635122"><ele>0.9999999999999999</ele><time>2026-04-03T07:21:07.994Z</time></trkpt><trkpt lat="43.59000365253955" lon="-5.933655182546419"><ele>1.0</ele><time>2026-04-03T07:21:09.994Z</time></trkpt><trkpt lat="43.58995572463301" lon="-5.933759628521042"><ele>1.0</ele><time>2026-04-03T07:21:11.994Z</time></trkpt><trkpt lat="43.5899005977682" lon="-5.933863340940823"><ele>1.0</ele><time>2026-04-03T07:21:13.994Z</time></trkpt><trkpt lat="43.58985786114213" lon="-5.933967173871538"><ele>0.9999999999999999</ele><time>2026-04-03T07:21:15.994Z</time></trkpt><trkpt lat="43.58980512768615" lon="-5.934057691852499"><ele>1.0</ele><time>2026-04-03T07:21:17.993Z</time></trkpt><trkpt lat="43.5897631602343" lon="-5.934148791696561"><ele>1.1666666666666665</ele><time>2026-04-03T07:21:19.993Z</time></trkpt><trkpt lat="43.58971931120748" lon="-5.9342355336160715"><ele>1.3333333333333333</ele><time>2026-04-03T07:21:21.993Z</time></trkpt><trkpt lat="43.58967377059631" lon="-5.934322764371609"><ele>1.5</ele><time>2026-04-03T07:21:23.993Z</time></trkpt><trkpt lat="43.58961871673131" lon="-5.934420132499628"><ele>1.6666666666666665</ele><time>2026-04-03T07:21:25.993Z</time></trkpt><trkpt lat="43.58957451465271" lon="-5.934511949092582"><ele>1.8333333333333333</ele><time>2026-04-03T07:21:27.993Z</time></trkpt><trkpt lat="43.58953176085348" lon="-5.934607325966743"><ele>2.0</ele><time>2026-04-03T07:21:29.993Z</time></trkpt><trkpt lat="43.589475245751366" lon="-5.934702696874724"><ele>1.8333333333333333</ele><time>2026-04-03T07:21:31.993Z</time></trkpt><trkpt lat="43.58942528148163" lon="-5.934796729718535"><ele>1.6666666666666665</ele><time>2026-04-03T07:21:33.993Z</time></trkpt><trkpt lat="43.58937699777213" lon="-5.934890617564998"><ele>1.5</ele><time>2026-04-03T07:21:35.993Z</time></trkpt><trkpt lat="43.58933236945161" lon="-5.934980239666394"><ele>1.3333333333333333</ele><time>2026-04-03T07:21:37.993Z</time></trkpt><trkpt lat="43.58927874948533" lon="-5.935069496422874"><ele>1.1666666666666665</ele><time>2026-04-03T07:21:39.993Z</time></trkpt><trkpt lat="43.58922599196898" lon="-5.935161034212826"><ele>1.0</ele><time>2026-04-03T07:21:41.993Z</time></trkpt><trkpt lat="43.58918632307198" lon="-5.935252272783842"><ele>0.9999999999999999</ele><time>2026-04-03T07:21:43.993Z</time></trkpt><trkpt lat="43.58913802892027" lon="-5.935330359183755"><ele>1.0</ele><time>2026-04-03T07:21:45.993Z</time></trkpt><trkpt lat="43.58908509033511" lon="-5.935415306446848"><ele>1.0</ele><time>2026-04-03T07:21:47.993Z</time></trkpt><trkpt lat="43.58903088453569" lon="-5.93549239965878"><ele>1.0</ele><time>2026-04-03T07:21:49.993Z</time></trkpt><trkpt lat="43.58897796039961" lon="-5.935569310329319"><ele>0.9999999999999999</ele><time>2026-04-03T07:21:51.993Z</time></trkpt><trkpt lat="43.5889275295549" lon="-5.935653024014402"><ele>1.0</ele><time>2026-04-03T07:21:53.993Z</time></trkpt><trkpt lat="43.58886838198639" lon="-5.935728275554915"><ele>0.9999999999999999</ele><time>2026-04-03T07:21:55.993Z</time></trkpt><trkpt lat="43.58881578276607" lon="-5.935809773967584"><ele>1.0</ele><time>2026-04-03T07:21:57.993Z</time></trkpt><trkpt lat="43.588757170809636" lon="-5.935888909592765"><ele>1.0</ele><time>2026-04-03T07:21:59.993Z</time></trkpt><trkpt lat="43.58870556640889" lon="-5.935970928713556"><ele>1.0</ele><time>2026-04-03T07:22:01.993Z</time></trkpt><trkpt lat="43.58863608270172" lon="-5.936051547671671"><ele>0.9999999999999999</ele><time>2026-04-03T07:22:03.993Z</time></trkpt><trkpt lat="43.588585344369164" lon="-5.9361254740505585"><ele>1.0</ele><time>2026-04-03T07:22:05.993Z</time></trkpt><trkpt lat="43.5885168158035" lon="-5.936203709738138"><ele>0.9999999999999999</ele><time>2026-04-03T07:22:07.993Z</time></trkpt><trkpt lat="43.58845648804705" lon="-5.9362853733483885"><ele>1.0</ele><time>2026-04-03T07:22:09.993Z</time></trkpt><trkpt lat="43.588392896242645" lon="-5.936367140612137"><ele>1.0</ele><time>2026-04-03T07:22:11.993Z</time></trkpt><trkpt lat="43.58833398618786" lon="-5.936443133619113"><ele>1.0</ele><time>2026-04-03T07:22:13.993Z</time></trkpt><trkpt lat="43.58827316156863" lon="-5.936515785461151"><ele>0.9999999999999999</ele><time>2026-04-03T07:22:15.993Z</time></trkpt><trkpt lat="43.58822085694757" lon="-5.936602855549072"><ele>1.0</ele><time>2026-04-03T07:22:17.993Z</time></trkpt><trkpt lat="43.58816897385446" lon="-5.93667099569091"><ele>0.9999999999999999</ele><time>2026-04-03T07:22:19.993Z</time></trkpt><trkpt lat="43.588108684093825" lon="-5.936747805673444"><ele>1.0</ele><time>2026-04-03T07:22:21.993Z</time></trkpt><trkpt lat="43.58805891464148" lon="-5.9368265479959055"><ele>1.0</ele><time>2026-04-03T07:22:23.993Z</time></trkpt><trkpt lat="43.58799451794777" lon="-5.936905461143683"><ele>1.0</ele><time>2026-04-03T07:22:25.993Z</time></trkpt><trkpt lat="43.58793169817484" lon="-5.936978694694236"><ele>0.9999999999999999</ele><time>2026-04-03T07:22:27.993Z</time></trkpt><trkpt lat="43.587877531987246" lon="-5.937059254545139"><ele>1.0</ele><time>2026-04-03T07:22:29.993Z</time></trkpt><trkpt lat="43.58781790587308" lon="-5.937135344594903"><ele>1.1666666666666665</ele><time>2026-04-03T07:22:31.993Z</time></trkpt><trkpt lat="43.58775879520176" lon="-5.937212984967172"><ele>1.3333333333333333</ele><time>2026-04-03T07:22:33.993Z</time></trkpt><trkpt lat="43.587687756160555" lon="-5.93729701381762"><ele>1.5</ele><time>2026-04-03T07:22:35.992Z</time></trkpt><trkpt lat="43.58762878458153" lon="-5.937380337188985"><ele>1.6666666666666665</ele><time>2026-04-03T07:22:37.992Z</time></trkpt><trkpt lat="43.58756569774533" lon="-5.937458001981978"><ele>1.8333333333333333</ele><time>2026-04-03T07:22:39.992Z</time></trkpt><trkpt lat="43.58750607612558" lon="-5.937532829829774"><ele>2.0</ele><time>2026-04-03T07:22:41.992Z</time></trkpt><trkpt lat="43.587447338816176" lon="-5.937616343893091"><ele>2.1666666666666665</ele><time>2026-04-03T07:22:43.992Z</time></trkpt><trkpt lat="43.587383793479155" lon="-5.937698120873001"><ele>2.333333333333333</ele><time>2026-04-03T07:22:45.992Z</time></trkpt><trkpt lat="43.58731844675785" lon="-5.937776486793285"><ele>2.5</ele><time>2026-04-03T07:22:47.992Z</time></trkpt><trkpt lat="43.58726613049679" lon="-5.937856064181952"><ele>2.6666666666666665</ele><time>2026-04-03T07:22:49.992Z</time></trkpt><trkpt lat="43.58720972459174" lon="-5.937939256211007"><ele>2.8333333333333335</ele><time>2026-04-03T07:22:51.992Z</time></trkpt><trkpt lat="43.58715710690122" lon="-5.938019165829152"><ele>3.0</ele><time>2026-04-03T07:22:53.992Z</time></trkpt><trkpt lat="43.58709798146259" lon="-5.938096590703531"><ele>3.0</ele><time>2026-04-03T07:22:55.992Z</time></trkpt><trkpt lat="43.58704409918195" lon="-5.938166949948831"><ele>3.0</ele><time>2026-04-03T07:22:57.992Z</time></trkpt><trkpt lat="43.58698809169496" lon="-5.938241692049631"><ele>3.0</ele><time>2026-04-03T07:22:59.992Z</time></trkpt><trkpt lat="43.586929378656926" lon="-5.938315881334069"><ele>3.0</ele><time>2026-04-03T07:23:01.992Z</time></trkpt><trkpt lat="43.58687180717292" lon="-5.93839850179874"><ele>3.0</ele><time>2026-04-03T07:23:03.992Z</time></trkpt><trkpt lat="43.586817098805234" lon="-5.938472662855649"><ele>3.0</ele><time>2026-04-03T07:23:05.992Z</time></trkpt><trkpt lat="43.586739971449795" lon="-5.93853373851251"><ele>3.5</ele><time>2026-04-03T07:23:07.992Z</time></trkpt><trkpt lat="43.586676922660615" lon="-5.938601760314926"><ele>4.0</ele><time>2026-04-03T07:23:09.992Z</time></trkpt><trkpt lat="43.58662799111389" lon="-5.9386831004154415"><ele>4.5</ele><time>2026-04-03T07:23:11.992Z</time></trkpt><trkpt lat="43.586567210405384" lon="-5.938774260419861"><ele>5.0</ele><time>2026-04-03T07:23:13.992Z</time></trkpt><trkpt lat="43.586501131388154" lon="-5.938855186496089"><ele>5.5</ele><time>2026-04-03T07:23:15.992Z</time></trkpt><trkpt lat="43.58642966960898" lon="-5.938946800414467"><ele>6.0</ele><time>2026-04-03T07:23:17.992Z</time></trkpt><trkpt lat="43.58637220240758" lon="-5.939034816847002"><ele>6.0</ele><time>2026-04-03T07:23:19.992Z</time></trkpt><trkpt lat="43.586305067659936" lon="-5.939123132618939"><ele>6.0</ele><time>2026-04-03T07:23:21.992Z</time></trkpt><trkpt lat="43.58624234192359" lon="-5.939216822589826"><ele>6.0</ele><time>2026-04-03T07:23:23.992Z</time></trkpt><trkpt lat="43.58618668529786" lon="-5.939293001974794"><ele>6.0</ele><time>2026-04-03T07:23:25.992Z</time></trkpt><trkpt lat="43.58612391868345" lon="-5.939387301482339"><ele>6.0</ele><time>2026-04-03T07:23:27.992Z</time></trkpt><trkpt lat="43.58605951247867" lon="-5.939461348689783"><ele>6.0</ele><time>2026-04-03T07:23:29.992Z</time></trkpt><trkpt lat="43.58600077816709" lon="-5.939536039989929"><ele>5.5</ele><time>2026-04-03T07:23:31.992Z</time></trkpt><trkpt lat="43.58592738868325" lon="-5.939606213886628"><ele>5.0</ele><time>2026-04-03T07:23:33.992Z</time></trkpt><trkpt lat="43.58586175230255" lon="-5.939681012869104"><ele>4.5</ele><time>2026-04-03T07:23:35.992Z</time></trkpt><trkpt lat="43.585809809673975" lon="-5.939760940050486"><ele>4.0</ele><time>2026-04-03T07:23:37.992Z</time></trkpt><trkpt lat="43.585738528581984" lon="-5.939843301994818"><ele>3.5</ele><time>2026-04-03T07:23:39.992Z</time></trkpt><trkpt lat="43.58567949138689" lon="-5.939924403551478"><ele>3.0</ele><time>2026-04-03T07:23:41.992Z</time></trkpt><trkpt lat="43.58560600512552" lon="-5.939999551875841"><ele>3.0</ele><time>2026-04-03T07:23:43.992Z</time></trkpt><trkpt lat="43.58554390806789" lon="-5.940084405280455"><ele>3.0</ele><time>2026-04-03T07:23:45.992Z</time></trkpt><trkpt lat="43.585486189434526" lon="-5.940169788833921"><ele>3.0</ele><time>2026-04-03T07:23:47.992Z</time></trkpt><trkpt lat="43.58542825749278" lon="-5.940248192900862"><ele>3.0</ele><time>2026-04-03T07:23:49.992Z</time></trkpt><trkpt lat="43.58536658352583" lon="-5.9403279605148605"><ele>3.0</ele><time>2026-04-03T07:23:51.992Z</time></trkpt><trkpt lat="43.58529916448347" lon="-5.940402447875609"><ele>3.0</ele><time>2026-04-03T07:23:53.991Z</time></trkpt><trkpt lat="43.58523762653892" lon="-5.9404865266966524"><ele>2.8333333333333335</ele><time>2026-04-03T07:23:55.991Z</time></trkpt><trkpt lat="43.58517600050097" lon="-5.940566801309354"><ele>2.6666666666666665</ele><time>2026-04-03T07:23:57.991Z</time></trkpt><trkpt lat="43.58510956065708" lon="-5.940647306219473"><ele>2.5</ele><time>2026-04-03T07:23:59.991Z</time></trkpt><trkpt lat="43.58505396436914" lon="-5.940733967435654"><ele>2.333333333333333</ele><time>2026-04-03T07:24:01.991Z</time></trkpt><trkpt lat="43.584982001427306" lon="-5.9408103382098965"><ele>2.1666666666666665</ele><time>2026-04-03T07:24:03.991Z</time></trkpt><trkpt lat="43.58492258788932" lon="-5.940896280784302"><ele>2.0</ele><time>2026-04-03T07:24:05.991Z</time></trkpt><trkpt lat="43.58486221502096" lon="-5.940973123648655"><ele>1.8333333333333333</ele><time>2026-04-03T07:24:07.991Z</time></trkpt><trkpt lat="43.584804885697004" lon="-5.941052483226395"><ele>1.6666666666666665</ele><time>2026-04-03T07:24:09.991Z</time></trkpt><trkpt lat="43.5847323054641" lon="-5.941134653905837"><ele>1.5</ele><time>2026-04-03T07:24:11.991Z</time></trkpt><trkpt lat="43.58466445017241" lon="-5.941217788393972"><ele>1.3333333333333333</ele><time>2026-04-03T07:24:13.991Z</time></trkpt><trkpt lat="43.58460513181404" lon="-5.941298245312164"><ele>1.1666666666666665</ele><time>2026-04-03T07:24:15.991Z</time></trkpt><trkpt lat="43.58454479715503" lon="-5.941382587866424"><ele>1.0</ele><time>2026-04-03T07:24:17.991Z</time></trkpt><trkpt lat="43.58448926053021" lon="-5.941459013016868"><ele>1.0</ele><time>2026-04-03T07:24:19.991Z</time></trkpt><trkpt lat="43.584419246247755" lon="-5.941538480804536"><ele>1.0</ele><time>2026-04-03T07:24:21.991Z</time></trkpt><trkpt lat="43.58435158323717" lon="-5.941622320230081"><ele>1.0</ele><time>2026-04-03T07:24:23.991Z</time></trkpt><trkpt lat="43.58429621105758" lon="-5.941706211973969"><ele>1.0</ele><time>2026-04-03T07:24:25.991Z</time></trkpt><trkpt lat="43.58422219353327" lon="-5.941784131183165"><ele>1.0</ele><time>2026-04-03T07:24:27.991Z</time></trkpt><trkpt lat="43.58415211559844" lon="-5.941870868667265"><ele>1.5</ele><time>2026-04-03T07:24:29.991Z</time></trkpt><trkpt lat="43.584101298282995" lon="-5.94194719029595"><ele>2.0</ele><time>2026-04-03T07:24:31.991Z</time></trkpt><trkpt lat="43.58403276853296" lon="-5.94202180974509"><ele>2.5</ele><time>2026-04-03T07:24:33.991Z</time></trkpt><trkpt lat="43.58396949576564" lon="-5.942107789971686"><ele>3.0</ele><time>2026-04-03T07:24:35.991Z</time></trkpt><trkpt lat="43.58390456164988" lon="-5.942188670000743"><ele>3.4999999999999996</ele><time>2026-04-03T07:24:37.991Z</time></trkpt><trkpt lat="43.58385558168658" lon="-5.942271764804747"><ele>4.0</ele><time>2026-04-03T07:24:39.991Z</time></trkpt><trkpt lat="43.58378087968051" lon="-5.942356966422475"><ele>3.9999999999999996</ele><time>2026-04-03T07:24:41.991Z</time></trkpt><trkpt lat="43.5837206345501" lon="-5.942436065396228"><ele>4.0</ele><time>2026-04-03T07:24:43.991Z</time></trkpt><trkpt lat="43.58366769555881" lon="-5.942524843817155"><ele>4.0</ele><time>2026-04-03T07:24:45.991Z</time></trkpt><trkpt lat="43.58360183606485" lon="-5.9426048179276725"><ele>4.0</ele><time>2026-04-03T07:24:47.991Z</time></trkpt><trkpt lat="43.58354130343416" lon="-5.942685118682141"><ele>3.9999999999999996</ele><time>2026-04-03T07:24:49.991Z</time></trkpt><trkpt lat="43.583470300928084" lon="-5.942769116649362"><ele>4.0</ele><time>2026-04-03T07:24:51.991Z</time></trkpt><trkpt lat="43.583405585281255" lon="-5.942849509838277"><ele>3.9999999999999996</ele><time>2026-04-03T07:24:53.991Z</time></trkpt><trkpt lat="43.58334156914878" lon="-5.942928715684926"><ele>4.0</ele><time>2026-04-03T07:24:55.991Z</time></trkpt><trkpt lat="43.58327434454886" lon="-5.94301076923568"><ele>4.0</ele><time>2026-04-03T07:24:57.991Z</time></trkpt><trkpt lat="43.583210706289236" lon="-5.9430922672750786"><ele>4.0</ele><time>2026-04-03T07:24:59.991Z</time></trkpt><trkpt lat="43.58315427527643" lon="-5.943177967885977"><ele>3.9999999999999996</ele><time>2026-04-03T07:25:01.991Z</time></trkpt><trkpt lat="43.58308970942292" lon="-5.943263365103592"><ele>4.0</ele><time>2026-04-03T07:25:03.991Z</time></trkpt><trkpt lat="43.58302573303636" lon="-5.94334605393931"><ele>4.333333333333333</ele><time>2026-04-03T07:25:05.991Z</time></trkpt><trkpt lat="43.5829682907579" lon="-5.943427764534547"><ele>4.666666666666666</ele><time>2026-04-03T07:25:07.991Z</time></trkpt><trkpt lat="43.582904572008225" lon="-5.943512315760633"><ele>5.0</ele><time>2026-04-03T07:25:09.99Z</time></trkpt><trkpt lat="43.582849748278825" lon="-5.943595315396447"><ele>5.333333333333333</ele><time>2026-04-03T07:25:11.99Z</time></trkpt><trkpt lat="43.58278384850963" lon="-5.943678083963691"><ele>5.666666666666667</ele><time>2026-04-03T07:25:13.99Z</time></trkpt><trkpt lat="43.5827153415622" lon="-5.943759394000693"><ele>6.0</ele><time>2026-04-03T07:25:15.99Z</time></trkpt><trkpt lat="43.58265648406503" lon="-5.943847308534912"><ele>6.5</ele><time>2026-04-03T07:25:17.99Z</time></trkpt><trkpt lat="43.58260524860842" lon="-5.943929303724154"><ele>7.0</ele><time>2026-04-03T07:25:19.99Z</time></trkpt><trkpt lat="43.582528961150004" lon="-5.9440147514777175"><ele>7.5</ele><time>2026-04-03T07:25:21.99Z</time></trkpt><trkpt lat="43.58245747400073" lon="-5.944092049556466"><ele>8.0</ele><time>2026-04-03T07:25:23.99Z</time></trkpt><trkpt lat="43.58240696447628" lon="-5.94417779498441"><ele>8.5</ele><time>2026-04-03T07:25:25.99Z</time></trkpt><trkpt lat="43.582348799522336" lon="-5.94425700394132"><ele>9.0</ele><time>2026-04-03T07:25:27.99Z</time></trkpt><trkpt lat="43.58229510250833" lon="-5.94433816368713"><ele>9.0</ele><time>2026-04-03T07:25:29.99Z</time></trkpt><trkpt lat="43.58223279628436" lon="-5.944411688017899"><ele>9.0</ele><time>2026-04-03T07:25:31.99Z</time></trkpt><trkpt lat="43.58217309439898" lon="-5.944500188441362"><ele>9.0</ele><time>2026-04-03T07:25:33.99Z</time></trkpt><trkpt lat="43.582109316720164" lon="-5.94458182427246"><ele>9.0</ele><time>2026-04-03T07:25:35.99Z</time></trkpt><trkpt lat="43.58203940342453" lon="-5.944660010625198"><ele>9.0</ele><time>2026-04-03T07:25:37.99Z</time></trkpt><trkpt lat="43.58197399252053" lon="-5.944743739490151"><ele>9.0</ele><time>2026-04-03T07:25:39.99Z</time></trkpt><trkpt lat="43.58190330097616" lon="-5.944825481936797"><ele>9.2</ele><time>2026-04-03T07:25:41.99Z</time></trkpt><trkpt lat="43.581842372741974" lon="-5.944909186206451"><ele>9.4</ele><time>2026-04-03T07:25:43.99Z</time></trkpt><trkpt lat="43.581776755337444" lon="-5.944992412194378"><ele>9.6</ele><time>2026-04-03T07:25:45.99Z</time></trkpt><trkpt lat="43.5816964001107" lon="-5.945075177374936"><ele>9.8</ele><time>2026-04-03T07:25:47.99Z</time></trkpt><trkpt lat="43.58164636480721" lon="-5.945147515694978"><ele>10.0</ele><time>2026-04-03T07:25:49.99Z</time></trkpt><trkpt lat="43.58156822571523" lon="-5.945242488687354"><ele>9.4</ele><time>2026-04-03T07:25:51.99Z</time></trkpt><trkpt lat="43.581504169855194" lon="-5.945314869068366"><ele>8.8</ele><time>2026-04-03T07:25:53.99Z</time></trkpt><trkpt lat="43.581429555199826" lon="-5.945403443637185"><ele>8.2</ele><time>2026-04-03T07:25:55.99Z</time></trkpt><trkpt lat="43.581374011979676" lon="-5.945491960291748"><ele>7.6</ele><time>2026-04-03T07:25:57.99Z</time></trkpt><trkpt lat="43.58130683831163" lon="-5.945583080278003"><ele>7.0</ele><time>2026-04-03T07:25:59.99Z</time></trkpt><trkpt lat="43.58123341174487" lon="-5.945667096172295"><ele>7.500000000000001</ele><time>2026-04-03T07:26:01.99Z</time></trkpt><trkpt lat="43.581167283623806" lon="-5.945750016581277"><ele>8.0</ele><time>2026-04-03T07:26:03.99Z</time></trkpt><trkpt lat="43.58112163773497" lon="-5.9458427603850454"><ele>8.5</ele><time>2026-04-03T07:26:05.99Z</time></trkpt><trkpt lat="43.581055989070606" lon="-5.945935020977093"><ele>9.0</ele><time>2026-04-03T07:26:07.99Z</time></trkpt><trkpt lat="43.58099294496121" lon="-5.946022538174449"><ele>9.5</ele><time>2026-04-03T07:26:09.99Z</time></trkpt><trkpt lat="43.580935346463185" lon="-5.9461193579159985"><ele>10.0</ele><time>2026-04-03T07:26:11.99Z</time></trkpt><trkpt lat="43.58087404606262" lon="-5.946218804675849"><ele>10.0</ele><time>2026-04-03T07:26:13.99Z</time></trkpt><trkpt lat="43.580807451854014" lon="-5.946314275967031"><ele>10.0</ele><time>2026-04-03T07:26:15.99Z</time></trkpt><trkpt lat="43.58075839006342" lon="-5.946413430666923"><ele>10.0</ele><time>2026-04-03T07:26:17.99Z</time></trkpt><trkpt lat="43.580681467443235" lon="-5.946507054594493"><ele>10.0</ele><time>2026-04-03T07:26:19.99Z</time></trkpt><trkpt lat="43.58063158513243" lon="-5.94661083380974"><ele>10.0</ele><time>2026-04-03T07:26:21.99Z</time></trkpt><trkpt lat="43.580559299172194" lon="-5.946706015274857"><ele>9.6</ele><time>2026-04-03T07:26:23.99Z</time></trkpt><trkpt lat="43.580491079453395" lon="-5.946808014706389"><ele>9.2</ele><time>2026-04-03T07:26:25.99Z</time></trkpt><trkpt lat="43.580430726489" lon="-5.946901719154673"><ele>8.8</ele><time>2026-04-03T07:26:27.989Z</time></trkpt><trkpt lat="43.580379744606645" lon="-5.947004722076507"><ele>8.4</ele><time>2026-04-03T07:26:29.989Z</time></trkpt><trkpt lat="43.58031809476134" lon="-5.947106221763279"><ele>8.0</ele><time>2026-04-03T07:26:31.989Z</time></trkpt><trkpt lat="43.58025915924888" lon="-5.947210460383619"><ele>8.600000000000001</ele><time>2026-04-03T07:26:33.989Z</time></trkpt><trkpt lat="43.58020241304315" lon="-5.947295247448382"><ele>9.200000000000001</ele><time>2026-04-03T07:26:35.989Z</time></trkpt><trkpt lat="43.580146109257974" lon="-5.947398876888371"><ele>9.8</ele><time>2026-04-03T07:26:37.989Z</time></trkpt><trkpt lat="43.58008786670992" lon="-5.947503014926259"><ele>10.4</ele><time>2026-04-03T07:26:39.989Z</time></trkpt><trkpt lat="43.580031949566525" lon="-5.947604695919746"><ele>11.0</ele><time>2026-04-03T07:26:41.989Z</time></trkpt><trkpt lat="43.57996475316994" lon="-5.9477039178624365"><ele>11.0</ele><time>2026-04-03T07:26:43.989Z</time></trkpt><trkpt lat="43.57990938572697" lon="-5.947801895601145"><ele>11.0</ele><time>2026-04-03T07:26:45.989Z</time></trkpt><trkpt lat="43.57984151922801" lon="-5.947894380925541"><ele>11.0</ele><time>2026-04-03T07:26:47.989Z</time></trkpt><trkpt lat="43.57978198141848" lon="-5.947986246289895"><ele>11.0</ele><time>2026-04-03T07:26:49.989Z</time></trkpt><trkpt lat="43.57972813544901" lon="-5.948080512634848"><ele>11.0</ele><time>2026-04-03T07:26:51.989Z</time></trkpt><trkpt lat="43.57968955487606" lon="-5.948186104007265"><ele>11.0</ele><time>2026-04-03T07:26:53.989Z</time></trkpt><trkpt lat="43.579642241919416" lon="-5.948272378647307"><ele>11.0</ele><time>2026-04-03T07:26:55.989Z</time></trkpt><trkpt lat="43.57959194732889" lon="-5.948366148339143"><ele>11.0</ele><time>2026-04-03T07:26:57.989Z</time></trkpt><trkpt lat="43.57951433224842" lon="-5.948454737127259"><ele>11.0</ele><time>2026-04-03T07:26:59.989Z</time></trkpt><trkpt lat="43.5794840422992" lon="-5.948574598673184"><ele>11.0</ele><time>2026-04-03T07:27:02.989Z</time></trkpt><trkpt lat="43.57944497214722" lon="-5.948683990429902"><ele>11.0</ele><time>2026-04-03T07:27:04.989Z</time></trkpt><trkpt lat="43.57937288680593" lon="-5.948779319593968"><ele>11.0</ele><time>2026-04-03T07:27:06.989Z</time></trkpt><trkpt lat="43.57931941080677" lon="-5.948896086834809"><ele>11.0</ele><time>2026-04-03T07:27:08.989Z</time></trkpt><trkpt lat="43.57929629559194" lon="-5.948990234737192"><ele>11.0</ele><time>2026-04-03T07:27:10.989Z</time></trkpt><trkpt lat="43.57925772667736" lon="-5.949088331638669"><ele>11.0</ele><time>2026-04-03T07:27:13.989Z</time></trkpt><trkpt lat="43.57921286853559" lon="-5.949172793109631"><ele>11.0</ele><time>2026-04-03T07:27:16.989Z</time></trkpt><trkpt lat="43.57920493021251" lon="-5.949277182926137"><ele>11.0</ele><time>2026-04-03T07:27:20.989Z</time></trkpt><trkpt lat="43.57916746124711" lon="-5.949360514760315"><ele>11.0</ele><time>2026-04-03T07:27:22.989Z</time></trkpt><trkpt lat="43.57909162255683" lon="-5.94942929214777"><ele>11.0</ele><time>2026-04-03T07:27:25.989Z</time></trkpt><trkpt lat="43.579044254342904" lon="-5.949490369624476"><ele>11.0</ele><time>2026-04-03T07:27:28.989Z</time></trkpt><trkpt lat="43.57897376967064" lon="-5.949551044032951"><ele>11.0</ele><time>2026-04-03T07:27:31.989Z</time></trkpt><trkpt lat="43.578942909202276" lon="-5.949672462885363"><ele>11.0</ele><time>2026-04-03T07:27:34.989Z</time></trkpt><trkpt lat="43.57892492397659" lon="-5.949762509103861"><ele>11.0</ele><time>2026-04-03T07:27:36.989Z</time></trkpt><trkpt lat="43.578897440100825" lon="-5.949851453446086"><ele>11.0</ele><time>2026-04-03T07:27:38.989Z</time></trkpt><trkpt lat="43.57886241494006" lon="-5.949939685313822"><ele>11.0</ele><time>2026-04-03T07:27:40.989Z</time></trkpt><trkpt lat="43.578874878457576" lon="-5.950052184659357"><ele>11.0</ele><time>2026-04-03T07:27:42.989Z</time></trkpt><trkpt lat="43.578893516416734" lon="-5.950179850815248"><ele>11.0</ele><time>2026-04-03T07:27:45.988Z</time></trkpt><trkpt lat="43.57887109008188" lon="-5.9502669219194475"><ele>11.0</ele><time>2026-04-03T07:27:47.988Z</time></trkpt><trkpt lat="43.57883619227207" lon="-5.9503955477823895"><ele>11.0</ele><time>2026-04-03T07:27:50.988Z</time></trkpt><trkpt lat="43.57880178922909" lon="-5.950484633904235"><ele>11.0</ele><time>2026-04-03T07:27:57.988Z</time></trkpt><trkpt lat="43.57872565682116" lon="-5.950560949438902"><ele>11.0</ele><time>2026-04-03T07:28:11.988Z</time></trkpt><trkpt lat="43.57867630217244" lon="-5.950621802564379"><ele>11.0</ele><time>2026-04-03T07:28:19.988Z</time></trkpt><trkpt lat="43.57865900355353" lon="-5.95070882698156"><ele>11.0</ele><time>2026-04-03T07:28:22.988Z</time></trkpt><trkpt lat="43.578639827715165" lon="-5.950796056345608"><ele>11.0</ele><time>2026-04-03T07:28:24.988Z</time></trkpt><trkpt lat="43.578617730849544" lon="-5.950895725913692"><ele>11.0</ele><time>2026-04-03T07:28:26.988Z</time></trkpt><trkpt lat="43.57858411079778" lon="-5.951008420772093"><ele>11.4</ele><time>2026-04-03T07:28:28.988Z</time></trkpt><trkpt lat="43.57855103967771" lon="-5.951127553233991"><ele>11.8</ele><time>2026-04-03T07:28:30.988Z</time></trkpt><trkpt lat="43.57850930226854" lon="-5.9512359609184"><ele>12.200000000000001</ele><time>2026-04-03T07:28:32.988Z</time></trkpt><trkpt lat="43.578466700899604" lon="-5.951346775835987"><ele>12.600000000000001</ele><time>2026-04-03T07:28:34.988Z</time></trkpt><trkpt lat="43.57842437027559" lon="-5.951467444723809"><ele>13.0</ele><time>2026-04-03T07:28:36.988Z</time></trkpt><trkpt lat="43.57838730514998" lon="-5.95159002231786"><ele>12.999999999999998</ele><time>2026-04-03T07:28:38.988Z</time></trkpt><trkpt lat="43.57834886756201" lon="-5.951694086788677"><ele>13.0</ele><time>2026-04-03T07:28:40.988Z</time></trkpt><trkpt lat="43.578318387626524" lon="-5.9517837042242165"><ele>13.0</ele><time>2026-04-03T07:28:42.988Z</time></trkpt><trkpt lat="43.57828195911827" lon="-5.951898219505301"><ele>13.0</ele><time>2026-04-03T07:28:44.988Z</time></trkpt><trkpt lat="43.578250411275086" lon="-5.952012597235188"><ele>12.999999999999998</ele><time>2026-04-03T07:28:46.988Z</time></trkpt><trkpt lat="43.57822726519527" lon="-5.952100242111593"><ele>13.0</ele><time>2026-04-03T07:28:47.988Z</time></trkpt><trkpt lat="43.57817407852769" lon="-5.952233562471316"><ele>13.4</ele><time>2026-04-03T07:28:49.988Z</time></trkpt><trkpt lat="43.57813104201805" lon="-5.952370184441625"><ele>13.8</ele><time>2026-04-03T07:28:51.988Z</time></trkpt><trkpt lat="43.57809354339364" lon="-5.952488762624028"><ele>14.2</ele><time>2026-04-03T07:28:53.988Z</time></trkpt><trkpt lat="43.5780618504238" lon="-5.952619901835499"><ele>14.6</ele><time>2026-04-03T07:28:55.988Z</time></trkpt><trkpt lat="43.57802481788554" lon="-5.952749001679134"><ele>15.0</ele><time>2026-04-03T07:28:57.988Z</time></trkpt><trkpt lat="43.577988722082715" lon="-5.95287914999798"><ele>15.0</ele><time>2026-04-03T07:28:59.988Z</time></trkpt><trkpt lat="43.577955609965244" lon="-5.953003693815656"><ele>15.0</ele><time>2026-04-03T07:29:01.988Z</time></trkpt><trkpt lat="43.57791832861786" lon="-5.953129365009538"><ele>15.0</ele><time>2026-04-03T07:29:03.987Z</time></trkpt><trkpt lat="43.577883852787615" lon="-5.953254906794273"><ele>15.0</ele><time>2026-04-03T07:29:05.987Z</time></trkpt><trkpt lat="43.57784714462366" lon="-5.953388670282103"><ele>15.0</ele><time>2026-04-03T07:29:07.987Z</time></trkpt><trkpt lat="43.577818834225845" lon="-5.95352611765366"><ele>14.4</ele><time>2026-04-03T07:29:09.987Z</time></trkpt><trkpt lat="43.57778898770679" lon="-5.953668583400558"><ele>13.8</ele><time>2026-04-03T07:29:11.987Z</time></trkpt><trkpt lat="43.57775492842947" lon="-5.953778417621465"><ele>13.2</ele><time>2026-04-03T07:29:13.987Z</time></trkpt><trkpt lat="43.577720105918836" lon="-5.953900714612196"><ele>12.6</ele><time>2026-04-03T07:29:15.987Z</time></trkpt><trkpt lat="43.57768749039424" lon="-5.954020551201347"><ele>12.0</ele><time>2026-04-03T07:29:17.987Z</time></trkpt><trkpt lat="43.57766017303037" lon="-5.95414552884469"><ele>11.666666666666666</ele><time>2026-04-03T07:29:19.987Z</time></trkpt><trkpt lat="43.57762797893913" lon="-5.9542819602126995"><ele>11.333333333333334</ele><time>2026-04-03T07:29:21.987Z</time></trkpt><trkpt lat="43.577588562631924" lon="-5.954393544307573"><ele>11.0</ele><time>2026-04-03T07:29:23.987Z</time></trkpt><trkpt lat="43.5775430993005" lon="-5.954503205499569"><ele>10.666666666666668</ele><time>2026-04-03T07:29:25.987Z</time></trkpt><trkpt lat="43.577517355890905" lon="-5.954604298885191"><ele>10.333333333333334</ele><time>2026-04-03T07:29:27.987Z</time></trkpt><trkpt lat="43.577491625027925" lon="-5.954711490189825"><ele>10.0</ele><time>2026-04-03T07:29:29.987Z</time></trkpt><trkpt lat="43.57746054552731" lon="-5.954817103463512"><ele>10.0</ele><time>2026-04-03T07:29:31.987Z</time></trkpt><trkpt lat="43.577431974776495" lon="-5.954915192046185"><ele>10.0</ele><time>2026-04-03T07:29:33.987Z</time></trkpt><trkpt lat="43.57741684686141" lon="-5.9550204041986365"><ele>10.0</ele><time>2026-04-03T07:29:35.987Z</time></trkpt><trkpt lat="43.57740112176723" lon="-5.955124480867926"><ele>10.0</ele><time>2026-04-03T07:29:37.987Z</time></trkpt><trkpt lat="43.57736973638104" lon="-5.955241328739295"><ele>10.0</ele><time>2026-04-03T07:29:39.987Z</time></trkpt><trkpt lat="43.57733910242609" lon="-5.955362800352048"><ele>10.0</ele><time>2026-04-03T07:29:41.987Z</time></trkpt><trkpt lat="43.577315495374755" lon="-5.955487081353528"><ele>10.2</ele><time>2026-04-03T07:29:43.987Z</time></trkpt><trkpt lat="43.57728331756493" lon="-5.955623283283217"><ele>10.4</ele><time>2026-04-03T07:29:45.987Z</time></trkpt><trkpt lat="43.577268275562936" lon="-5.955725033351579"><ele>10.600000000000001</ele><time>2026-04-03T07:29:47.987Z</time></trkpt><trkpt lat="43.57725819538029" lon="-5.955860983655319"><ele>10.8</ele><time>2026-04-03T07:29:50.987Z</time></trkpt><trkpt lat="43.57723253293289" lon="-5.956014328993241"><ele>11.0</ele><time>2026-04-03T07:29:52.987Z</time></trkpt><trkpt lat="43.577211736189746" lon="-5.956131212561725"><ele>11.0</ele><time>2026-04-03T07:29:54.987Z</time></trkpt><trkpt lat="43.57718228981211" lon="-5.95625614417087"><ele>11.0</ele><time>2026-04-03T07:29:56.987Z</time></trkpt><trkpt lat="43.57716221186922" lon="-5.956356081863648"><ele>11.0</ele><time>2026-04-03T07:29:58.987Z</time></trkpt><trkpt lat="43.577099222423826" lon="-5.956360247537378"><ele>11.0</ele><time>2026-04-03T07:30:11.987Z</time></trkpt><trkpt lat="43.5771144468337" lon="-5.956256886132474"><ele>11.0</ele><time>2026-04-03T07:30:52.986Z</time></trkpt><trkpt lat="43.57712428921452" lon="-5.956140604236602"><ele>11.0</ele><time>2026-04-03T07:30:55.986Z</time></trkpt><trkpt lat="43.577142502262156" lon="-5.956044080028347"><ele>11.0</ele><time>2026-04-03T07:30:58.986Z</time></trkpt><trkpt lat="43.57716357419549" lon="-5.955914316173461"><ele>11.0</ele><time>2026-04-03T07:31:01.986Z</time></trkpt><trkpt lat="43.577185512190944" lon="-5.955818535270128"><ele>11.0</ele><time>2026-04-03T07:31:03.986Z</time></trkpt><trkpt lat="43.577189855425765" lon="-5.9557223615945665"><ele>11.0</ele><time>2026-04-03T07:31:05.986Z</time></trkpt><trkpt lat="43.57721255192925" lon="-5.955602094534918"><ele>11.0</ele><time>2026-04-03T07:31:07.986Z</time></trkpt><trkpt lat="43.57721735429984" lon="-5.95548824317666"><ele>11.0</ele><time>2026-04-03T07:31:09.986Z</time></trkpt><trkpt lat="43.57723544802203" lon="-5.955365438996657"><ele>11.166666666666666</ele><time>2026-04-03T07:31:11.986Z</time></trkpt><trkpt lat="43.577265806264585" lon="-5.955262041134702"><ele>11.333333333333332</ele><time>2026-04-03T07:31:13.986Z</time></trkpt><trkpt lat="43.57726451230394" lon="-5.9551652003662"><ele>11.5</ele><time>2026-04-03T07:31:16.986Z</time></trkpt><trkpt lat="43.57724504033632" lon="-5.9550668794286645"><ele>11.666666666666666</ele><time>2026-04-03T07:31:18.986Z</time></trkpt><trkpt lat="43.57716992036445" lon="-5.955002556474945"><ele>11.833333333333334</ele><time>2026-04-03T07:31:21.986Z</time></trkpt><trkpt lat="43.57710297345258" lon="-5.954966984842761"><ele>12.0</ele><time>2026-04-03T07:31:23.986Z</time></trkpt><trkpt lat="43.57702259102088" lon="-5.954910754330474"><ele>11.8</ele><time>2026-04-03T07:31:25.986Z</time></trkpt><trkpt lat="43.57692984873528" lon="-5.9548701232745"><ele>11.6</ele><time>2026-04-03T07:31:27.986Z</time></trkpt><trkpt lat="43.57683748473279" lon="-5.954838094109364"><ele>11.4</ele><time>2026-04-03T07:31:29.986Z</time></trkpt><trkpt lat="43.57674164206427" lon="-5.954799340962936"><ele>11.200000000000001</ele><time>2026-04-03T07:31:31.986Z</time></trkpt><trkpt lat="43.576642914225495" lon="-5.954760604018558"><ele>11.0</ele><time>2026-04-03T07:31:33.986Z</time></trkpt><trkpt lat="43.5765544914593" lon="-5.954720155712823"><ele>11.0</ele><time>2026-04-03T07:31:35.986Z</time></trkpt><trkpt lat="43.57645219230557" lon="-5.954678138711691"><ele>11.0</ele><time>2026-04-03T07:31:37.985Z</time></trkpt><trkpt lat="43.57635625990083" lon="-5.954645948049568"><ele>11.0</ele><time>2026-04-03T07:31:39.985Z</time></trkpt><trkpt lat="43.57625847963985" lon="-5.9546247204658345"><ele>11.0</ele><time>2026-04-03T07:31:41.985Z</time></trkpt><trkpt lat="43.57615905592089" lon="-5.954560509398348"><ele>11.0</ele><time>2026-04-03T07:31:43.985Z</time></trkpt><trkpt lat="43.57607605089212" lon="-5.954539427306907"><ele>10.8</ele><time>2026-04-03T07:31:45.985Z</time></trkpt><trkpt lat="43.57597593394131" lon="-5.954504870948949"><ele>10.600000000000001</ele><time>2026-04-03T07:31:47.985Z</time></trkpt><trkpt lat="43.575897112246615" lon="-5.954456420636031"><ele>10.4</ele><time>2026-04-03T07:31:49.985Z</time></trkpt><trkpt lat="43.57583991885774" lon="-5.954345970719716"><ele>10.2</ele><time>2026-04-03T07:31:51.985Z</time></trkpt><trkpt lat="43.575823029842184" lon="-5.954218036840816"><ele>10.0</ele><time>2026-04-03T07:31:53.985Z</time></trkpt><trkpt lat="43.575834855585505" lon="-5.954098814563518"><ele>10.0</ele><time>2026-04-03T07:31:55.985Z</time></trkpt><trkpt lat="43.57584420495101" lon="-5.9539989745830075"><ele>10.0</ele><time>2026-04-03T07:31:57.985Z</time></trkpt><trkpt lat="43.57586014020451" lon="-5.953865055898546"><ele>10.0</ele><time>2026-04-03T07:31:59.985Z</time></trkpt><trkpt lat="43.575876949774724" lon="-5.953739068474144"><ele>10.0</ele><time>2026-04-03T07:32:01.985Z</time></trkpt><trkpt lat="43.575910725556454" lon="-5.95359619838269"><ele>10.0</ele><time>2026-04-03T07:32:03.985Z</time></trkpt><trkpt lat="43.575934785079276" lon="-5.953465067751326"><ele>10.333333333333334</ele><time>2026-04-03T07:32:05.985Z</time></trkpt><trkpt lat="43.57595142918461" lon="-5.9533325803150206"><ele>10.666666666666668</ele><time>2026-04-03T07:32:07.985Z</time></trkpt><trkpt lat="43.575960586013146" lon="-5.9532262524560835"><ele>11.0</ele><time>2026-04-03T07:32:09.985Z</time></trkpt><trkpt lat="43.57598496437679" lon="-5.953082986169195"><ele>11.333333333333334</ele><time>2026-04-03T07:32:11.985Z</time></trkpt><trkpt lat="43.576013182099345" lon="-5.9529773931663525"><ele>11.666666666666666</ele><time>2026-04-03T07:32:13.985Z</time></trkpt><trkpt lat="43.57606214217621" lon="-5.952908057305618"><ele>12.0</ele><time>2026-04-03T07:32:16.985Z</time></trkpt><trkpt lat="43.57603270944954" lon="-5.953016418758543"><ele>12.0</ele><time>2026-04-03T07:33:04.003Z</time></trkpt><trkpt lat="43.576009274171355" lon="-5.953136598019825"><ele>12.0</ele><time>2026-04-03T07:33:07.003Z</time></trkpt><trkpt lat="43.575995408468884" lon="-5.953264815635461"><ele>12.0</ele><time>2026-04-03T07:33:10.003Z</time></trkpt><trkpt lat="43.5759767681183" lon="-5.953365990147339"><ele>12.0</ele><time>2026-04-03T07:33:12.003Z</time></trkpt><trkpt lat="43.57595186193905" lon="-5.953465488198623"><ele>12.0</ele><time>2026-04-03T07:33:14.003Z</time></trkpt><trkpt lat="43.57593857380427" lon="-5.953559652974286"><ele>12.0</ele><time>2026-04-03T07:33:16.003Z</time></trkpt><trkpt lat="43.575926564595655" lon="-5.953647569767059"><ele>11.666666666666666</ele><time>2026-04-03T07:33:18.003Z</time></trkpt><trkpt lat="43.57591516600453" lon="-5.953737550914543"><ele>11.333333333333334</ele><time>2026-04-03T07:33:20.003Z</time></trkpt><trkpt lat="43.57589310044836" lon="-5.953875725654892"><ele>11.0</ele><time>2026-04-03T07:33:23.003Z</time></trkpt><trkpt lat="43.57587884786914" lon="-5.953967223478559"><ele>10.666666666666668</ele><time>2026-04-03T07:33:25.003Z</time></trkpt><trkpt lat="43.575870637023336" lon="-5.954069542861275"><ele>10.333333333333334</ele><time>2026-04-03T07:33:27.003Z</time></trkpt><trkpt lat="43.57585627527356" lon="-5.954171146771494"><ele>10.0</ele><time>2026-04-03T07:33:29.003Z</time></trkpt><trkpt lat="43.57589581719534" lon="-5.954258808718794"><ele>9.857142857142858</ele><time>2026-04-03T07:33:31.003Z</time></trkpt><trkpt lat="43.57596938352565" lon="-5.954290981380118"><ele>9.714285714285715</ele><time>2026-04-03T07:33:33.003Z</time></trkpt><trkpt lat="43.57603563656167" lon="-5.954318495591639"><ele>9.571428571428573</ele><time>2026-04-03T07:33:35.003Z</time></trkpt><trkpt lat="43.5760989945524" lon="-5.954344505003435"><ele>9.428571428571429</ele><time>2026-04-03T07:33:37.003Z</time></trkpt><trkpt lat="43.576167069163766" lon="-5.954381441297114"><ele>9.285714285714286</ele><time>2026-04-03T07:33:39.003Z</time></trkpt><trkpt lat="43.57623886071532" lon="-5.954393045039854"><ele>9.142857142857144</ele><time>2026-04-03T07:33:41.003Z</time></trkpt><trkpt lat="43.57630725723159" lon="-5.954409838266088"><ele>9.0</ele><time>2026-04-03T07:33:43.003Z</time></trkpt><trkpt lat="43.576376023198506" lon="-5.954418217561395"><ele>9.333333333333334</ele><time>2026-04-03T07:33:45.005Z</time></trkpt><trkpt lat="43.57645062969756" lon="-5.954466152207141"><ele>9.666666666666666</ele><time>2026-04-03T07:33:47.004Z</time></trkpt><trkpt lat="43.57652541036832" lon="-5.954497651616615"><ele>10.0</ele><time>2026-04-03T07:33:49.004Z</time></trkpt><trkpt lat="43.57660265990808" lon="-5.9545210674804405"><ele>10.333333333333332</ele><time>2026-04-03T07:33:51.004Z</time></trkpt><trkpt lat="43.57667897818534" lon="-5.954554224432493"><ele>10.666666666666666</ele><time>2026-04-03T07:33:53.004Z</time></trkpt><trkpt lat="43.57675242091466" lon="-5.9545911576656305"><ele>11.0</ele><time>2026-04-03T07:33:55.004Z</time></trkpt><trkpt lat="43.57682775597397" lon="-5.9546190063951245"><ele>11.0</ele><time>2026-04-03T07:33:57.004Z</time></trkpt><trkpt lat="43.576896190369844" lon="-5.954637248223669"><ele>11.0</ele><time>2026-04-03T07:33:59.004Z</time></trkpt><trkpt lat="43.57699714438793" lon="-5.954658075632588"><ele>11.0</ele><time>2026-04-03T07:34:02.004Z</time></trkpt><trkpt lat="43.57707686540013" lon="-5.954698187390342"><ele>11.0</ele><time>2026-04-03T07:34:04.004Z</time></trkpt><trkpt lat="43.577152602325384" lon="-5.954731466549203"><ele>11.0</ele><time>2026-04-03T07:34:06.004Z</time></trkpt><trkpt lat="43.57721836051105" lon="-5.9547487393411"><ele>11.0</ele><time>2026-04-03T07:34:08.004Z</time></trkpt><trkpt lat="43.577280468595305" lon="-5.954769292787233"><ele>10.833333333333332</ele><time>2026-04-03T07:34:10.004Z</time></trkpt><trkpt lat="43.57736438657477" lon="-5.954789242026528"><ele>10.666666666666666</ele><time>2026-04-03T07:34:14.004Z</time></trkpt><trkpt lat="43.57741895358614" lon="-5.9548902326498006"><ele>10.5</ele><time>2026-04-03T07:34:17.004Z</time></trkpt><trkpt lat="43.577396926622356" lon="-5.954997836555665"><ele>10.333333333333334</ele><time>2026-04-03T07:34:19.004Z</time></trkpt><trkpt lat="43.57735840900195" lon="-5.95510381052434"><ele>10.166666666666668</ele><time>2026-04-03T07:34:21.004Z</time></trkpt><trkpt lat="43.577338817426366" lon="-5.9551990022965375"><ele>10.0</ele><time>2026-04-03T07:34:23.004Z</time></trkpt><trkpt lat="43.57731594775497" lon="-5.955310725060407"><ele>10.166666666666668</ele><time>2026-04-03T07:34:25.004Z</time></trkpt><trkpt lat="43.57730008056041" lon="-5.955417260126966"><ele>10.333333333333334</ele><time>2026-04-03T07:34:27.004Z</time></trkpt><trkpt lat="43.577278478705104" lon="-5.9555017383247915"><ele>10.5</ele><time>2026-04-03T07:34:29.004Z</time></trkpt><trkpt lat="43.5772535663632" lon="-5.955619199056714"><ele>10.666666666666666</ele><time>2026-04-03T07:34:32.004Z</time></trkpt><trkpt lat="43.577234044143175" lon="-5.9557184914850705"><ele>10.833333333333332</ele><time>2026-04-03T07:34:34.004Z</time></trkpt><trkpt lat="43.57722211640663" lon="-5.955816767520409"><ele>11.0</ele><time>2026-04-03T07:34:36.004Z</time></trkpt><trkpt lat="43.577197911490956" lon="-5.95594394215576"><ele>11.0</ele><time>2026-04-03T07:34:39.004Z</time></trkpt><trkpt lat="43.57718043227623" lon="-5.956059659810831"><ele>11.0</ele><time>2026-04-03T07:34:41.004Z</time></trkpt><trkpt lat="43.57715770742865" lon="-5.956180429862308"><ele>11.0</ele><time>2026-04-03T07:34:44.004Z</time></trkpt><trkpt lat="43.577134053739904" lon="-5.956274130673396"><ele>11.0</ele><time>2026-04-03T07:34:46.004Z</time></trkpt><trkpt lat="43.57708284034832" lon="-5.956363493463223"><ele>11.0</ele><time>2026-04-03T07:34:49.004Z</time></trkpt><trkpt lat="43.57710385326001" lon="-5.956447240203105"><ele>11.0</ele><time>2026-04-03T07:35:28.003Z</time></trkpt><trkpt lat="43.57710958399547" lon="-5.9565517110678545"><ele>11.0</ele><time>2026-04-03T07:35:32.003Z</time></trkpt><trkpt lat="43.5770944533411" lon="-5.956647730107434"><ele>11.0</ele><time>2026-04-03T07:35:36.003Z</time></trkpt><trkpt lat="43.57707945491646" lon="-5.956770546488613"><ele>11.0</ele><time>2026-04-03T07:35:39.003Z</time></trkpt><trkpt lat="43.57707223864327" lon="-5.956883250370496"><ele>11.0</ele><time>2026-04-03T07:35:41.003Z</time></trkpt><trkpt lat="43.5770546673499" lon="-5.956985258276826"><ele>11.0</ele><time>2026-04-03T07:35:43.003Z</time></trkpt><trkpt lat="43.5770352508137" lon="-5.95707918943774"><ele>11.0</ele><time>2026-04-03T07:35:45.003Z</time></trkpt><trkpt lat="43.57701738157169" lon="-5.957187020121781"><ele>11.0</ele><time>2026-04-03T07:35:47.003Z</time></trkpt><trkpt lat="43.57700885293929" lon="-5.9573072789304495"><ele>11.0</ele><time>2026-04-03T07:35:49.005Z</time></trkpt><trkpt lat="43.576970233228174" lon="-5.957383692180085"><ele>11.0</ele><time>2026-04-03T07:35:51.004Z</time></trkpt><trkpt lat="43.57695809471974" lon="-5.957485612894282"><ele>11.0</ele><time>2026-04-03T07:35:53.004Z</time></trkpt><trkpt lat="43.57694882415541" lon="-5.957617696961402"><ele>11.0</ele><time>2026-04-03T07:35:55.005Z</time></trkpt><trkpt lat="43.576926091659786" lon="-5.957737393346578"><ele>11.0</ele><time>2026-04-03T07:35:57.005Z</time></trkpt><trkpt lat="43.57690407120609" lon="-5.957862866698822"><ele>11.0</ele><time>2026-04-03T07:35:59.005Z</time></trkpt><trkpt lat="43.57688214564975" lon="-5.957955311498151"><ele>11.0</ele><time>2026-04-03T07:36:01.004Z</time></trkpt><trkpt lat="43.57686815852628" lon="-5.958074574672375"><ele>11.0</ele><time>2026-04-03T07:36:03.004Z</time></trkpt><trkpt lat="43.576851535993924" lon="-5.958208476715775"><ele>11.0</ele><time>2026-04-03T07:36:05.004Z</time></trkpt><trkpt lat="43.57682208087165" lon="-5.958321320269053"><ele>11.0</ele><time>2026-04-03T07:36:07.004Z</time></trkpt><trkpt lat="43.576805630509135" lon="-5.958439266178498"><ele>11.0</ele><time>2026-04-03T07:36:09.004Z</time></trkpt><trkpt lat="43.57677164354421" lon="-5.958560389100717"><ele>10.600000000000001</ele><time>2026-04-03T07:36:11.004Z</time></trkpt><trkpt lat="43.57674627181758" lon="-5.958690045798383"><ele>10.200000000000001</ele><time>2026-04-03T07:36:13.004Z</time></trkpt><trkpt lat="43.57673055607779" lon="-5.958815286693467"><ele>9.8</ele><time>2026-04-03T07:36:15.004Z</time></trkpt><trkpt lat="43.57670294007233" lon="-5.958950568268716"><ele>9.4</ele><time>2026-04-03T07:36:17.004Z</time></trkpt><trkpt lat="43.576681766433346" lon="-5.959077959280772"><ele>9.0</ele><time>2026-04-03T07:36:19.004Z</time></trkpt><trkpt lat="43.576655566233335" lon="-5.959198582517091"><ele>8.8</ele><time>2026-04-03T07:36:21.004Z</time></trkpt><trkpt lat="43.5766222009182" lon="-5.959359646723347"><ele>8.600000000000001</ele><time>2026-04-03T07:36:24.004Z</time></trkpt><trkpt lat="43.57659380184601" lon="-5.959501558665412"><ele>8.4</ele><time>2026-04-03T07:36:26.004Z</time></trkpt><trkpt lat="43.57656825256463" lon="-5.959650405576222"><ele>8.200000000000001</ele><time>2026-04-03T07:36:28.004Z</time></trkpt><trkpt lat="43.57654032436527" lon="-5.959772032872963"><ele>8.0</ele><time>2026-04-03T07:36:30.004Z</time></trkpt><trkpt lat="43.576519165843955" lon="-5.959890116217994"><ele>8.0</ele><time>2026-04-03T07:36:32.004Z</time></trkpt><trkpt lat="43.576498001269236" lon="-5.960022183470343"><ele>8.0</ele><time>2026-04-03T07:36:34.004Z</time></trkpt><trkpt lat="43.57647355474317" lon="-5.960160409339902"><ele>8.0</ele><time>2026-04-03T07:36:36.004Z</time></trkpt><trkpt lat="43.576456256843294" lon="-5.9603024496724775"><ele>8.0</ele><time>2026-04-03T07:36:38.004Z</time></trkpt><trkpt lat="43.576441978307855" lon="-5.960437626879275"><ele>8.0</ele><time>2026-04-03T07:36:40.004Z</time></trkpt><trkpt lat="43.576427326270306" lon="-5.9605701370524455"><ele>8.0</ele><time>2026-04-03T07:36:42.004Z</time></trkpt><trkpt lat="43.57641129861102" lon="-5.9607030535294605"><ele>8.0</ele><time>2026-04-03T07:36:44.004Z</time></trkpt><trkpt lat="43.576388109451436" lon="-5.960816178580757"><ele>8.0</ele><time>2026-04-03T07:36:46.004Z</time></trkpt><trkpt lat="43.576378904192964" lon="-5.9609485518257515"><ele>8.0</ele><time>2026-04-03T07:36:48.004Z</time></trkpt><trkpt lat="43.576356169215046" lon="-5.961085569371895"><ele>8.0</ele><time>2026-04-03T07:36:50.004Z</time></trkpt><trkpt lat="43.57634196155261" lon="-5.961222841322674"><ele>7.999999999999999</ele><time>2026-04-03T07:36:52.004Z</time></trkpt><trkpt lat="43.57632125596945" lon="-5.961326405439477"><ele>8.0</ele><time>2026-04-03T07:36:54.003Z</time></trkpt><trkpt lat="43.57631804110712" lon="-5.9614443450338115"><ele>8.0</ele><time>2026-04-03T07:36:56.003Z</time></trkpt><trkpt lat="43.57629930724233" lon="-5.9615753042248265"><ele>8.0</ele><time>2026-04-03T07:36:58.003Z</time></trkpt><trkpt lat="43.576288116841596" lon="-5.961697162698254"><ele>7.999999999999999</ele><time>2026-04-03T07:37:00.003Z</time></trkpt><trkpt lat="43.57628245729608" lon="-5.961827302449842"><ele>8.0</ele><time>2026-04-03T07:37:02.003Z</time></trkpt><trkpt lat="43.57627640185655" lon="-5.961956725774944"><ele>8.0</ele><time>2026-04-03T07:37:04.003Z</time></trkpt><trkpt lat="43.5762726028155" lon="-5.962077327163391"><ele>8.0</ele><time>2026-04-03T07:37:06.003Z</time></trkpt><trkpt lat="43.5762677533412" lon="-5.962217264983131"><ele>8.0</ele><time>2026-04-03T07:37:08.003Z</time></trkpt><trkpt lat="43.57627381571037" lon="-5.962344803743936"><ele>8.0</ele><time>2026-04-03T07:37:10.003Z</time></trkpt><trkpt lat="43.57626312957034" lon="-5.962449315453617"><ele>8.0</ele><time>2026-04-03T07:37:12.003Z</time></trkpt><trkpt lat="43.57627755305865" lon="-5.96259045370611"><ele>7.800000000000001</ele><time>2026-04-03T07:37:14.003Z</time></trkpt><trkpt lat="43.57627669034891" lon="-5.962768158586372"><ele>7.6000000000000005</ele><time>2026-04-03T07:37:16.003Z</time></trkpt><trkpt lat="43.576274302570496" lon="-5.96285688768884"><ele>7.3999999999999995</ele><time>2026-04-03T07:37:17.003Z</time></trkpt><trkpt lat="43.57626262618898" lon="-5.963004906130667"><ele>7.199999999999999</ele><time>2026-04-03T07:37:19.003Z</time></trkpt><trkpt lat="43.57625008343895" lon="-5.96316073081601"><ele>7.0</ele><time>2026-04-03T07:37:21.003Z</time></trkpt><trkpt lat="43.57625914355189" lon="-5.963305035036301"><ele>6.666666666666667</ele><time>2026-04-03T07:37:23.003Z</time></trkpt><trkpt lat="43.5762635964507" lon="-5.96342850351367"><ele>6.333333333333334</ele><time>2026-04-03T07:37:25.003Z</time></trkpt><trkpt lat="43.5762900672893" lon="-5.9635318155530435"><ele>6.0</ele><time>2026-04-03T07:37:27.003Z</time></trkpt><trkpt lat="43.5763041430419" lon="-5.9636339909701395"><ele>5.666666666666667</ele><time>2026-04-03T07:37:29.003Z</time></trkpt><trkpt lat="43.57631122010346" lon="-5.963755695137439"><ele>5.333333333333334</ele><time>2026-04-03T07:37:31.003Z</time></trkpt><trkpt lat="43.5763324843197" lon="-5.963879533883051"><ele>5.0</ele><time>2026-04-03T07:37:33.003Z</time></trkpt><trkpt lat="43.57634792360746" lon="-5.963984320828174"><ele>5.0</ele><time>2026-04-03T07:37:35.003Z</time></trkpt><trkpt lat="43.57635588215436" lon="-5.9640906373529985"><ele>5.0</ele><time>2026-04-03T07:37:37.003Z</time></trkpt><trkpt lat="43.57635861832979" lon="-5.964200249343468"><ele>5.0</ele><time>2026-04-03T07:37:39.003Z</time></trkpt><trkpt lat="43.57637176563671" lon="-5.964304158219695"><ele>5.0</ele><time>2026-04-03T07:37:41.003Z</time></trkpt><trkpt lat="43.5763864932072" lon="-5.964427829496356"><ele>5.0</ele><time>2026-04-03T07:37:43.003Z</time></trkpt><trkpt lat="43.576403067055104" lon="-5.964555523301957"><ele>5.0</ele><time>2026-04-03T07:37:45.003Z</time></trkpt><trkpt lat="43.57641610265794" lon="-5.964672545649946"><ele>5.166666666666667</ele><time>2026-04-03T07:37:47.003Z</time></trkpt><trkpt lat="43.576429685803895" lon="-5.96479894846017"><ele>5.333333333333334</ele><time>2026-04-03T07:37:49.003Z</time></trkpt><trkpt lat="43.576433601746615" lon="-5.964893657304284"><ele>5.5</ele><time>2026-04-03T07:37:51.003Z</time></trkpt><trkpt lat="43.576464705532224" lon="-5.9650097714919275"><ele>5.666666666666667</ele><time>2026-04-03T07:37:53.003Z</time></trkpt><trkpt lat="43.57648684038158" lon="-5.965132998408427"><ele>5.833333333333333</ele><time>2026-04-03T07:37:55.005Z</time></trkpt><trkpt lat="43.57652875670764" lon="-5.965249806292028"><ele>6.0</ele><time>2026-04-03T07:37:57.004Z</time></trkpt><trkpt lat="43.57658324490115" lon="-5.965318922449565"><ele>7.166666666666666</ele><time>2026-04-03T07:37:59.004Z</time></trkpt><trkpt lat="43.57662997157992" lon="-5.965418384334665"><ele>8.333333333333332</ele><time>2026-04-03T07:38:01.005Z</time></trkpt><trkpt lat="43.57670521971925" lon="-5.965510398085238"><ele>9.5</ele><time>2026-04-03T07:38:03.005Z</time></trkpt><trkpt lat="43.57675704674685" lon="-5.965572753902495"><ele>10.666666666666666</ele><time>2026-04-03T07:38:05.005Z</time></trkpt><trkpt lat="43.57680358884862" lon="-5.965639944738544"><ele>11.833333333333332</ele><time>2026-04-03T07:38:07.005Z</time></trkpt><trkpt lat="43.57684978738479" lon="-5.965709667822674"><ele>13.0</ele><time>2026-04-03T07:38:09.005Z</time></trkpt><trkpt lat="43.57691642128494" lon="-5.965801467471276"><ele>14.0</ele><time>2026-04-03T07:38:11.005Z</time></trkpt><trkpt lat="43.5769896171226" lon="-5.965892403061797"><ele>15.0</ele><time>2026-04-03T07:38:13.005Z</time></trkpt><trkpt lat="43.57705702115045" lon="-5.965974706411052"><ele>16.0</ele><time>2026-04-03T07:38:15.005Z</time></trkpt><trkpt lat="43.577129725718656" lon="-5.96607060613695"><ele>17.0</ele><time>2026-04-03T07:38:17.005Z</time></trkpt><trkpt lat="43.57721359307808" lon="-5.966185048558503"><ele>18.0</ele><time>2026-04-03T07:38:19.005Z</time></trkpt><trkpt lat="43.5772801954161" lon="-5.966279813125211"><ele>18.0</ele><time>2026-04-03T07:38:21.005Z</time></trkpt><trkpt lat="43.57734879658493" lon="-5.966374276869092"><ele>18.0</ele><time>2026-04-03T07:38:23.005Z</time></trkpt><trkpt lat="43.577411050262704" lon="-5.966470548438655"><ele>18.0</ele><time>2026-04-03T07:38:25.005Z</time></trkpt><trkpt lat="43.577478139690484" lon="-5.966570962966638"><ele>18.0</ele><time>2026-04-03T07:38:27.005Z</time></trkpt><trkpt lat="43.577546467446005" lon="-5.966667348101095"><ele>18.0</ele><time>2026-04-03T07:38:29.005Z</time></trkpt><trkpt lat="43.57760742056448" lon="-5.966756134829566"><ele>15.6</ele><time>2026-04-03T07:38:31.005Z</time></trkpt><trkpt lat="43.577671683135364" lon="-5.9668546794085335"><ele>13.200000000000001</ele><time>2026-04-03T07:38:33.005Z</time></trkpt><trkpt lat="43.57773539837823" lon="-5.966952460587991"><ele>10.8</ele><time>2026-04-03T07:38:35.005Z</time></trkpt><trkpt lat="43.57780674369558" lon="-5.967052603727643"><ele>8.4</ele><time>2026-04-03T07:38:37.005Z</time></trkpt><trkpt lat="43.57787223070364" lon="-5.96713956813967"><ele>6.0</ele><time>2026-04-03T07:38:39.005Z</time></trkpt><trkpt lat="43.57794101425253" lon="-5.967225973289167"><ele>6.0</ele><time>2026-04-03T07:38:41.005Z</time></trkpt><trkpt lat="43.5780101801321" lon="-5.9673050394814275"><ele>6.0</ele><time>2026-04-03T07:38:43.005Z</time></trkpt><trkpt lat="43.57808608854253" lon="-5.967386709703141"><ele>6.0</ele><time>2026-04-03T07:38:45.005Z</time></trkpt><trkpt lat="43.57814999329928" lon="-5.967462886950545"><ele>6.0</ele><time>2026-04-03T07:38:47.005Z</time></trkpt><trkpt lat="43.57821486226004" lon="-5.9675518240955014"><ele>6.0</ele><time>2026-04-03T07:38:49.005Z</time></trkpt><trkpt lat="43.57828369998778" lon="-5.96764245997204"><ele>10.2</ele><time>2026-04-03T07:38:51.004Z</time></trkpt><trkpt lat="43.57834720311343" lon="-5.967724574349689"><ele>14.4</ele><time>2026-04-03T07:38:53.004Z</time></trkpt><trkpt lat="43.578415652951676" lon="-5.967820308598136"><ele>18.6</ele><time>2026-04-03T07:38:55.004Z</time></trkpt><trkpt lat="43.57848771578376" lon="-5.967896557937537"><ele>22.8</ele><time>2026-04-03T07:38:57.004Z</time></trkpt><trkpt lat="43.57854430068362" lon="-5.967966812182947"><ele>27.0</ele><time>2026-04-03T07:38:59.004Z</time></trkpt><trkpt lat="43.578616998943644" lon="-5.9680613953094825"><ele>24.6</ele><time>2026-04-03T07:39:01.004Z</time></trkpt><trkpt lat="43.57868772250584" lon="-5.968154221247375"><ele>22.200000000000003</ele><time>2026-04-03T07:39:03.004Z</time></trkpt><trkpt lat="43.578757146724435" lon="-5.968243551301051"><ele>19.8</ele><time>2026-04-03T07:39:05.004Z</time></trkpt><trkpt lat="43.57882487906764" lon="-5.968332506906"><ele>17.4</ele><time>2026-04-03T07:39:07.004Z</time></trkpt><trkpt lat="43.57889170213083" lon="-5.96841879140328"><ele>15.0</ele><time>2026-04-03T07:39:09.004Z</time></trkpt><trkpt lat="43.5789553808186" lon="-5.968503365040799"><ele>15.0</ele><time>2026-04-03T07:39:11.004Z</time></trkpt><trkpt lat="43.57902190374702" lon="-5.9685983325622365"><ele>15.0</ele><time>2026-04-03T07:39:13.004Z</time></trkpt><trkpt lat="43.57908258766006" lon="-5.968696956977636"><ele>15.0</ele><time>2026-04-03T07:39:15.004Z</time></trkpt><trkpt lat="43.57913653152831" lon="-5.968798914774692"><ele>15.0</ele><time>2026-04-03T07:39:17.004Z</time></trkpt><trkpt lat="43.579184992128354" lon="-5.9688972278395065"><ele>15.0</ele><time>2026-04-03T07:39:19.004Z</time></trkpt><trkpt lat="43.579235850702965" lon="-5.969000691306808"><ele>15.0</ele><time>2026-04-03T07:39:21.004Z</time></trkpt><trkpt lat="43.579278425645306" lon="-5.969106624601804"><ele>15.0</ele><time>2026-04-03T07:39:23.004Z</time></trkpt><trkpt lat="43.579315544242874" lon="-5.9691971406550275"><ele>15.0</ele><time>2026-04-03T07:39:25.004Z</time></trkpt><trkpt lat="43.579350275151334" lon="-5.969317767156574"><ele>15.0</ele><time>2026-04-03T07:39:28.004Z</time></trkpt><trkpt lat="43.57937229963175" lon="-5.96942313517405"><ele>15.0</ele><time>2026-04-03T07:39:30.004Z</time></trkpt><trkpt lat="43.57938516014285" lon="-5.969529150436839"><ele>15.0</ele><time>2026-04-03T07:39:32.004Z</time></trkpt><trkpt lat="43.57940236311406" lon="-5.969632508974339"><ele>14.0</ele><time>2026-04-03T07:39:34.004Z</time></trkpt><trkpt lat="43.579438298271306" lon="-5.969750779614749"><ele>13.0</ele><time>2026-04-03T07:39:37.004Z</time></trkpt><trkpt lat="43.57944575310468" lon="-5.969867212714449"><ele>12.0</ele><time>2026-04-03T07:39:40.004Z</time></trkpt><trkpt lat="43.5794937693927" lon="-5.969975324772668"><ele>11.0</ele><time>2026-04-03T07:39:43.004Z</time></trkpt><trkpt lat="43.57953116309289" lon="-5.970057825737721"><ele>10.0</ele><time>2026-04-03T07:39:45.004Z</time></trkpt><trkpt lat="43.57954320896326" lon="-5.97014974051383"><ele>9.0</ele><time>2026-04-03T07:39:47.004Z</time></trkpt><trkpt lat="43.57956225834172" lon="-5.970234729669264"><ele>9.0</ele><time>2026-04-03T07:39:51.004Z</time></trkpt><trkpt lat="43.579578018703266" lon="-5.97032798810387"><ele>9.0</ele><time>2026-04-03T07:39:55.004Z</time></trkpt><trkpt lat="43.57952298274727" lon="-5.972097267748315"><ele>9.5</ele><time>2026-04-03T07:40:24.006Z</time></trkpt><trkpt lat="43.57944693967907" lon="-5.971985225706312"><ele>10.0</ele><time>2026-04-03T07:40:25.006Z</time></trkpt><trkpt lat="43.57938176095768" lon="-5.972056038152919"><ele>10.5</ele><time>2026-04-03T07:40:28.006Z</time></trkpt><trkpt lat="43.57935191319241" lon="-5.972142526652033"><ele>11.0</ele><time>2026-04-03T07:40:30.005Z</time></trkpt><trkpt lat="43.57929425096619" lon="-5.972213618369012"><ele>11.5</ele><time>2026-04-03T07:40:32.006Z</time></trkpt><trkpt lat="43.579249342963195" lon="-5.972296158143195"><ele>12.0</ele><time>2026-04-03T07:40:34.005Z</time></trkpt><trkpt lat="43.579193236098895" lon="-5.972377076993337"><ele>12.0</ele><time>2026-04-03T07:40:36.006Z</time></trkpt><trkpt lat="43.579139801984184" lon="-5.9724717809402375"><ele>12.0</ele><time>2026-04-03T07:40:38.006Z</time></trkpt><trkpt lat="43.57909442281996" lon="-5.972551214085534"><ele>12.0</ele><time>2026-04-03T07:40:40.006Z</time></trkpt><trkpt lat="43.579039950281604" lon="-5.97263476285909"><ele>12.0</ele><time>2026-04-03T07:40:42.006Z</time></trkpt><trkpt lat="43.57899045665895" lon="-5.972696813081226"><ele>12.0</ele><time>2026-04-03T07:40:44.006Z</time></trkpt><trkpt lat="43.57894427333701" lon="-5.97278362048289"><ele>12.0</ele><time>2026-04-03T07:40:46.006Z</time></trkpt><trkpt lat="43.57889640945964" lon="-5.972848486755199"><ele>11.857142857142856</ele><time>2026-04-03T07:40:48.006Z</time></trkpt><trkpt lat="43.57886793874843" lon="-5.972940120512176"><ele>11.714285714285714</ele><time>2026-04-03T07:40:50.006Z</time></trkpt><trkpt lat="43.578836042728945" lon="-5.973023818977866"><ele>11.571428571428571</ele><time>2026-04-03T07:40:52.006Z</time></trkpt><trkpt lat="43.578790612169804" lon="-5.973106320447718"><ele>11.428571428571427</ele><time>2026-04-03T07:40:54.006Z</time></trkpt><trkpt lat="43.578748784394236" lon="-5.973197459259977"><ele>11.285714285714285</ele><time>2026-04-03T07:40:56.006Z</time></trkpt><trkpt lat="43.57872045816371" lon="-5.973287957887502"><ele>11.142857142857142</ele><time>2026-04-03T07:40:58.005Z</time></trkpt><trkpt lat="43.57869737015317" lon="-5.973382078563615"><ele>11.0</ele><time>2026-04-03T07:41:00.005Z</time></trkpt><trkpt lat="43.5786677790763" lon="-5.973475603364507"><ele>11.0</ele><time>2026-04-03T07:41:02.005Z</time></trkpt><trkpt lat="43.57862884561567" lon="-5.973552821602544"><ele>11.0</ele><time>2026-04-03T07:41:04.005Z</time></trkpt><trkpt lat="43.578575978913115" lon="-5.973662486018474"><ele>11.0</ele><time>2026-04-03T07:41:07.005Z</time></trkpt><trkpt lat="43.57852781617326" lon="-5.9737286101323335"><ele>11.0</ele><time>2026-04-03T07:41:09.005Z</time></trkpt><trkpt lat="43.578470344564096" lon="-5.9737717381302256"><ele>11.0</ele><time>2026-04-03T07:41:11.005Z</time></trkpt><trkpt lat="43.57838377144381" lon="-5.973825036362127"><ele>11.0</ele><time>2026-04-03T07:41:14.005Z</time></trkpt><trkpt lat="43.57830232301232" lon="-5.973828476566989"><ele>11.0</ele><time>2026-04-03T07:41:16.005Z</time></trkpt><trkpt lat="43.57823275262549" lon="-5.973842194418494"><ele>11.0</ele><time>2026-04-03T07:41:18.005Z</time></trkpt><trkpt lat="43.57815221690067" lon="-5.973851548924327"><ele>11.0</ele><time>2026-04-03T07:41:20.005Z</time></trkpt><trkpt lat="43.57806326865425" lon="-5.973829563025276"><ele>11.0</ele><time>2026-04-03T07:41:22.005Z</time></trkpt><trkpt lat="43.57797549669825" lon="-5.97379383479116"><ele>11.0</ele><time>2026-04-03T07:41:24.005Z</time></trkpt><trkpt lat="43.57788499455281" lon="-5.973778020548061"><ele>11.0</ele><time>2026-04-03T07:41:26.005Z</time></trkpt><trkpt lat="43.57779579457918" lon="-5.973810391281658"><ele>11.166666666666666</ele><time>2026-04-03T07:41:28.005Z</time></trkpt><trkpt lat="43.577708362847815" lon="-5.973832861591046"><ele>11.333333333333332</ele><time>2026-04-03T07:41:30.005Z</time></trkpt><trkpt lat="43.57763346811829" lon="-5.9738731938946"><ele>11.5</ele><time>2026-04-03T07:41:32.005Z</time></trkpt><trkpt lat="43.57757460453421" lon="-5.9739311200699365"><ele>11.666666666666666</ele><time>2026-04-03T07:41:34.005Z</time></trkpt><trkpt lat="43.577541419951636" lon="-5.974023481993608"><ele>11.833333333333334</ele><time>2026-04-03T07:41:36.005Z</time></trkpt><trkpt lat="43.577505993591515" lon="-5.974116723874282"><ele>12.0</ele><time>2026-04-03T07:41:38.005Z</time></trkpt><trkpt lat="43.577464918638974" lon="-5.974206021168436"><ele>12.0</ele><time>2026-04-03T07:41:40.005Z</time></trkpt><trkpt lat="43.57742222880744" lon="-5.974298597519033"><ele>12.0</ele><time>2026-04-03T07:41:42.005Z</time></trkpt><trkpt lat="43.57737926052364" lon="-5.974405412204295"><ele>12.0</ele><time>2026-04-03T07:41:44.005Z</time></trkpt><trkpt lat="43.577326628093765" lon="-5.974499473001139"><ele>12.0</ele><time>2026-04-03T07:41:46.005Z</time></trkpt><trkpt lat="43.577269968368256" lon="-5.97459691334743"><ele>12.0</ele><time>2026-04-03T07:41:48.005Z</time></trkpt><trkpt lat="43.577225103424965" lon="-5.974681990827602"><ele>12.0</ele><time>2026-04-03T07:41:50.005Z</time></trkpt><trkpt lat="43.577164840730475" lon="-5.97477835380442"><ele>12.0</ele><time>2026-04-03T07:41:52.005Z</time></trkpt><trkpt lat="43.57711920055891" lon="-5.974884083468171"><ele>12.0</ele><time>2026-04-03T07:41:54.005Z</time></trkpt><trkpt lat="43.577066270732466" lon="-5.9749757977473195"><ele>12.0</ele><time>2026-04-03T07:41:56.005Z</time></trkpt><trkpt lat="43.5770073777638" lon="-5.975069326223461"><ele>12.0</ele><time>2026-04-03T07:41:58.005Z</time></trkpt><trkpt lat="43.57694770881735" lon="-5.975142788119952"><ele>12.0</ele><time>2026-04-03T07:42:00.005Z</time></trkpt><trkpt lat="43.57690669722779" lon="-5.975236146552649"><ele>12.0</ele><time>2026-04-03T07:42:02.005Z</time></trkpt><trkpt lat="43.5768524916328" lon="-5.975349209693263"><ele>12.8</ele><time>2026-04-03T07:42:04.005Z</time></trkpt><trkpt lat="43.576796336878786" lon="-5.975465988945594"><ele>13.6</ele><time>2026-04-03T07:42:06.005Z</time></trkpt><trkpt lat="43.576742800901535" lon="-5.975590059553528"><ele>14.400000000000002</ele><time>2026-04-03T07:42:08.005Z</time></trkpt><trkpt lat="43.576686146209056" lon="-5.975729176652932"><ele>15.200000000000001</ele><time>2026-04-03T07:42:10.005Z</time></trkpt><trkpt lat="43.57665805077737" lon="-5.975808982667276"><ele>16.0</ele><time>2026-04-03T07:42:11.005Z</time></trkpt><trkpt lat="43.576691860034515" lon="-5.975931424462505"><ele>14.200000000000001</ele><time>2026-04-03T07:42:13.005Z</time></trkpt><trkpt lat="43.57673804894491" lon="-5.976033472364816"><ele>12.400000000000002</ele><time>2026-04-03T07:42:14.005Z</time></trkpt><trkpt lat="43.57671246319357" lon="-5.976188224023482"><ele>10.6</ele><time>2026-04-03T07:42:16.004Z</time></trkpt><trkpt lat="43.57667229081854" lon="-5.976263902556126"><ele>8.8</ele><time>2026-04-03T07:42:17.004Z</time></trkpt><trkpt lat="43.57659901442496" lon="-5.976344804746715"><ele>7.0</ele><time>2026-04-03T07:42:19.004Z</time></trkpt><trkpt lat="43.576509776403114" lon="-5.976425816428392"><ele>7.000000000000001</ele><time>2026-04-03T07:42:21.004Z</time></trkpt><trkpt lat="43.576433810189265" lon="-5.976494403962928"><ele>7.0</ele><time>2026-04-03T07:42:23.004Z</time></trkpt><trkpt lat="43.576360372193626" lon="-5.97656687291459"><ele>7.0</ele><time>2026-04-03T07:42:25.004Z</time></trkpt><trkpt lat="43.57628756496718" lon="-5.976632603745367"><ele>7.0</ele><time>2026-04-03T07:42:27.004Z</time></trkpt><trkpt lat="43.57621776777271" lon="-5.976706306019742"><ele>7.000000000000001</ele><time>2026-04-03T07:42:29.004Z</time></trkpt><trkpt lat="43.57615887762827" lon="-5.976778021365098"><ele>7.0</ele><time>2026-04-03T07:42:31.006Z</time></trkpt><trkpt lat="43.5761056158939" lon="-5.976876539353839"><ele>7.6</ele><time>2026-04-03T07:42:33.005Z</time></trkpt><trkpt lat="43.576042810039134" lon="-5.976964753433582"><ele>8.2</ele><time>2026-04-03T07:42:35.006Z</time></trkpt><trkpt lat="43.57598632166132" lon="-5.977047654011342"><ele>8.8</ele><time>2026-04-03T07:42:37.006Z</time></trkpt><trkpt lat="43.57590973045509" lon="-5.97713599483695"><ele>9.4</ele><time>2026-04-03T07:42:39.006Z</time></trkpt><trkpt lat="43.57583010649442" lon="-5.977195492989522"><ele>10.0</ele><time>2026-04-03T07:42:41.006Z</time></trkpt><trkpt lat="43.5757532499669" lon="-5.9772559472565625"><ele>10.0</ele><time>2026-04-03T07:42:43.006Z</time></trkpt><trkpt lat="43.57566692237723" lon="-5.97729792666822"><ele>10.0</ele><time>2026-04-03T07:42:45.006Z</time></trkpt><trkpt lat="43.5755867777509" lon="-5.9773294254163964"><ele>10.0</ele><time>2026-04-03T07:42:47.006Z</time></trkpt><trkpt lat="43.57549497789492" lon="-5.977357120470484"><ele>10.0</ele><time>2026-04-03T07:42:49.006Z</time></trkpt><trkpt lat="43.575408503796204" lon="-5.977387626045939"><ele>10.0</ele><time>2026-04-03T07:42:51.006Z</time></trkpt><trkpt lat="43.57532311900065" lon="-5.977419606533461"><ele>10.0</ele><time>2026-04-03T07:42:53.006Z</time></trkpt><trkpt lat="43.57522307666987" lon="-5.9774372525337975"><ele>10.0</ele><time>2026-04-03T07:42:55.006Z</time></trkpt><trkpt lat="43.575151464369924" lon="-5.977462882888543"><ele>10.0</ele><time>2026-04-03T07:42:57.006Z</time></trkpt><trkpt lat="43.57507396497033" lon="-5.977476878511316"><ele>10.0</ele><time>2026-04-03T07:42:59.006Z</time></trkpt><trkpt lat="43.575004400163145" lon="-5.977504350459994"><ele>10.0</ele><time>2026-04-03T07:43:01.006Z</time></trkpt><trkpt lat="43.574925815184336" lon="-5.977514584739019"><ele>10.0</ele><time>2026-04-03T07:43:03.006Z</time></trkpt><trkpt lat="43.57484674013033" lon="-5.9775269033208716"><ele>10.0</ele><time>2026-04-03T07:43:05.006Z</time></trkpt><trkpt lat="43.57477821708287" lon="-5.97755424124653"><ele>10.0</ele><time>2026-04-03T07:43:07.006Z</time></trkpt><trkpt lat="43.574694890394596" lon="-5.977575050231771"><ele>10.0</ele><time>2026-04-03T07:43:09.006Z</time></trkpt><trkpt lat="43.574617948843915" lon="-5.977608360603832"><ele>10.0</ele><time>2026-04-03T07:43:11.006Z</time></trkpt><trkpt lat="43.574527853995505" lon="-5.977615498660533"><ele>10.0</ele><time>2026-04-03T07:43:13.006Z</time></trkpt><trkpt lat="43.57445100670312" lon="-5.977642912311576"><ele>10.0</ele><time>2026-04-03T07:43:15.006Z</time></trkpt><trkpt lat="43.57437278507071" lon="-5.977656610401734"><ele>10.0</ele><time>2026-04-03T07:43:17.006Z</time></trkpt><trkpt lat="43.57427715802891" lon="-5.977642519025565"><ele>10.166666666666668</ele><time>2026-04-03T07:43:19.006Z</time></trkpt><trkpt lat="43.57419480532139" lon="-5.977584967925595"><ele>10.333333333333334</ele><time>2026-04-03T07:43:21.006Z</time></trkpt><trkpt lat="43.574112392942084" lon="-5.977536322292206"><ele>10.5</ele><time>2026-04-03T07:43:23.006Z</time></trkpt><trkpt lat="43.57406053147797" lon="-5.977478256690719"><ele>10.666666666666666</ele><time>2026-04-03T07:43:25.006Z</time></trkpt><trkpt lat="43.57398018962502" lon="-5.977428677703831"><ele>10.833333333333332</ele><time>2026-04-03T07:43:27.006Z</time></trkpt><trkpt lat="43.573921215015716" lon="-5.977360712520914"><ele>11.0</ele><time>2026-04-03T07:43:29.006Z</time></trkpt><trkpt lat="43.57384284033982" lon="-5.977293575736544"><ele>11.5</ele><time>2026-04-03T07:43:31.005Z</time></trkpt><trkpt lat="43.57379390501301" lon="-5.977225695402568"><ele>12.0</ele><time>2026-04-03T07:43:33.005Z</time></trkpt><trkpt lat="43.57372480516122" lon="-5.977157025361833"><ele>12.5</ele><time>2026-04-03T07:43:35.005Z</time></trkpt><trkpt lat="43.57367063575337" lon="-5.9770924778834695"><ele>13.0</ele><time>2026-04-03T07:43:37.005Z</time></trkpt><trkpt lat="43.573607884892695" lon="-5.977013363593628"><ele>13.500000000000002</ele><time>2026-04-03T07:43:39.005Z</time></trkpt><trkpt lat="43.57354846038351" lon="-5.976943866141914"><ele>14.0</ele><time>2026-04-03T07:43:41.005Z</time></trkpt><trkpt lat="43.57347353284028" lon="-5.976899569672608"><ele>15.166666666666668</ele><time>2026-04-03T07:43:43.005Z</time></trkpt><trkpt lat="43.57341271278454" lon="-5.976811254861681"><ele>16.333333333333336</ele><time>2026-04-03T07:43:45.005Z</time></trkpt><trkpt lat="43.573351867159644" lon="-5.97673820363769"><ele>17.5</ele><time>2026-04-03T07:43:47.005Z</time></trkpt><trkpt lat="43.573288562221194" lon="-5.976676351397835"><ele>18.666666666666668</ele><time>2026-04-03T07:43:49.005Z</time></trkpt><trkpt lat="43.573215222158396" lon="-5.9766162686222035"><ele>19.833333333333332</ele><time>2026-04-03T07:43:51.005Z</time></trkpt><trkpt lat="43.573142190788666" lon="-5.976545883969557"><ele>21.0</ele><time>2026-04-03T07:43:53.005Z</time></trkpt><trkpt lat="43.57308511788851" lon="-5.976470451415335"><ele>21.0</ele><time>2026-04-03T07:43:55.005Z</time></trkpt><trkpt lat="43.573003361488844" lon="-5.97643403464408"><ele>21.0</ele><time>2026-04-03T07:43:57.005Z</time></trkpt><trkpt lat="43.57292534863826" lon="-5.976393548442282"><ele>21.0</ele><time>2026-04-03T07:43:59.005Z</time></trkpt><trkpt lat="43.57285003095919" lon="-5.976354303262172"><ele>21.0</ele><time>2026-04-03T07:44:01.005Z</time></trkpt><trkpt lat="43.572772590497244" lon="-5.976322904323842"><ele>21.0</ele><time>2026-04-03T07:44:03.005Z</time></trkpt><trkpt lat="43.57268989809541" lon="-5.976296248906945"><ele>21.0</ele><time>2026-04-03T07:44:05.005Z</time></trkpt><trkpt lat="43.57262110096427" lon="-5.976253403012917"><ele>20.5</ele><time>2026-04-03T07:44:07.005Z</time></trkpt><trkpt lat="43.57255651945316" lon="-5.9761976031988375"><ele>20.0</ele><time>2026-04-03T07:44:09.005Z</time></trkpt><trkpt lat="43.57249508652702" lon="-5.9761330258980125"><ele>19.5</ele><time>2026-04-03T07:44:11.005Z</time></trkpt><trkpt lat="43.5724212970297" lon="-5.976092659886225"><ele>19.0</ele><time>2026-04-03T07:44:13.005Z</time></trkpt><trkpt lat="43.57235156624326" lon="-5.976021538444445"><ele>18.5</ele><time>2026-04-03T07:44:15.005Z</time></trkpt><trkpt lat="43.57228974133802" lon="-5.9759907129193"><ele>18.0</ele><time>2026-04-03T07:44:17.005Z</time></trkpt><trkpt lat="43.57222598627168" lon="-5.975910456540174"><ele>18.333333333333332</ele><time>2026-04-03T07:44:19.005Z</time></trkpt><trkpt lat="43.57215227170397" lon="-5.975842479775441"><ele>18.666666666666668</ele><time>2026-04-03T07:44:21.005Z</time></trkpt><trkpt lat="43.57206684102177" lon="-5.975805534451406"><ele>19.0</ele><time>2026-04-03T07:44:24.005Z</time></trkpt><trkpt lat="43.57199337100326" lon="-5.975748974064226"><ele>19.333333333333336</ele><time>2026-04-03T07:44:26.005Z</time></trkpt><trkpt lat="43.57192953109109" lon="-5.975708644095536"><ele>19.666666666666668</ele><time>2026-04-03T07:44:28.005Z</time></trkpt><trkpt lat="43.57185443452065" lon="-5.97565749165445"><ele>20.0</ele><time>2026-04-03T07:44:30.005Z</time></trkpt><trkpt lat="43.57176062241666" lon="-5.975630073110117"><ele>20.0</ele><time>2026-04-03T07:44:33.005Z</time></trkpt><trkpt lat="43.57166303915174" lon="-5.975617574926815"><ele>20.0</ele><time>2026-04-03T07:44:36.006Z</time></trkpt><trkpt lat="43.57158109962227" lon="-5.975574860171028"><ele>20.0</ele><time>2026-04-03T07:44:38.006Z</time></trkpt><trkpt lat="43.57150527482221" lon="-5.975551831514073"><ele>20.0</ele><time>2026-04-03T07:44:40.005Z</time></trkpt><trkpt lat="43.57140909524574" lon="-5.975541624457358"><ele>20.0</ele><time>2026-04-03T07:44:42.006Z</time></trkpt><trkpt lat="43.57132704261039" lon="-5.975525277516402"><ele>20.0</ele><time>2026-04-03T07:44:44.006Z</time></trkpt><trkpt lat="43.57123541189002" lon="-5.975529141597575"><ele>19.833333333333336</ele><time>2026-04-03T07:44:46.007Z</time></trkpt><trkpt lat="43.57114338600845" lon="-5.975510891674879"><ele>19.666666666666668</ele><time>2026-04-03T07:44:48.007Z</time></trkpt><trkpt lat="43.57106155290081" lon="-5.975529363735891"><ele>19.5</ele><time>2026-04-03T07:44:50.007Z</time></trkpt><trkpt lat="43.5709844857018" lon="-5.975538275181628"><ele>19.333333333333332</ele><time>2026-04-03T07:44:52.007Z</time></trkpt><trkpt lat="43.570884733670646" lon="-5.975555620868162"><ele>19.166666666666664</ele><time>2026-04-03T07:44:54.007Z</time></trkpt><trkpt lat="43.570804549726944" lon="-5.975587902592181"><ele>19.0</ele><time>2026-04-03T07:44:56.007Z</time></trkpt><trkpt lat="43.5707378247247" lon="-5.975586465278295"><ele>19.0</ele><time>2026-04-03T07:44:58.007Z</time></trkpt><trkpt lat="43.57064911105697" lon="-5.975580626507067"><ele>19.0</ele><time>2026-04-03T07:45:00.006Z</time></trkpt><trkpt lat="43.57055965698065" lon="-5.97556329244282"><ele>19.0</ele><time>2026-04-03T07:45:02.006Z</time></trkpt><trkpt lat="43.57048710574584" lon="-5.975554073776082"><ele>19.0</ele><time>2026-04-03T07:45:04.006Z</time></trkpt><trkpt lat="43.570421875515585" lon="-5.9755361931313775"><ele>19.0</ele><time>2026-04-03T07:45:06.006Z</time></trkpt><trkpt lat="43.57034159486926" lon="-5.975521961015736"><ele>19.0</ele><time>2026-04-03T07:45:08.006Z</time></trkpt><trkpt lat="43.57025835446029" lon="-5.975503539862125"><ele>19.0</ele><time>2026-04-03T07:45:10.006Z</time></trkpt><trkpt lat="43.570177641538216" lon="-5.9754896252238545"><ele>19.0</ele><time>2026-04-03T07:45:12.006Z</time></trkpt><trkpt lat="43.57010412863015" lon="-5.9754672861614"><ele>19.0</ele><time>2026-04-03T07:45:14.006Z</time></trkpt><trkpt lat="43.57001793082738" lon="-5.975430565714326"><ele>19.0</ele><time>2026-04-03T07:45:16.006Z</time></trkpt><trkpt lat="43.569934241042624" lon="-5.9754050335294995"><ele>19.0</ele><time>2026-04-03T07:45:18.006Z</time></trkpt><trkpt lat="43.569830832668124" lon="-5.9753735180217245"><ele>19.0</ele><time>2026-04-03T07:45:21.006Z</time></trkpt><trkpt lat="43.569741096893296" lon="-5.975342729000608"><ele>19.0</ele><time>2026-04-03T07:45:23.006Z</time></trkpt><trkpt lat="43.569676296255366" lon="-5.975318765033068"><ele>19.0</ele><time>2026-04-03T07:45:25.006Z</time></trkpt><trkpt lat="43.56957972682357" lon="-5.975262312161564"><ele>19.0</ele><time>2026-04-03T07:45:27.006Z</time></trkpt><trkpt lat="43.56950879193256" lon="-5.975227067119785"><ele>19.0</ele><time>2026-04-03T07:45:29.006Z</time></trkpt><trkpt lat="43.56943306273207" lon="-5.975172487179057"><ele>19.0</ele><time>2026-04-03T07:45:31.006Z</time></trkpt><trkpt lat="43.569357157962465" lon="-5.97512853310527"><ele>19.0</ele><time>2026-04-03T07:45:33.006Z</time></trkpt><trkpt lat="43.56928857350894" lon="-5.975095501575416"><ele>19.0</ele><time>2026-04-03T07:45:35.006Z</time></trkpt><trkpt lat="43.56920597201522" lon="-5.975048767403551"><ele>19.0</ele><time>2026-04-03T07:45:37.006Z</time></trkpt><trkpt lat="43.569114954643766" lon="-5.974990220996806"><ele>19.0</ele><time>2026-04-03T07:45:39.006Z</time></trkpt><trkpt lat="43.56904472427715" lon="-5.974945410286887"><ele>19.0</ele><time>2026-04-03T07:45:41.006Z</time></trkpt><trkpt lat="43.56897788420192" lon="-5.974917951189341"><ele>19.0</ele><time>2026-04-03T07:45:43.006Z</time></trkpt><trkpt lat="43.56888053644341" lon="-5.974854112480312"><ele>19.0</ele><time>2026-04-03T07:45:46.006Z</time></trkpt><trkpt lat="43.568803622509925" lon="-5.974804974915013"><ele>18.833333333333332</ele><time>2026-04-03T07:45:48.006Z</time></trkpt><trkpt lat="43.56873607518865" lon="-5.974761997983546"><ele>18.666666666666664</ele><time>2026-04-03T07:45:50.006Z</time></trkpt><trkpt lat="43.56867571314193" lon="-5.9747360839817665"><ele>18.5</ele><time>2026-04-03T07:45:52.006Z</time></trkpt><trkpt lat="43.56860031682984" lon="-5.974703090231478"><ele>18.333333333333332</ele><time>2026-04-03T07:45:54.006Z</time></trkpt><trkpt lat="43.56851481794458" lon="-5.9746772532979415"><ele>18.166666666666668</ele><time>2026-04-03T07:45:56.006Z</time></trkpt><trkpt lat="43.568443911402134" lon="-5.9746617728671465"><ele>18.0</ele><time>2026-04-03T07:45:58.006Z</time></trkpt><trkpt lat="43.5683691289138" lon="-5.974687872766919"><ele>18.0</ele><time>2026-04-03T07:46:00.006Z</time></trkpt><trkpt lat="43.56828002086794" lon="-5.974751614353491"><ele>18.0</ele><time>2026-04-03T07:46:02.006Z</time></trkpt><trkpt lat="43.56817267376499" lon="-5.974804737042579"><ele>18.0</ele><time>2026-04-03T07:46:04.006Z</time></trkpt><trkpt lat="43.56811246827171" lon="-5.97487239851557"><ele>18.0</ele><time>2026-04-03T07:46:06.006Z</time></trkpt><trkpt lat="43.56805226194961" lon="-5.974941716272219"><ele>18.0</ele><time>2026-04-03T07:46:08.006Z</time></trkpt><trkpt lat="43.56798484247045" lon="-5.975051731816289"><ele>18.5</ele><time>2026-04-03T07:46:11.006Z</time></trkpt><trkpt lat="43.56792588333026" lon="-5.975131705827718"><ele>19.0</ele><time>2026-04-03T07:46:13.006Z</time></trkpt><trkpt lat="43.56786731230469" lon="-5.975224518940055"><ele>19.5</ele><time>2026-04-03T07:46:15.006Z</time></trkpt><trkpt lat="43.56782216294354" lon="-5.97531643673329"><ele>20.0</ele><time>2026-04-03T07:46:17.005Z</time></trkpt><trkpt lat="43.567772360039996" lon="-5.975409526822501"><ele>20.5</ele><time>2026-04-03T07:46:19.005Z</time></trkpt><trkpt lat="43.56771777845131" lon="-5.9754714976150956"><ele>21.0</ele><time>2026-04-03T07:46:21.005Z</time></trkpt><trkpt lat="43.56764463703588" lon="-5.975481744743093"><ele>21.0</ele><time>2026-04-03T07:46:26.005Z</time></trkpt><trkpt lat="43.56755747412448" lon="-5.975479302367926"><ele>21.0</ele><time>2026-04-03T07:46:31.005Z</time></trkpt><trkpt lat="43.56748325240413" lon="-5.975453395773556"><ele>21.0</ele><time>2026-04-03T07:46:33.005Z</time></trkpt><trkpt lat="43.56740177314913" lon="-5.975421385148585"><ele>21.0</ele><time>2026-04-03T07:46:35.005Z</time></trkpt><trkpt lat="43.56733098933222" lon="-5.975392881819666"><ele>21.0</ele><time>2026-04-03T07:46:37.005Z</time></trkpt><trkpt lat="43.56726980978208" lon="-5.975349490622469"><ele>21.0</ele><time>2026-04-03T07:46:39.005Z</time></trkpt><trkpt lat="43.56719839815568" lon="-5.9753209693796325"><ele>21.0</ele><time>2026-04-03T07:46:41.006Z</time></trkpt><trkpt lat="43.567136553982515" lon="-5.975287541995884"><ele>21.0</ele><time>2026-04-03T07:46:43.007Z</time></trkpt><trkpt lat="43.56704436947461" lon="-5.975288493324121"><ele>21.0</ele><time>2026-04-03T07:46:46.006Z</time></trkpt><trkpt lat="43.567012209928905" lon="-5.975374295703378"><ele>21.0</ele><time>2026-04-03T07:46:49.007Z</time></trkpt><trkpt lat="43.56693401219522" lon="-5.975419351576084"><ele>21.0</ele><time>2026-04-03T07:46:52.006Z</time></trkpt><trkpt lat="43.5668666918379" lon="-5.975445622966468"><ele>21.0</ele><time>2026-04-03T07:46:54.006Z</time></trkpt><trkpt lat="43.56677025962506" lon="-5.975463206934179"><ele>20.857142857142858</ele><time>2026-04-03T07:46:57.006Z</time></trkpt><trkpt lat="43.56670299895436" lon="-5.97548419643573"><ele>20.714285714285715</ele><time>2026-04-03T07:46:59.006Z</time></trkpt><trkpt lat="43.5666332140434" lon="-5.97547575959723"><ele>20.57142857142857</ele><time>2026-04-03T07:47:01.006Z</time></trkpt><trkpt lat="43.566547969249825" lon="-5.975467750897025"><ele>20.42857142857143</ele><time>2026-04-03T07:47:03.006Z</time></trkpt><trkpt lat="43.56646911940483" lon="-5.9754426672984735"><ele>20.285714285714285</ele><time>2026-04-03T07:47:05.006Z</time></trkpt><trkpt lat="43.566405269389996" lon="-5.975441855794696"><ele>20.142857142857142</ele><time>2026-04-03T07:47:07.006Z</time></trkpt><trkpt lat="43.56634075024333" lon="-5.975428772465795"><ele>20.0</ele><time>2026-04-03T07:47:09.006Z</time></trkpt><trkpt lat="43.566265563826185" lon="-5.975425582249899"><ele>20.0</ele><time>2026-04-03T07:47:11.006Z</time></trkpt><trkpt lat="43.566196048244755" lon="-5.9754153368590845"><ele>20.0</ele><time>2026-04-03T07:47:13.006Z</time></trkpt><trkpt lat="43.56611972631406" lon="-5.9753827643443955"><ele>20.0</ele><time>2026-04-03T07:47:15.006Z</time></trkpt><trkpt lat="43.56603600624518" lon="-5.97537370323738"><ele>20.0</ele><time>2026-04-03T07:47:17.006Z</time></trkpt><trkpt lat="43.565958883682995" lon="-5.975367017486272"><ele>20.0</ele><time>2026-04-03T07:47:19.006Z</time></trkpt><trkpt lat="43.5658935440247" lon="-5.9753550023626625"><ele>20.0</ele><time>2026-04-03T07:47:21.006Z</time></trkpt><trkpt lat="43.56582395619704" lon="-5.975373015207735"><ele>20.0</ele><time>2026-04-03T07:47:23.006Z</time></trkpt><trkpt lat="43.565751382871206" lon="-5.9753930910115285"><ele>20.285714285714285</ele><time>2026-04-03T07:47:25.006Z</time></trkpt><trkpt lat="43.56568720107207" lon="-5.975442786634613"><ele>20.571428571428573</ele><time>2026-04-03T07:47:27.006Z</time></trkpt><trkpt lat="43.565628498686195" lon="-5.975490031764391"><ele>20.857142857142858</ele><time>2026-04-03T07:47:29.006Z</time></trkpt><trkpt lat="43.565569603318295" lon="-5.975548233802064"><ele>21.142857142857142</ele><time>2026-04-03T07:47:31.006Z</time></trkpt><trkpt lat="43.56550461299048" lon="-5.975621907477054"><ele>21.428571428571427</ele><time>2026-04-03T07:47:34.006Z</time></trkpt><trkpt lat="43.56544395435445" lon="-5.975658128486262"><ele>21.714285714285715</ele><time>2026-04-03T07:47:37.006Z</time></trkpt><trkpt lat="43.565386899350926" lon="-5.975714055907217"><ele>22.0</ele><time>2026-04-03T07:47:41.006Z</time></trkpt><trkpt lat="43.56530254943074" lon="-5.975721490133271"><ele>22.166666666666664</ele><time>2026-04-03T07:47:44.006Z</time></trkpt><trkpt lat="43.56522155554266" lon="-5.975709588605388"><ele>22.333333333333332</ele><time>2026-04-03T07:47:47.006Z</time></trkpt><trkpt lat="43.565156053595935" lon="-5.975709316920538"><ele>22.5</ele><time>2026-04-03T07:47:50.006Z</time></trkpt><trkpt lat="43.565070211527704" lon="-5.9757025380934445"><ele>22.666666666666668</ele><time>2026-04-03T07:47:53.006Z</time></trkpt><trkpt lat="43.565002813870464" lon="-5.975682480781044"><ele>22.833333333333336</ele><time>2026-04-03T07:47:55.006Z</time></trkpt><trkpt lat="43.56491769002209" lon="-5.9756599822381915"><ele>23.0</ele><time>2026-04-03T07:47:57.005Z</time></trkpt><trkpt lat="43.564842166879565" lon="-5.97564434003425"><ele>23.0</ele><time>2026-04-03T07:47:59.005Z</time></trkpt><trkpt lat="43.56475044490344" lon="-5.975590709848478"><ele>23.0</ele><time>2026-04-03T07:48:01.005Z</time></trkpt><trkpt lat="43.56466335767093" lon="-5.975570433079275"><ele>23.0</ele><time>2026-04-03T07:48:03.005Z</time></trkpt><trkpt lat="43.56458358426924" lon="-5.975547837361665"><ele>23.0</ele><time>2026-04-03T07:48:05.005Z</time></trkpt><trkpt lat="43.56449937060142" lon="-5.9755217221848795"><ele>23.0</ele><time>2026-04-03T07:48:07.005Z</time></trkpt><trkpt lat="43.564419651934955" lon="-5.975505400559201"><ele>23.0</ele><time>2026-04-03T07:48:09.005Z</time></trkpt><trkpt lat="43.5643487656946" lon="-5.975490126869694"><ele>23.333333333333336</ele><time>2026-04-03T07:48:11.005Z</time></trkpt><trkpt lat="43.56426895428342" lon="-5.975470066866729"><ele>23.666666666666668</ele><time>2026-04-03T07:48:13.005Z</time></trkpt><trkpt lat="43.56419036333649" lon="-5.975447199484686"><ele>24.0</ele><time>2026-04-03T07:48:15.005Z</time></trkpt><trkpt lat="43.56410833820877" lon="-5.975417386178533"><ele>24.333333333333336</ele><time>2026-04-03T07:48:17.005Z</time></trkpt><trkpt lat="43.56404111806252" lon="-5.975401151279076"><ele>24.666666666666668</ele><time>2026-04-03T07:48:19.005Z</time></trkpt><trkpt lat="43.5639683528556" lon="-5.975376936926579"><ele>25.0</ele><time>2026-04-03T07:48:21.005Z</time></trkpt><trkpt lat="43.56387895294353" lon="-5.9754015956941835"><ele>25.000000000000004</ele><time>2026-04-03T07:48:24.005Z</time></trkpt><trkpt lat="43.56380823972572" lon="-5.975406964608154"><ele>25.0</ele><time>2026-04-03T07:48:27.005Z</time></trkpt><trkpt lat="43.56371400383171" lon="-5.975366553599629"><ele>25.0</ele><time>2026-04-03T07:48:30.005Z</time></trkpt><trkpt lat="43.56363094485972" lon="-5.975379276187898"><ele>25.0</ele><time>2026-04-03T07:48:32.005Z</time></trkpt><trkpt lat="43.56354116422955" lon="-5.975394780004422"><ele>25.000000000000004</ele><time>2026-04-03T07:48:34.005Z</time></trkpt><trkpt lat="43.563450207142075" lon="-5.975363577403471"><ele>25.0</ele><time>2026-04-03T07:48:36.005Z</time></trkpt><trkpt lat="43.56337535479785" lon="-5.975325748991094"><ele>24.857142857142858</ele><time>2026-04-03T07:48:38.005Z</time></trkpt><trkpt lat="43.56329353707562" lon="-5.975311883851908"><ele>24.714285714285715</ele><time>2026-04-03T07:48:40.005Z</time></trkpt><trkpt lat="43.56322201217731" lon="-5.975298870822812"><ele>24.57142857142857</ele><time>2026-04-03T07:48:42.005Z</time></trkpt><trkpt lat="43.56315771131817" lon="-5.975291234728975"><ele>24.42857142857143</ele><time>2026-04-03T07:48:44.005Z</time></trkpt><trkpt lat="43.56310596582828" lon="-5.975221480248126"><ele>24.285714285714285</ele><time>2026-04-03T07:48:47.007Z</time></trkpt><trkpt lat="43.56303951317296" lon="-5.975187973006066"><ele>24.142857142857142</ele><time>2026-04-03T07:48:52.006Z</time></trkpt><trkpt lat="43.56301544775634" lon="-5.9750843429111145"><ele>24.0</ele><time>2026-04-03T07:48:55.007Z</time></trkpt><trkpt lat="43.56300702182699" lon="-5.97497829492595"><ele>24.333333333333332</ele><time>2026-04-03T07:48:59.007Z</time></trkpt><trkpt lat="43.56301087737764" lon="-5.974837504932573"><ele>24.666666666666664</ele><time>2026-04-03T07:49:02.007Z</time></trkpt><trkpt lat="43.56303228361453" lon="-5.974726879780926"><ele>25.0</ele><time>2026-04-03T07:49:04.007Z</time></trkpt><trkpt lat="43.56301768014439" lon="-5.974611881145959"><ele>25.333333333333332</ele><time>2026-04-03T07:49:06.007Z</time></trkpt><trkpt lat="43.56298631412811" lon="-5.974499500107995"><ele>25.666666666666664</ele><time>2026-04-03T07:49:08.007Z</time></trkpt><trkpt lat="43.56296566654181" lon="-5.974416920892507"><ele>26.0</ele><time>2026-04-03T07:49:10.007Z</time></trkpt><trkpt lat="43.56291728930981" lon="-5.9743296320678905"><ele>25.999999999999996</ele><time>2026-04-03T07:49:12.007Z</time></trkpt><trkpt lat="43.5628513563678" lon="-5.974262458037899"><ele>26.0</ele><time>2026-04-03T07:49:15.007Z</time></trkpt><trkpt lat="43.56278151495633" lon="-5.974227444060506"><ele>26.0</ele><time>2026-04-03T07:49:18.007Z</time></trkpt><trkpt lat="43.56270850949405" lon="-5.974210623457924"><ele>26.0</ele><time>2026-04-03T07:49:21.007Z</time></trkpt><trkpt lat="43.56263676540276" lon="-5.974187326333134"><ele>25.999999999999996</ele><time>2026-04-03T07:49:23.007Z</time></trkpt><trkpt lat="43.562555830831485" lon="-5.97418356975949"><ele>26.0</ele><time>2026-04-03T07:49:25.007Z</time></trkpt><trkpt lat="43.56246676377082" lon="-5.974148322659823"><ele>26.999999999999996</ele><time>2026-04-03T07:49:29.007Z</time></trkpt><trkpt lat="43.5623946344371" lon="-5.97414737207732"><ele>28.0</ele><time>2026-04-03T07:49:31.007Z</time></trkpt><trkpt lat="43.56231937946979" lon="-5.974108230440721"><ele>29.0</ele><time>2026-04-03T07:49:33.007Z</time></trkpt><trkpt lat="43.56223329815296" lon="-5.9740652770151605"><ele>30.0</ele><time>2026-04-03T07:49:35.007Z</time></trkpt><trkpt lat="43.56216908753038" lon="-5.974021922527166"><ele>30.999999999999996</ele><time>2026-04-03T07:49:37.007Z</time></trkpt><trkpt lat="43.56209047122204" lon="-5.973999666003514"><ele>32.0</ele><time>2026-04-03T07:49:40.006Z</time></trkpt><trkpt lat="43.561980371700926" lon="-5.973969668631678"><ele>31.999999999999996</ele><time>2026-04-03T07:49:44.006Z</time></trkpt><trkpt lat="43.561932266503746" lon="-5.973901057161724"><ele>32.0</ele><time>2026-04-03T07:49:47.006Z</time></trkpt><trkpt lat="43.56186778551192" lon="-5.973861374676246"><ele>32.0</ele><time>2026-04-03T07:49:50.006Z</time></trkpt><trkpt lat="43.56177850784596" lon="-5.973859298525673"><ele>32.0</ele><time>2026-04-03T07:49:53.006Z</time></trkpt><trkpt lat="43.561719729153246" lon="-5.973797676238005"><ele>31.999999999999996</ele><time>2026-04-03T07:49:55.006Z</time></trkpt><trkpt lat="43.561627248779736" lon="-5.973751676615693"><ele>32.0</ele><time>2026-04-03T07:49:58.006Z</time></trkpt><trkpt lat="43.5615608169766" lon="-5.973710663109916"><ele>32.0</ele><time>2026-04-03T07:50:01.006Z</time></trkpt><trkpt lat="43.56151134044514" lon="-5.973655164094233"><ele>31.999999999999996</ele><time>2026-04-03T07:50:04.006Z</time></trkpt><trkpt lat="43.56151896810372" lon="-5.973532100550836"><ele>32.0</ele><time>2026-04-03T07:50:08.006Z</time></trkpt><trkpt lat="43.56150829620142" lon="-5.973444979743045"><ele>32.0</ele><time>2026-04-03T07:50:10.006Z</time></trkpt><trkpt lat="43.561502220014795" lon="-5.973351946529582"><ele>31.999999999999996</ele><time>2026-04-03T07:50:12.006Z</time></trkpt><trkpt lat="43.56151260845664" lon="-5.973250805461836"><ele>32.0</ele><time>2026-04-03T07:50:15.006Z</time></trkpt><trkpt lat="43.561527532680635" lon="-5.973157816065841"><ele>32.0</ele><time>2026-04-03T07:50:17.006Z</time></trkpt><trkpt lat="43.56152697336041" lon="-5.973025993570321"><ele>31.999999999999996</ele><time>2026-04-03T07:50:20.006Z</time></trkpt><trkpt lat="43.561528526649816" lon="-5.972932743799105"><ele>32.0</ele><time>2026-04-03T07:50:22.006Z</time></trkpt><trkpt lat="43.56150337270724" lon="-5.972835054147052"><ele>32.0</ele><time>2026-04-03T07:50:24.006Z</time></trkpt><trkpt lat="43.56151637982923" lon="-5.972702980237259"><ele>32.0</ele><time>2026-04-03T07:50:27.006Z</time></trkpt><trkpt lat="43.56155345821378" lon="-5.972626260059511"><ele>31.999999999999996</ele><time>2026-04-03T07:50:30.006Z</time></trkpt><trkpt lat="43.561549648611475" lon="-5.972494752910044"><ele>32.0</ele><time>2026-04-03T07:50:33.006Z</time></trkpt><trkpt lat="43.56156370004747" lon="-5.972404859069416"><ele>31.999999999999996</ele><time>2026-04-03T07:50:35.006Z</time></trkpt><trkpt lat="43.56158255397141" lon="-5.972320651241523"><ele>32.0</ele><time>2026-04-03T07:50:38.006Z</time></trkpt><trkpt lat="43.56159675549549" lon="-5.9721931489477145"><ele>32.0</ele><time>2026-04-03T07:50:41.006Z</time></trkpt><trkpt lat="43.56157382692691" lon="-5.972091347747035"><ele>32.0</ele><time>2026-04-03T07:50:44.006Z</time></trkpt><trkpt lat="43.561524479021884" lon="-5.97198415840451"><ele>31.999999999999996</ele><time>2026-04-03T07:50:47.006Z</time></trkpt><trkpt lat="43.561475997080066" lon="-5.9719286696220335"><ele>32.0</ele><time>2026-04-03T07:50:49.006Z</time></trkpt><trkpt lat="43.5614232439687" lon="-5.971847593847117"><ele>32.0</ele><time>2026-04-03T07:50:52.006Z</time></trkpt><trkpt lat="43.561373963937996" lon="-5.971777794225825"><ele>31.999999999999996</ele><time>2026-04-03T07:50:56.008Z</time></trkpt><trkpt lat="43.56131149949386" lon="-5.9717255370075195"><ele>32.0</ele><time>2026-04-03T07:51:00.007Z</time></trkpt><trkpt lat="43.561246258453274" lon="-5.971766281891789"><ele>32.0</ele><time>2026-04-03T07:51:02.008Z</time></trkpt><trkpt lat="43.56119399263309" lon="-5.971829183092135"><ele>31.999999999999996</ele><time>2026-04-03T07:51:06.007Z</time></trkpt><trkpt lat="43.561176656864255" lon="-5.971916830015181"><ele>32.0</ele><time>2026-04-03T07:51:07.007Z</time></trkpt><trkpt lat="43.56113840852099" lon="-5.971841148847919"><ele>32.0</ele><time>2026-04-03T07:51:09.007Z</time></trkpt><trkpt lat="43.561164904662846" lon="-5.9717342874434"><ele>31.833333333333332</ele><time>2026-04-03T07:51:11.007Z</time></trkpt><trkpt lat="43.561147056865494" lon="-5.971618403909878"><ele>31.666666666666664</ele><time>2026-04-03T07:51:13.007Z</time></trkpt><trkpt lat="43.5611408608227" lon="-5.971523069172665"><ele>31.5</ele><time>2026-04-03T07:51:15.007Z</time></trkpt><trkpt lat="43.56118209071178" lon="-5.971403820113732"><ele>31.333333333333336</ele><time>2026-04-03T07:51:17.007Z</time></trkpt><trkpt lat="43.561224286161504" lon="-5.971293550498303"><ele>31.166666666666668</ele><time>2026-04-03T07:51:19.007Z</time></trkpt><trkpt lat="43.56124621834913" lon="-5.971164025465857"><ele>31.0</ele><time>2026-04-03T07:51:21.007Z</time></trkpt><trkpt lat="43.56130099208734" lon="-5.97103578933945"><ele>31.000000000000004</ele><time>2026-04-03T07:51:23.007Z</time></trkpt><trkpt lat="43.56129717464318" lon="-5.97091469538595"><ele>31.0</ele><time>2026-04-03T07:51:25.007Z</time></trkpt><trkpt lat="43.561355693540314" lon="-5.970839354791551"><ele>31.0</ele><time>2026-04-03T07:51:28.007Z</time></trkpt><trkpt lat="43.561380033832826" lon="-5.970738074287242"><ele>31.0</ele><time>2026-04-03T07:51:31.007Z</time></trkpt><trkpt lat="43.56144586304639" lon="-5.970679617634152"><ele>31.000000000000004</ele><time>2026-04-03T07:51:33.007Z</time></trkpt><trkpt lat="43.561521116476854" lon="-5.97061152160894"><ele>31.0</ele><time>2026-04-03T07:51:35.007Z</time></trkpt><trkpt lat="43.561578415160234" lon="-5.970512901208905"><ele>30.500000000000004</ele><time>2026-04-03T07:51:38.007Z</time></trkpt><trkpt lat="43.56163014926213" lon="-5.970456757488124"><ele>30.0</ele><time>2026-04-03T07:51:40.007Z</time></trkpt><trkpt lat="43.56168442868162" lon="-5.9703500361841835"><ele>29.5</ele><time>2026-04-03T07:51:44.007Z</time></trkpt><trkpt lat="43.56175687821767" lon="-5.970265247637732"><ele>29.0</ele><time>2026-04-03T07:51:46.007Z</time></trkpt><trkpt lat="43.56179690504632" lon="-5.970164964250336"><ele>28.500000000000004</ele><time>2026-04-03T07:51:48.007Z</time></trkpt><trkpt lat="43.56186000025049" lon="-5.970107467955894"><ele>28.0</ele><time>2026-04-03T07:51:49.007Z</time></trkpt><trkpt lat="43.56192348198096" lon="-5.970073042266014"><ele>27.0</ele><time>2026-04-03T07:51:50.007Z</time></trkpt><trkpt lat="43.5620394576421" lon="-5.970007002847099"><ele>26.0</ele><time>2026-04-03T07:51:52.007Z</time></trkpt><trkpt lat="43.56213190131534" lon="-5.969907059906252"><ele>25.0</ele><time>2026-04-03T07:51:54.007Z</time></trkpt><trkpt lat="43.56223485275062" lon="-5.969809474924689"><ele>24.0</ele><time>2026-04-03T07:51:56.007Z</time></trkpt><trkpt lat="43.56232692041443" lon="-5.969711592294992"><ele>24.0</ele><time>2026-04-03T07:51:58.006Z</time></trkpt><trkpt lat="43.56241918311194" lon="-5.9696066017008755"><ele>24.0</ele><time>2026-04-03T07:52:00.006Z</time></trkpt><trkpt lat="43.562484518597685" lon="-5.969531338030444"><ele>24.0</ele><time>2026-04-03T07:52:02.006Z</time></trkpt><trkpt lat="43.562567581136676" lon="-5.969440201488029"><ele>24.0</ele><time>2026-04-03T07:52:04.006Z</time></trkpt><trkpt lat="43.56266628434122" lon="-5.969327835190918"><ele>24.0</ele><time>2026-04-03T07:52:06.006Z</time></trkpt><trkpt lat="43.56277523553845" lon="-5.9692450075062515"><ele>23.5</ele><time>2026-04-03T07:52:07.006Z</time></trkpt><trkpt lat="43.56284711147186" lon="-5.969183875659353"><ele>23.0</ele><time>2026-04-03T07:52:08.006Z</time></trkpt><trkpt lat="43.56292611085144" lon="-5.969117429428223"><ele>22.5</ele><time>2026-04-03T07:52:09.006Z</time></trkpt><trkpt lat="43.562997652816904" lon="-5.969058138523838"><ele>22.0</ele><time>2026-04-03T07:52:10.006Z</time></trkpt><trkpt lat="43.56305618644848" lon="-5.968997376401197"><ele>21.5</ele><time>2026-04-03T07:52:11.006Z</time></trkpt><trkpt lat="43.56311192349627" lon="-5.9689313433359645"><ele>21.0</ele><time>2026-04-03T07:52:12.006Z</time></trkpt><trkpt lat="43.563170726124305" lon="-5.968871537878025"><ele>21.0</ele><time>2026-04-03T07:52:13.006Z</time></trkpt><trkpt lat="43.5632325783641" lon="-5.968814591145093"><ele>21.0</ele><time>2026-04-03T07:52:14.006Z</time></trkpt><trkpt lat="43.563290980638364" lon="-5.968751804810042"><ele>21.0</ele><time>2026-04-03T07:52:15.006Z</time></trkpt><trkpt lat="43.56334037676792" lon="-5.96869719486652"><ele>21.0</ele><time>2026-04-03T07:52:16.006Z</time></trkpt><trkpt lat="43.56340738055136" lon="-5.968632626854707"><ele>21.0</ele><time>2026-04-03T07:52:17.006Z</time></trkpt><trkpt lat="43.563463870563986" lon="-5.968575096949707"><ele>21.0</ele><time>2026-04-03T07:52:18.006Z</time></trkpt><trkpt lat="43.56353290799506" lon="-5.968513772955418"><ele>21.0</ele><time>2026-04-03T07:52:19.006Z</time></trkpt><trkpt lat="43.56358045842775" lon="-5.968455086346893"><ele>21.0</ele><time>2026-04-03T07:52:20.006Z</time></trkpt><trkpt lat="43.56364054802517" lon="-5.96839432723508"><ele>21.0</ele><time>2026-04-03T07:52:21.006Z</time></trkpt><trkpt lat="43.56369978554796" lon="-5.968331927041049"><ele>21.0</ele><time>2026-04-03T07:52:22.006Z</time></trkpt><trkpt lat="43.56381762767324" lon="-5.968214242538509"><ele>21.0</ele><time>2026-04-03T07:52:24.006Z</time></trkpt><trkpt lat="43.56387721510613" lon="-5.968157578545693"><ele>21.0</ele><time>2026-04-03T07:52:25.006Z</time></trkpt><trkpt lat="43.563931076663835" lon="-5.968099193309349"><ele>21.0</ele><time>2026-04-03T07:52:26.006Z</time></trkpt><trkpt lat="43.56399072653765" lon="-5.968044423373087"><ele>19.5</ele><time>2026-04-03T07:52:27.006Z</time></trkpt><trkpt lat="43.56404062992894" lon="-5.9679849259710895"><ele>18.0</ele><time>2026-04-03T07:52:28.006Z</time></trkpt><trkpt lat="43.56410030509747" lon="-5.9679257497890505"><ele>16.5</ele><time>2026-04-03T07:52:29.006Z</time></trkpt><trkpt lat="43.56415370961916" lon="-5.967869680102046"><ele>15.0</ele><time>2026-04-03T07:52:30.006Z</time></trkpt><trkpt lat="43.56421177860558" lon="-5.967816600470383"><ele>13.5</ele><time>2026-04-03T07:52:31.006Z</time></trkpt><trkpt lat="43.564265195546085" lon="-5.96776190490676"><ele>12.0</ele><time>2026-04-03T07:52:32.006Z</time></trkpt><trkpt lat="43.56436242023325" lon="-5.967657507164289"><ele>12.0</ele><time>2026-04-03T07:52:34.006Z</time></trkpt><trkpt lat="43.56445961642206" lon="-5.967559102998083"><ele>12.0</ele><time>2026-04-03T07:52:36.006Z</time></trkpt><trkpt lat="43.564554384816184" lon="-5.9674615494451295"><ele>12.0</ele><time>2026-04-03T07:52:38.006Z</time></trkpt><trkpt lat="43.5646390230503" lon="-5.967370983538932"><ele>12.0</ele><time>2026-04-03T07:52:40.006Z</time></trkpt><trkpt lat="43.56472790588574" lon="-5.9672846551973455"><ele>12.0</ele><time>2026-04-03T07:52:42.006Z</time></trkpt><trkpt lat="43.56480969731956" lon="-5.96719980919587"><ele>12.0</ele><time>2026-04-03T07:52:44.006Z</time></trkpt><trkpt lat="43.56487061951643" lon="-5.96711628312742"><ele>12.0</ele><time>2026-04-03T07:52:46.006Z</time></trkpt><trkpt lat="43.56494986011255" lon="-5.967023994442081"><ele>12.0</ele><time>2026-04-03T07:52:48.006Z</time></trkpt><trkpt lat="43.56504777858699" lon="-5.966949745271863"><ele>12.0</ele><time>2026-04-03T07:52:50.006Z</time></trkpt><trkpt lat="43.56513174155981" lon="-5.966882022758706"><ele>12.0</ele><time>2026-04-03T07:52:52.006Z</time></trkpt><trkpt lat="43.565226739317126" lon="-5.966802674003416"><ele>12.0</ele><time>2026-04-03T07:52:54.006Z</time></trkpt><trkpt lat="43.56531373816345" lon="-5.966731999304216"><ele>12.0</ele><time>2026-04-03T07:52:56.006Z</time></trkpt><trkpt lat="43.56541676233364" lon="-5.966689003696701"><ele>12.0</ele><time>2026-04-03T07:52:58.006Z</time></trkpt><trkpt lat="43.565494021465355" lon="-5.966641964501286"><ele>12.0</ele><time>2026-04-03T07:53:00.008Z</time></trkpt><trkpt lat="43.56556037576877" lon="-5.966619572507072"><ele>12.0</ele><time>2026-04-03T07:53:01.008Z</time></trkpt><trkpt lat="43.56566285383418" lon="-5.96658724220856"><ele>12.0</ele><time>2026-04-03T07:53:03.008Z</time></trkpt><trkpt lat="43.56576012636897" lon="-5.966558895777597"><ele>12.0</ele><time>2026-04-03T07:53:05.008Z</time></trkpt><trkpt lat="43.56585132067194" lon="-5.9665106572947755"><ele>12.0</ele><time>2026-04-03T07:53:07.008Z</time></trkpt><trkpt lat="43.56593207031916" lon="-5.966454641697162"><ele>12.0</ele><time>2026-04-03T07:53:09.008Z</time></trkpt><trkpt lat="43.565990806434286" lon="-5.966375759612058"><ele>12.0</ele><time>2026-04-03T07:53:11.008Z</time></trkpt><trkpt lat="43.56604437063706" lon="-5.966283603711401"><ele>12.0</ele><time>2026-04-03T07:53:13.008Z</time></trkpt><trkpt lat="43.566105564813434" lon="-5.966190981923784"><ele>12.0</ele><time>2026-04-03T07:53:15.007Z</time></trkpt><trkpt lat="43.566136822131455" lon="-5.9660907031263335"><ele>12.0</ele><time>2026-04-03T07:53:17.007Z</time></trkpt><trkpt lat="43.56618907986949" lon="-5.965994602015404"><ele>12.0</ele><time>2026-04-03T07:53:19.007Z</time></trkpt><trkpt lat="43.56623401799013" lon="-5.96590918643199"><ele>12.0</ele><time>2026-04-03T07:53:21.007Z</time></trkpt><trkpt lat="43.566291011414805" lon="-5.965812343544949"><ele>12.8</ele><time>2026-04-03T07:53:23.007Z</time></trkpt><trkpt lat="43.56635003927442" lon="-5.9657172371320515"><ele>13.6</ele><time>2026-04-03T07:53:25.007Z</time></trkpt><trkpt lat="43.56641070408691" lon="-5.96561956026596"><ele>14.400000000000002</ele><time>2026-04-03T07:53:27.007Z</time></trkpt><trkpt lat="43.56647370765433" lon="-5.965533285598847"><ele>15.200000000000001</ele><time>2026-04-03T07:53:29.007Z</time></trkpt><trkpt lat="43.56655179689891" lon="-5.965441344454194"><ele>16.0</ele><time>2026-04-03T07:53:31.007Z</time></trkpt><trkpt lat="43.566611368113016" lon="-5.965357244812466"><ele>15.999999999999998</ele><time>2026-04-03T07:53:33.007Z</time></trkpt><trkpt lat="43.566681673836975" lon="-5.965278340687269"><ele>16.0</ele><time>2026-04-03T07:53:35.007Z</time></trkpt><trkpt lat="43.566747770128856" lon="-5.965195653923698"><ele>16.0</ele><time>2026-04-03T07:53:37.007Z</time></trkpt><trkpt lat="43.56681765383043" lon="-5.965120949285252"><ele>16.0</ele><time>2026-04-03T07:53:39.007Z</time></trkpt><trkpt lat="43.56688135806376" lon="-5.965043631446373"><ele>15.999999999999998</ele><time>2026-04-03T07:53:41.007Z</time></trkpt><trkpt lat="43.56695543658849" lon="-5.964970751990345"><ele>16.0</ele><time>2026-04-03T07:53:43.007Z</time></trkpt><trkpt lat="43.5670242730492" lon="-5.964892211228973"><ele>15.833333333333332</ele><time>2026-04-03T07:53:45.007Z</time></trkpt><trkpt lat="43.56709176333667" lon="-5.964822416513852"><ele>15.666666666666666</ele><time>2026-04-03T07:53:47.007Z</time></trkpt><trkpt lat="43.56716026384146" lon="-5.964753379846148"><ele>15.5</ele><time>2026-04-03T07:53:49.007Z</time></trkpt><trkpt lat="43.567224121076286" lon="-5.964687403744079"><ele>15.333333333333332</ele><time>2026-04-03T07:53:51.007Z</time></trkpt><trkpt lat="43.56729617453675" lon="-5.964608267950721"><ele>15.166666666666666</ele><time>2026-04-03T07:53:53.007Z</time></trkpt><trkpt lat="43.567383534560435" lon="-5.964532747851009"><ele>15.0</ele><time>2026-04-03T07:53:55.007Z</time></trkpt><trkpt lat="43.5674441711587" lon="-5.9644595820603845"><ele>15.0</ele><time>2026-04-03T07:53:57.007Z</time></trkpt><trkpt lat="43.56752854529259" lon="-5.964375619454395"><ele>15.0</ele><time>2026-04-03T07:53:59.007Z</time></trkpt><trkpt lat="43.56758581348611" lon="-5.9643167692552765"><ele>15.0</ele><time>2026-04-03T07:54:01.007Z</time></trkpt><trkpt lat="43.567644978737135" lon="-5.964240418858432"><ele>15.0</ele><time>2026-04-03T07:54:03.007Z</time></trkpt><trkpt lat="43.56773105138273" lon="-5.964158102789205"><ele>15.0</ele><time>2026-04-03T07:54:05.007Z</time></trkpt><trkpt lat="43.56780360955623" lon="-5.964085048166607"><ele>14.833333333333334</ele><time>2026-04-03T07:54:07.007Z</time></trkpt><trkpt lat="43.56787747200844" lon="-5.964022236547484"><ele>14.666666666666668</ele><time>2026-04-03T07:54:09.007Z</time></trkpt><trkpt lat="43.56795487326245" lon="-5.9639431015239985"><ele>14.5</ele><time>2026-04-03T07:54:11.007Z</time></trkpt><trkpt lat="43.568019447068245" lon="-5.96387548691571"><ele>14.333333333333334</ele><time>2026-04-03T07:54:13.007Z</time></trkpt><trkpt lat="43.56808328363559" lon="-5.963799129273691"><ele>14.166666666666668</ele><time>2026-04-03T07:54:15.007Z</time></trkpt><trkpt lat="43.56814527220006" lon="-5.963728062237101"><ele>14.0</ele><time>2026-04-03T07:54:17.007Z</time></trkpt><trkpt lat="43.56818254577612" lon="-5.963644307366418"><ele>14.000000000000002</ele><time>2026-04-03T07:54:19.007Z</time></trkpt><trkpt lat="43.56824900609725" lon="-5.9635683126336785"><ele>14.0</ele><time>2026-04-03T07:54:21.007Z</time></trkpt><trkpt lat="43.56831368990908" lon="-5.963500390284104"><ele>14.0</ele><time>2026-04-03T07:54:23.007Z</time></trkpt><trkpt lat="43.56837636651426" lon="-5.963432232413765"><ele>14.0</ele><time>2026-04-03T07:54:25.007Z</time></trkpt><trkpt lat="43.568456620553995" lon="-5.963365877440039"><ele>14.000000000000002</ele><time>2026-04-03T07:54:27.007Z</time></trkpt><trkpt lat="43.568531903575455" lon="-5.963304815016108"><ele>14.0</ele><time>2026-04-03T07:54:29.007Z</time></trkpt><trkpt lat="43.568597838471" lon="-5.963230507274129"><ele>13.666666666666668</ele><time>2026-04-03T07:54:31.007Z</time></trkpt><trkpt lat="43.568681904734376" lon="-5.963154506201983"><ele>13.333333333333334</ele><time>2026-04-03T07:54:33.006Z</time></trkpt><trkpt lat="43.56874883969425" lon="-5.963104889513148"><ele>13.0</ele><time>2026-04-03T07:54:35.006Z</time></trkpt><trkpt lat="43.568835979359704" lon="-5.963034064556861"><ele>12.666666666666668</ele><time>2026-04-03T07:54:37.006Z</time></trkpt><trkpt lat="43.56890830830538" lon="-5.962981195146059"><ele>12.333333333333334</ele><time>2026-04-03T07:54:39.006Z</time></trkpt><trkpt lat="43.56898263539074" lon="-5.962922025462387"><ele>12.0</ele><time>2026-04-03T07:54:41.006Z</time></trkpt><trkpt lat="43.56905174616253" lon="-5.962864285859788"><ele>12.0</ele><time>2026-04-03T07:54:43.006Z</time></trkpt><trkpt lat="43.569107893411235" lon="-5.962797764169875"><ele>12.0</ele><time>2026-04-03T07:54:45.006Z</time></trkpt><trkpt lat="43.569176980457144" lon="-5.962732039417131"><ele>12.0</ele><time>2026-04-03T07:54:47.006Z</time></trkpt><trkpt lat="43.56924937548235" lon="-5.962652060213025"><ele>12.0</ele><time>2026-04-03T07:54:50.006Z</time></trkpt><trkpt lat="43.56930763297587" lon="-5.962590142948855"><ele>12.0</ele><time>2026-04-03T07:54:52.006Z</time></trkpt><trkpt lat="43.56938868488094" lon="-5.9625256456217866"><ele>12.0</ele><time>2026-04-03T07:54:55.006Z</time></trkpt><trkpt lat="43.56946213810509" lon="-5.9624396653392635"><ele>12.142857142857142</ele><time>2026-04-03T07:54:58.006Z</time></trkpt><trkpt lat="43.569531633368435" lon="-5.962377024537123"><ele>12.285714285714285</ele><time>2026-04-03T07:55:01.006Z</time></trkpt><trkpt lat="43.56958372172488" lon="-5.962323071549276"><ele>12.428571428571427</ele><time>2026-04-03T07:55:03.006Z</time></trkpt><trkpt lat="43.56962790690181" lon="-5.9622593836822375"><ele>12.571428571428571</ele><time>2026-04-03T07:55:05.009Z</time></trkpt><trkpt lat="43.56969927720942" lon="-5.962201652668546"><ele>12.714285714285715</ele><time>2026-04-03T07:55:08.009Z</time></trkpt><trkpt lat="43.56976966358702" lon="-5.9621351566894125"><ele>12.857142857142856</ele><time>2026-04-03T07:55:11.008Z</time></trkpt><trkpt lat="43.569821108102225" lon="-5.962071891399431"><ele>13.0</ele><time>2026-04-03T07:55:13.008Z</time></trkpt><trkpt lat="43.56989572051992" lon="-5.962010701535038"><ele>12.999999999999998</ele><time>2026-04-03T07:55:16.009Z</time></trkpt><trkpt lat="43.5699468552527" lon="-5.961952341643137"><ele>13.0</ele><time>2026-04-03T07:55:18.009Z</time></trkpt><trkpt lat="43.57001436025783" lon="-5.961869898806358"><ele>13.0</ele><time>2026-04-03T07:55:21.009Z</time></trkpt><trkpt lat="43.57009153313338" lon="-5.9617900809140965"><ele>13.0</ele><time>2026-04-03T07:55:24.008Z</time></trkpt><trkpt lat="43.57016349379208" lon="-5.961708973003794"><ele>12.999999999999998</ele><time>2026-04-03T07:55:27.008Z</time></trkpt><trkpt lat="43.57024273760979" lon="-5.961647775414837"><ele>13.0</ele><time>2026-04-03T07:55:30.008Z</time></trkpt><trkpt lat="43.57029017019266" lon="-5.961589034543235"><ele>12.571428571428571</ele><time>2026-04-03T07:55:32.008Z</time></trkpt><trkpt lat="43.57033803344671" lon="-5.96152916630852"><ele>12.142857142857144</ele><time>2026-04-03T07:55:34.008Z</time></trkpt><trkpt lat="43.57042246385457" lon="-5.961459326449837"><ele>11.714285714285715</ele><time>2026-04-03T07:55:37.008Z</time></trkpt><trkpt lat="43.57047417390286" lon="-5.96140795298306"><ele>11.285714285714285</ele><time>2026-04-03T07:55:39.008Z</time></trkpt><trkpt lat="43.57052936025285" lon="-5.961357176630732"><ele>10.857142857142858</ele><time>2026-04-03T07:55:41.008Z</time></trkpt><trkpt lat="43.57058158375489" lon="-5.9613012636156215"><ele>10.428571428571429</ele><time>2026-04-03T07:55:43.008Z</time></trkpt><trkpt lat="43.57063126648339" lon="-5.961242710683965"><ele>10.0</ele><time>2026-04-03T07:55:45.008Z</time></trkpt><trkpt lat="43.57068666236777" lon="-5.961190651192669"><ele>10.0</ele><time>2026-04-03T07:55:47.008Z</time></trkpt><trkpt lat="43.57074491214575" lon="-5.961157522355984"><ele>10.0</ele><time>2026-04-03T07:55:49.008Z</time></trkpt><trkpt lat="43.57083106270194" lon="-5.961098869061736"><ele>10.0</ele><time>2026-04-03T07:55:52.008Z</time></trkpt><trkpt lat="43.57087771622403" lon="-5.9610074330625284"><ele>10.0</ele><time>2026-04-03T07:55:55.008Z</time></trkpt><trkpt lat="43.5709369140816" lon="-5.960909510361605"><ele>10.0</ele><time>2026-04-03T07:55:58.008Z</time></trkpt><trkpt lat="43.57099294898865" lon="-5.9608420370517745"><ele>10.0</ele><time>2026-04-03T07:56:00.008Z</time></trkpt><trkpt lat="43.57105177481069" lon="-5.960797190493637"><ele>10.0</ele><time>2026-04-03T07:56:02.008Z</time></trkpt><trkpt lat="43.57111065809543" lon="-5.960762095966055"><ele>10.0</ele><time>2026-04-03T07:56:04.008Z</time></trkpt><trkpt lat="43.57117598437569" lon="-5.960736452423694"><ele>10.0</ele><time>2026-04-03T07:56:06.008Z</time></trkpt><trkpt lat="43.57125539256017" lon="-5.9607099030162045"><ele>10.0</ele><time>2026-04-03T07:56:09.008Z</time></trkpt><trkpt lat="43.5713240037453" lon="-5.9607049032474535"><ele>10.0</ele><time>2026-04-03T07:56:11.008Z</time></trkpt><trkpt lat="43.57138745804066" lon="-5.960707501747582"><ele>10.0</ele><time>2026-04-03T07:56:13.008Z</time></trkpt><trkpt lat="43.57147137061704" lon="-5.960706070577773"><ele>10.0</ele><time>2026-04-03T07:56:16.008Z</time></trkpt><trkpt lat="43.5715461541817" lon="-5.960689944719018"><ele>10.0</ele><time>2026-04-03T07:56:18.008Z</time></trkpt><trkpt lat="43.57162445555614" lon="-5.960694355370668"><ele>10.0</ele><time>2026-04-03T07:56:21.008Z</time></trkpt><trkpt lat="43.571713319494954" lon="-5.960700022441089"><ele>10.0</ele><time>2026-04-03T07:56:24.008Z</time></trkpt><trkpt lat="43.571778458455114" lon="-5.960716751293718"><ele>10.0</ele><time>2026-04-03T07:56:26.008Z</time></trkpt><trkpt lat="43.57184346268656" lon="-5.960772031089691"><ele>10.0</ele><time>2026-04-03T07:56:29.008Z</time></trkpt><trkpt lat="43.57190469924698" lon="-5.960849356748022"><ele>10.0</ele><time>2026-04-03T07:56:32.008Z</time></trkpt><trkpt lat="43.57197717400198" lon="-5.9609283921666485"><ele>10.833333333333334</ele><time>2026-04-03T07:56:35.008Z</time></trkpt><trkpt lat="43.572056419892455" lon="-5.960998414200636"><ele>11.666666666666668</ele><time>2026-04-03T07:56:38.008Z</time></trkpt><trkpt lat="43.572100030577225" lon="-5.961094027936036"><ele>12.5</ele><time>2026-04-03T07:56:41.007Z</time></trkpt><trkpt lat="43.57204913858262" lon="-5.9612185948741185"><ele>13.333333333333334</ele><time>2026-04-03T07:56:43.007Z</time></trkpt><trkpt lat="43.57212449275999" lon="-5.961204896553896"><ele>14.166666666666666</ele><time>2026-04-03T07:56:48.007Z</time></trkpt><trkpt lat="43.572159132148755" lon="-5.961125715701121"><ele>15.0</ele><time>2026-04-03T07:57:00.007Z</time></trkpt><trkpt lat="43.572222459759686" lon="-5.961088540673759"><ele>15.0</ele><time>2026-04-03T07:57:08.007Z</time></trkpt><trkpt lat="43.57209271168278" lon="-5.961211827998035"><ele>15.0</ele><time>2026-04-03T07:58:54.574Z</time></trkpt><trkpt lat="43.57221198809978" lon="-5.961167855153986"><ele>15.0</ele><time>2026-04-03T07:59:19.462Z</time></trkpt><trkpt lat="43.572159737387445" lon="-5.961070496329457"><ele>15.0</ele><time>2026-04-03T07:59:20.691Z</time></trkpt><trkpt lat="43.572216489072595" lon="-5.960977925824767"><ele>15.0</ele><time>2026-04-03T07:59:27.165Z</time></trkpt><trkpt lat="43.572159286609214" lon="-5.961034570589964"><ele>15.0</ele><time>2026-04-03T08:01:25.006Z</time></trkpt><trkpt lat="43.572085601251395" lon="-5.961193489307918"><ele>15.0</ele><time>2026-04-03T08:01:28.008Z</time></trkpt><trkpt lat="43.57200606871085" lon="-5.961365676544814"><ele>15.0</ele><time>2026-04-03T08:01:29.008Z</time></trkpt><trkpt lat="43.572040835853734" lon="-5.9612835783754194"><ele>15.0</ele><time>2026-04-03T08:01:32.009Z</time></trkpt><trkpt lat="43.57207590976592" lon="-5.961193923566313"><ele>15.0</ele><time>2026-04-03T08:01:35.008Z</time></trkpt><trkpt lat="43.572125120602685" lon="-5.9611292925318535"><ele>15.0</ele><time>2026-04-03T08:01:37.008Z</time></trkpt><trkpt lat="43.57213753125939" lon="-5.961235034993054"><ele>15.0</ele><time>2026-04-03T08:01:48.008Z</time></trkpt><trkpt lat="43.57220302301819" lon="-5.961233351520467"><ele>15.0</ele><time>2026-04-03T08:01:56.008Z</time></trkpt><trkpt lat="43.57219522517914" lon="-5.961321744005061"><ele>15.0</ele><time>2026-04-03T08:02:01.008Z</time></trkpt><trkpt lat="43.57227948393365" lon="-5.961373148124962"><ele>15.0</ele><time>2026-04-03T08:02:05.008Z</time></trkpt><trkpt lat="43.572342571316874" lon="-5.961395756692623"><ele>15.0</ele><time>2026-04-03T08:02:08.008Z</time></trkpt><trkpt lat="43.572412710957344" lon="-5.961399116345322"><ele>15.0</ele><time>2026-04-03T08:02:11.008Z</time></trkpt><trkpt lat="43.572482890514976" lon="-5.9613594562728585"><ele>15.0</ele><time>2026-04-03T08:02:15.008Z</time></trkpt><trkpt lat="43.57253430989115" lon="-5.961268350436618"><ele>15.0</ele><time>2026-04-03T08:02:17.008Z</time></trkpt><trkpt lat="43.57257059876085" lon="-5.961190298985797"><ele>15.0</ele><time>2026-04-03T08:02:19.008Z</time></trkpt><trkpt lat="43.57259887065913" lon="-5.961085735740037"><ele>15.0</ele><time>2026-04-03T08:02:22.008Z</time></trkpt><trkpt lat="43.572602840971165" lon="-5.9609962311328655"><ele>15.0</ele><time>2026-04-03T08:02:24.008Z</time></trkpt><trkpt lat="43.57260614506312" lon="-5.960884750392645"><ele>14.166666666666666</ele><time>2026-04-03T08:02:26.008Z</time></trkpt><trkpt lat="43.57260901559947" lon="-5.960774528317147"><ele>13.333333333333334</ele><time>2026-04-03T08:02:28.008Z</time></trkpt><trkpt lat="43.572572535725" lon="-5.960679008571443"><ele>12.5</ele><time>2026-04-03T08:02:30.008Z</time></trkpt><trkpt lat="43.57260372592353" lon="-5.960581485235897"><ele>11.666666666666668</ele><time>2026-04-03T08:02:33.008Z</time></trkpt><trkpt lat="43.57260624570492" lon="-5.96048686175253"><ele>10.833333333333334</ele><time>2026-04-03T08:02:36.007Z</time></trkpt><trkpt lat="43.57259492221443" lon="-5.960377906860088"><ele>10.0</ele><time>2026-04-03T08:02:40.007Z</time></trkpt><trkpt lat="43.57255417213379" lon="-5.9602614583323525"><ele>10.0</ele><time>2026-04-03T08:02:43.007Z</time></trkpt><trkpt lat="43.5725282781978" lon="-5.960180166089892"><ele>10.0</ele><time>2026-04-03T08:02:45.007Z</time></trkpt><trkpt lat="43.57249197088732" lon="-5.960091824070672"><ele>10.0</ele><time>2026-04-03T08:02:47.007Z</time></trkpt><trkpt lat="43.57245039262696" lon="-5.960022562894793"><ele>10.0</ele><time>2026-04-03T08:02:49.007Z</time></trkpt><trkpt lat="43.57238200399224" lon="-5.959961219687243"><ele>10.0</ele><time>2026-04-03T08:02:52.007Z</time></trkpt><trkpt lat="43.57232329266067" lon="-5.959915543606794"><ele>10.0</ele><time>2026-04-03T08:02:54.007Z</time></trkpt><trkpt lat="43.572328510133744" lon="-5.959780258950721"><ele>9.333333333333334</ele><time>2026-04-03T08:02:56.007Z</time></trkpt><trkpt lat="43.57233496361899" lon="-5.959658636860584"><ele>8.666666666666668</ele><time>2026-04-03T08:02:58.007Z</time></trkpt><trkpt lat="43.57235232500165" lon="-5.959550858645942"><ele>8.0</ele><time>2026-04-03T08:03:00.007Z</time></trkpt><trkpt lat="43.572400091279306" lon="-5.9594646929130946"><ele>7.333333333333334</ele><time>2026-04-03T08:03:02.007Z</time></trkpt><trkpt lat="43.57244202145867" lon="-5.959364360721054"><ele>6.666666666666667</ele><time>2026-04-03T08:03:04.007Z</time></trkpt><trkpt lat="43.57248393411136" lon="-5.959266984582866"><ele>6.0</ele><time>2026-04-03T08:03:06.007Z</time></trkpt><trkpt lat="43.57253914784236" lon="-5.959165236177864"><ele>5.833333333333333</ele><time>2026-04-03T08:03:08.007Z</time></trkpt><trkpt lat="43.57258307468612" lon="-5.959051131251381"><ele>5.666666666666667</ele><time>2026-04-03T08:03:10.007Z</time></trkpt><trkpt lat="43.57263648985126" lon="-5.958943397533725"><ele>5.5</ele><time>2026-04-03T08:03:12.007Z</time></trkpt><trkpt lat="43.57267855089886" lon="-5.958846452729373"><ele>5.333333333333334</ele><time>2026-04-03T08:03:14.007Z</time></trkpt><trkpt lat="43.572721721443585" lon="-5.958749094344792"><ele>5.166666666666667</ele><time>2026-04-03T08:03:16.007Z</time></trkpt><trkpt lat="43.572760192897604" lon="-5.958630900097874"><ele>5.0</ele><time>2026-04-03T08:03:18.007Z</time></trkpt><trkpt lat="43.572804928121094" lon="-5.958546153162415"><ele>5.0</ele><time>2026-04-03T08:03:20.007Z</time></trkpt><trkpt lat="43.572837730598714" lon="-5.958466161644748"><ele>5.0</ele><time>2026-04-03T08:03:22.007Z</time></trkpt><trkpt lat="43.57289741361051" lon="-5.958373538260453"><ele>5.0</ele><time>2026-04-03T08:03:25.007Z</time></trkpt><trkpt lat="43.572929205231134" lon="-5.958293359723864"><ele>5.0</ele><time>2026-04-03T08:03:27.007Z</time></trkpt><trkpt lat="43.57296977486145" lon="-5.958224571459446"><ele>5.0</ele><time>2026-04-03T08:03:29.007Z</time></trkpt><trkpt lat="43.573015324500005" lon="-5.9581413025186025"><ele>5.0</ele><time>2026-04-03T08:03:32.008Z</time></trkpt><trkpt lat="43.573059095767064" lon="-5.95806839716649"><ele>5.0</ele><time>2026-04-03T08:03:34.008Z</time></trkpt><trkpt lat="43.57309212874711" lon="-5.95798821440843"><ele>5.0</ele><time>2026-04-03T08:03:36.008Z</time></trkpt><trkpt lat="43.57315278772291" lon="-5.95787332911743"><ele>5.0</ele><time>2026-04-03T08:03:39.008Z</time></trkpt><trkpt lat="43.57318749794511" lon="-5.957774776179105"><ele>5.0</ele><time>2026-04-03T08:03:41.008Z</time></trkpt><trkpt lat="43.57322517298065" lon="-5.957680210216902"><ele>5.0</ele><time>2026-04-03T08:03:43.008Z</time></trkpt><trkpt lat="43.57327674583343" lon="-5.957574093502802"><ele>5.0</ele><time>2026-04-03T08:03:45.008Z</time></trkpt><trkpt lat="43.57330722971244" lon="-5.957456224707582"><ele>5.0</ele><time>2026-04-03T08:03:47.008Z</time></trkpt><trkpt lat="43.57334424765314" lon="-5.957341535610731"><ele>5.0</ele><time>2026-04-03T08:03:49.008Z</time></trkpt><trkpt lat="43.573379528711115" lon="-5.95723350765966"><ele>5.0</ele><time>2026-04-03T08:03:51.008Z</time></trkpt><trkpt lat="43.57342118619392" lon="-5.9571251481074965"><ele>5.0</ele><time>2026-04-03T08:03:53.008Z</time></trkpt><trkpt lat="43.573457888664244" lon="-5.957018756054366"><ele>5.0</ele><time>2026-04-03T08:03:55.008Z</time></trkpt><trkpt lat="43.57348330496233" lon="-5.9569071479167315"><ele>5.0</ele><time>2026-04-03T08:03:57.008Z</time></trkpt><trkpt lat="43.573506119833134" lon="-5.956779735274014"><ele>5.0</ele><time>2026-04-03T08:03:59.008Z</time></trkpt><trkpt lat="43.57354060890409" lon="-5.956657293245152"><ele>5.0</ele><time>2026-04-03T08:04:01.008Z</time></trkpt><trkpt lat="43.5735674497974" lon="-5.956541161987079"><ele>5.0</ele><time>2026-04-03T08:04:03.008Z</time></trkpt><trkpt lat="43.573599869671376" lon="-5.9564322245771235"><ele>5.0</ele><time>2026-04-03T08:04:05.008Z</time></trkpt><trkpt lat="43.573622051658724" lon="-5.9563130786262155"><ele>5.0</ele><time>2026-04-03T08:04:07.008Z</time></trkpt><trkpt lat="43.57364954636471" lon="-5.956191731946611"><ele>5.0</ele><time>2026-04-03T08:04:09.008Z</time></trkpt><trkpt lat="43.57368089665967" lon="-5.956082523213653"><ele>5.0</ele><time>2026-04-03T08:04:11.008Z</time></trkpt><trkpt lat="43.57371025676457" lon="-5.955972757706559"><ele>5.333333333333334</ele><time>2026-04-03T08:04:13.008Z</time></trkpt><trkpt lat="43.57374493757733" lon="-5.955861976610599"><ele>5.666666666666667</ele><time>2026-04-03T08:04:15.008Z</time></trkpt><trkpt lat="43.57378795656381" lon="-5.955758987273661"><ele>6.0</ele><time>2026-04-03T08:04:17.008Z</time></trkpt><trkpt lat="43.57382381747992" lon="-5.9556607113408155"><ele>6.333333333333334</ele><time>2026-04-03T08:04:19.008Z</time></trkpt><trkpt lat="43.57386232007144" lon="-5.955561611303069"><ele>6.666666666666667</ele><time>2026-04-03T08:04:21.008Z</time></trkpt><trkpt lat="43.57391587569846" lon="-5.955470517168879"><ele>7.0</ele><time>2026-04-03T08:04:23.008Z</time></trkpt><trkpt lat="43.57395142126676" lon="-5.955379507197656"><ele>7.000000000000001</ele><time>2026-04-03T08:04:25.008Z</time></trkpt><trkpt lat="43.57396815571986" lon="-5.955275588123767"><ele>7.0</ele><time>2026-04-03T08:04:27.008Z</time></trkpt><trkpt lat="43.573958806239794" lon="-5.955168871184509"><ele>7.0</ele><time>2026-04-03T08:04:29.008Z</time></trkpt><trkpt lat="43.573945505085454" lon="-5.955054302740593"><ele>7.0</ele><time>2026-04-03T08:04:31.008Z</time></trkpt><trkpt lat="43.57390888382766" lon="-5.954939441576534"><ele>7.000000000000001</ele><time>2026-04-03T08:04:33.008Z</time></trkpt><trkpt lat="43.57388223184592" lon="-5.954838138658283"><ele>7.0</ele><time>2026-04-03T08:04:35.008Z</time></trkpt><trkpt lat="43.57384109455779" lon="-5.954733899702097"><ele>6.6</ele><time>2026-04-03T08:04:37.008Z</time></trkpt><trkpt lat="43.57379549439261" lon="-5.954616357809174"><ele>6.199999999999999</ele><time>2026-04-03T08:04:39.008Z</time></trkpt><trkpt lat="43.573742288659446" lon="-5.954513978721099"><ele>5.8</ele><time>2026-04-03T08:04:41.008Z</time></trkpt><trkpt lat="43.57369816426797" lon="-5.954404500937487"><ele>5.4</ele><time>2026-04-03T08:04:43.008Z</time></trkpt><trkpt lat="43.5736632603335" lon="-5.954294474552804"><ele>5.0</ele><time>2026-04-03T08:04:45.008Z</time></trkpt><trkpt lat="43.57362272334918" lon="-5.954180325364459"><ele>4.833333333333334</ele><time>2026-04-03T08:04:47.008Z</time></trkpt><trkpt lat="43.57359682467758" lon="-5.95406867858386"><ele>4.666666666666667</ele><time>2026-04-03T08:04:49.008Z</time></trkpt><trkpt lat="43.57355939704711" lon="-5.95396432556235"><ele>4.5</ele><time>2026-04-03T08:04:51.008Z</time></trkpt><trkpt lat="43.57353041506203" lon="-5.9538606165804175"><ele>4.333333333333333</ele><time>2026-04-03T08:04:53.008Z</time></trkpt><trkpt lat="43.57350549373854" lon="-5.953761602031911"><ele>4.166666666666666</ele><time>2026-04-03T08:04:55.007Z</time></trkpt><trkpt lat="43.57348373321966" lon="-5.953660297372719"><ele>4.0</ele><time>2026-04-03T08:04:57.007Z</time></trkpt><trkpt lat="43.57344650672374" lon="-5.953555202671026"><ele>4.0</ele><time>2026-04-03T08:04:59.007Z</time></trkpt><trkpt lat="43.573404842129904" lon="-5.953458903067728"><ele>4.0</ele><time>2026-04-03T08:05:01.007Z</time></trkpt><trkpt lat="43.573404900566715" lon="-5.953355482579128"><ele>4.0</ele><time>2026-04-03T08:05:03.007Z</time></trkpt><trkpt lat="43.57339321292023" lon="-5.9532141688915665"><ele>4.0</ele><time>2026-04-03T08:05:06.007Z</time></trkpt><trkpt lat="43.57334172925444" lon="-5.953093453730216"><ele>4.0</ele><time>2026-04-03T08:05:09.007Z</time></trkpt><trkpt lat="43.57331529490277" lon="-5.952962504708935"><ele>4.5</ele><time>2026-04-03T08:05:12.007Z</time></trkpt><trkpt lat="43.57329146883427" lon="-5.952870957997557"><ele>5.0</ele><time>2026-04-03T08:05:14.007Z</time></trkpt><trkpt lat="43.57328048153582" lon="-5.952780038602739"><ele>5.5</ele><time>2026-04-03T08:05:16.007Z</time></trkpt><trkpt lat="43.57323913182744" lon="-5.9526799180192755"><ele>6.0</ele><time>2026-04-03T08:05:18.007Z</time></trkpt><trkpt lat="43.5732079757064" lon="-5.952590509111454"><ele>6.500000000000001</ele><time>2026-04-03T08:05:20.007Z</time></trkpt><trkpt lat="43.57317549216115" lon="-5.9524895538758935"><ele>7.0</ele><time>2026-04-03T08:05:22.007Z</time></trkpt><trkpt lat="43.573128517079596" lon="-5.952384501768573"><ele>7.428571428571429</ele><time>2026-04-03T08:05:24.007Z</time></trkpt><trkpt lat="43.57309985502005" lon="-5.952290643954601"><ele>7.857142857142858</ele><time>2026-04-03T08:05:26.007Z</time></trkpt><trkpt lat="43.57306946465495" lon="-5.952197224153682"><ele>8.285714285714285</ele><time>2026-04-03T08:05:28.007Z</time></trkpt><trkpt lat="43.573037781536414" lon="-5.952103538278711"><ele>8.714285714285715</ele><time>2026-04-03T08:05:30.007Z</time></trkpt><trkpt lat="43.57300168402641" lon="-5.95200965775701"><ele>9.142857142857142</ele><time>2026-04-03T08:05:32.007Z</time></trkpt><trkpt lat="43.57297436768536" lon="-5.951919219275335"><ele>9.571428571428571</ele><time>2026-04-03T08:05:34.007Z</time></trkpt><trkpt lat="43.57295689762274" lon="-5.951823230431508"><ele>10.0</ele><time>2026-04-03T08:05:36.007Z</time></trkpt><trkpt lat="43.5729254305076" lon="-5.951711516762808"><ele>9.333333333333334</ele><time>2026-04-03T08:05:39.008Z</time></trkpt><trkpt lat="43.57290913026763" lon="-5.951602736251308"><ele>8.666666666666668</ele><time>2026-04-03T08:05:41.009Z</time></trkpt><trkpt lat="43.57289427321245" lon="-5.951496787568208"><ele>8.0</ele><time>2026-04-03T08:05:43.008Z</time></trkpt><trkpt lat="43.572900584348275" lon="-5.951396940914916"><ele>7.333333333333334</ele><time>2026-04-03T08:05:45.008Z</time></trkpt><trkpt lat="43.572905371315976" lon="-5.951296142292746"><ele>6.666666666666667</ele><time>2026-04-03T08:05:47.008Z</time></trkpt><trkpt lat="43.57291699121083" lon="-5.951191942907798"><ele>6.0</ele><time>2026-04-03T08:05:49.008Z</time></trkpt><trkpt lat="43.57293796466336" lon="-5.951096838698047"><ele>6.0</ele><time>2026-04-03T08:05:51.008Z</time></trkpt><trkpt lat="43.57295124729724" lon="-5.951008748817442"><ele>6.0</ele><time>2026-04-03T08:05:53.007Z</time></trkpt><trkpt lat="43.57295023227907" lon="-5.950892606790671"><ele>6.0</ele><time>2026-04-03T08:05:55.007Z</time></trkpt><trkpt lat="43.57300340673819" lon="-5.950798813755445"><ele>6.0</ele><time>2026-04-03T08:05:57.007Z</time></trkpt><trkpt lat="43.573057692735304" lon="-5.950698574158295"><ele>6.0</ele><time>2026-04-03T08:05:59.007Z</time></trkpt><trkpt lat="43.57309121273883" lon="-5.950619831698206"><ele>6.0</ele><time>2026-04-03T08:06:01.007Z</time></trkpt><trkpt lat="43.57310749337257" lon="-5.950486934595423"><ele>6.0</ele><time>2026-04-03T08:06:03.007Z</time></trkpt><trkpt lat="43.57312099599812" lon="-5.950380486864658"><ele>6.0</ele><time>2026-04-03T08:06:05.007Z</time></trkpt><trkpt lat="43.57313879049067" lon="-5.950266541435544"><ele>6.0</ele><time>2026-04-03T08:06:07.007Z</time></trkpt><trkpt lat="43.57314377842021" lon="-5.9501646073306915"><ele>6.0</ele><time>2026-04-03T08:06:09.007Z</time></trkpt><trkpt lat="43.57316826553285" lon="-5.950068484518892"><ele>6.0</ele><time>2026-04-03T08:06:11.007Z</time></trkpt><trkpt lat="43.573174991119046" lon="-5.94995845757069"><ele>6.0</ele><time>2026-04-03T08:06:13.007Z</time></trkpt><trkpt lat="43.57318877135168" lon="-5.949818038843698"><ele>6.0</ele><time>2026-04-03T08:06:16.007Z</time></trkpt><trkpt lat="43.57320603846775" lon="-5.94971068598495"><ele>6.0</ele><time>2026-04-03T08:06:18.007Z</time></trkpt><trkpt lat="43.57322626195965" lon="-5.949610237003837"><ele>6.0</ele><time>2026-04-03T08:06:20.007Z</time></trkpt><trkpt lat="43.573249214588806" lon="-5.949505567065004"><ele>6.0</ele><time>2026-04-03T08:06:22.007Z</time></trkpt><trkpt lat="43.573269651740816" lon="-5.949409831840678"><ele>6.0</ele><time>2026-04-03T08:06:24.007Z</time></trkpt><trkpt lat="43.573304371423525" lon="-5.949320673957976"><ele>6.0</ele><time>2026-04-03T08:06:26.007Z</time></trkpt><trkpt lat="43.57334847456869" lon="-5.949232967167104"><ele>5.7142857142857135</ele><time>2026-04-03T08:06:28.007Z</time></trkpt><trkpt lat="43.57338610289167" lon="-5.949144326991766"><ele>5.428571428571429</ele><time>2026-04-03T08:06:30.007Z</time></trkpt><trkpt lat="43.57339249050085" lon="-5.949017617353399"><ele>5.142857142857142</ele><time>2026-04-03T08:06:32.007Z</time></trkpt><trkpt lat="43.573398567878556" lon="-5.948924732681625"><ele>4.857142857142857</ele><time>2026-04-03T08:06:34.007Z</time></trkpt><trkpt lat="43.57342032107208" lon="-5.94883555821212"><ele>4.571428571428571</ele><time>2026-04-03T08:06:36.007Z</time></trkpt><trkpt lat="43.57343054834295" lon="-5.948737737615499"><ele>4.285714285714286</ele><time>2026-04-03T08:06:38.007Z</time></trkpt><trkpt lat="43.57343852387664" lon="-5.948648366559825"><ele>4.0</ele><time>2026-04-03T08:06:40.007Z</time></trkpt><trkpt lat="43.57344125362311" lon="-5.948505161345273"><ele>3.9999999999999996</ele><time>2026-04-03T08:06:43.007Z</time></trkpt><trkpt lat="43.57346163551125" lon="-5.9484169911754625"><ele>4.0</ele><time>2026-04-03T08:06:45.007Z</time></trkpt><trkpt lat="43.573486015875055" lon="-5.948331261220402"><ele>4.0</ele><time>2026-04-03T08:06:47.007Z</time></trkpt><trkpt lat="43.57350965811066" lon="-5.948239077214098"><ele>4.0</ele><time>2026-04-03T08:06:49.007Z</time></trkpt><trkpt lat="43.57355628835775" lon="-5.948139508277789"><ele>3.9999999999999996</ele><time>2026-04-03T08:06:51.007Z</time></trkpt><trkpt lat="43.573590182191055" lon="-5.948042003535852"><ele>4.0</ele><time>2026-04-03T08:06:53.007Z</time></trkpt><trkpt lat="43.57362525649303" lon="-5.947941344446409"><ele>3.833333333333333</ele><time>2026-04-03T08:06:55.007Z</time></trkpt><trkpt lat="43.573673968117696" lon="-5.947843279402496"><ele>3.6666666666666665</ele><time>2026-04-03T08:06:57.007Z</time></trkpt><trkpt lat="43.57369341751426" lon="-5.947758273543411"><ele>3.5</ele><time>2026-04-03T08:06:59.007Z</time></trkpt><trkpt lat="43.57373619647912" lon="-5.947665487653778"><ele>3.333333333333333</ele><time>2026-04-03T08:07:01.007Z</time></trkpt><trkpt lat="43.57376583807076" lon="-5.947572032398022"><ele>3.1666666666666665</ele><time>2026-04-03T08:07:03.007Z</time></trkpt><trkpt lat="43.57381105509025" lon="-5.9475025836577915"><ele>3.0</ele><time>2026-04-03T08:07:05.007Z</time></trkpt><trkpt lat="43.57386462895965" lon="-5.947369841283868"><ele>3.3333333333333335</ele><time>2026-04-03T08:07:08.007Z</time></trkpt><trkpt lat="43.57390053558555" lon="-5.9472492848255545"><ele>3.666666666666667</ele><time>2026-04-03T08:07:10.006Z</time></trkpt><trkpt lat="43.57391398071158" lon="-5.9471472588657255"><ele>4.0</ele><time>2026-04-03T08:07:12.006Z</time></trkpt><trkpt lat="43.57390640513094" lon="-5.947038426020443"><ele>4.333333333333334</ele><time>2026-04-03T08:07:14.006Z</time></trkpt><trkpt lat="43.57390452078722" lon="-5.946920897467879"><ele>4.666666666666667</ele><time>2026-04-03T08:07:16.006Z</time></trkpt><trkpt lat="43.57389698203057" lon="-5.946806969757356"><ele>5.0</ele><time>2026-04-03T08:07:18.006Z</time></trkpt><trkpt lat="43.573909293740115" lon="-5.946697086444965"><ele>5.166666666666667</ele><time>2026-04-03T08:07:20.006Z</time></trkpt><trkpt lat="43.57389594198843" lon="-5.946577204895917"><ele>5.333333333333334</ele><time>2026-04-03T08:07:22.006Z</time></trkpt><trkpt lat="43.57387895379165" lon="-5.946461390181094"><ele>5.5</ele><time>2026-04-03T08:07:24.006Z</time></trkpt><trkpt lat="43.57386670707558" lon="-5.946346004022776"><ele>5.666666666666667</ele><time>2026-04-03T08:07:26.006Z</time></trkpt><trkpt lat="43.57386614387339" lon="-5.946244086508255"><ele>5.833333333333333</ele><time>2026-04-03T08:07:28.006Z</time></trkpt><trkpt lat="43.573873501566396" lon="-5.946143409073057"><ele>6.0</ele><time>2026-04-03T08:07:30.006Z</time></trkpt><trkpt lat="43.57390269912317" lon="-5.946043184837487"><ele>6.0</ele><time>2026-04-03T08:07:32.006Z</time></trkpt><trkpt lat="43.57393892745984" lon="-5.945948582066053"><ele>6.0</ele><time>2026-04-03T08:07:34.006Z</time></trkpt><trkpt lat="43.57397398592359" lon="-5.945855238574193"><ele>6.0</ele><time>2026-04-03T08:07:36.006Z</time></trkpt><trkpt lat="43.5740104605957" lon="-5.945768355552774"><ele>6.0</ele><time>2026-04-03T08:07:38.006Z</time></trkpt><trkpt lat="43.57404292717511" lon="-5.945680315699313"><ele>6.0</ele><time>2026-04-03T08:07:40.006Z</time></trkpt><trkpt lat="43.574079566241636" lon="-5.945591638399881"><ele>6.0</ele><time>2026-04-03T08:07:42.006Z</time></trkpt><trkpt lat="43.57412826767057" lon="-5.945505416353823"><ele>5.833333333333333</ele><time>2026-04-03T08:07:44.009Z</time></trkpt><trkpt lat="43.57418194857799" lon="-5.945416865271967"><ele>5.666666666666667</ele><time>2026-04-03T08:07:46.009Z</time></trkpt><trkpt lat="43.574233778342254" lon="-5.945321227939004"><ele>5.5</ele><time>2026-04-03T08:07:48.008Z</time></trkpt><trkpt lat="43.5742813200732" lon="-5.945231581247899"><ele>5.333333333333334</ele><time>2026-04-03T08:07:50.008Z</time></trkpt><trkpt lat="43.57433421717305" lon="-5.945143364902091"><ele>5.166666666666667</ele><time>2026-04-03T08:07:52.008Z</time></trkpt><trkpt lat="43.57437204861277" lon="-5.945052518971707"><ele>5.0</ele><time>2026-04-03T08:07:54.008Z</time></trkpt><trkpt lat="43.574429578549235" lon="-5.944946025295609"><ele>5.166666666666667</ele><time>2026-04-03T08:07:56.008Z</time></trkpt><trkpt lat="43.57447631699731" lon="-5.9448524135664975"><ele>5.333333333333334</ele><time>2026-04-03T08:07:58.008Z</time></trkpt><trkpt lat="43.574531832974635" lon="-5.944747106362676"><ele>5.5</ele><time>2026-04-03T08:08:00.008Z</time></trkpt><trkpt lat="43.5745771370375" lon="-5.944679961411062"><ele>5.666666666666667</ele><time>2026-04-03T08:08:02.008Z</time></trkpt><trkpt lat="43.57461965170231" lon="-5.944613808033656"><ele>5.833333333333333</ele><time>2026-04-03T08:08:04.008Z</time></trkpt><trkpt lat="43.574688624898855" lon="-5.944534864105006"><ele>6.0</ele><time>2026-04-03T08:08:07.008Z</time></trkpt><trkpt lat="43.574739505707136" lon="-5.944444369931888"><ele>6.0</ele><time>2026-04-03T08:08:09.008Z</time></trkpt><trkpt lat="43.57478282973511" lon="-5.944338970070804"><ele>6.0</ele><time>2026-04-03T08:08:11.008Z</time></trkpt><trkpt lat="43.57483345944327" lon="-5.944234707874685"><ele>6.0</ele><time>2026-04-03T08:08:14.008Z</time></trkpt><trkpt lat="43.5748750071617" lon="-5.944141207398402"><ele>6.0</ele><time>2026-04-03T08:08:16.008Z</time></trkpt><trkpt lat="43.57491492700611" lon="-5.944060608909219"><ele>6.0</ele><time>2026-04-03T08:08:18.008Z</time></trkpt><trkpt lat="43.57494791032157" lon="-5.943972307390365"><ele>6.0</ele><time>2026-04-03T08:08:20.008Z</time></trkpt><trkpt lat="43.574980640301" lon="-5.943858225026556"><ele>7.0</ele><time>2026-04-03T08:08:22.008Z</time></trkpt><trkpt lat="43.57501320076715" lon="-5.9437277508194635"><ele>8.0</ele><time>2026-04-03T08:08:24.007Z</time></trkpt><trkpt lat="43.57503618216311" lon="-5.943590918716311"><ele>9.0</ele><time>2026-04-03T08:08:26.007Z</time></trkpt><trkpt lat="43.57506748424426" lon="-5.9434661650731195"><ele>10.0</ele><time>2026-04-03T08:08:28.007Z</time></trkpt><trkpt lat="43.57508617050912" lon="-5.943332734750979"><ele>11.0</ele><time>2026-04-03T08:08:30.007Z</time></trkpt><trkpt lat="43.575076457813886" lon="-5.943226218712892"><ele>11.0</ele><time>2026-04-03T08:08:32.007Z</time></trkpt><trkpt lat="43.575090061762154" lon="-5.9431113653358"><ele>11.0</ele><time>2026-04-03T08:08:34.007Z</time></trkpt><trkpt lat="43.575067154940875" lon="-5.942989953014668"><ele>11.0</ele><time>2026-04-03T08:08:36.007Z</time></trkpt><trkpt lat="43.57506648472989" lon="-5.942873396342777"><ele>11.0</ele><time>2026-04-03T08:08:38.007Z</time></trkpt><trkpt lat="43.57505599270914" lon="-5.94276968393011"><ele>11.0</ele><time>2026-04-03T08:08:40.007Z</time></trkpt><trkpt lat="43.57505710120161" lon="-5.94266175081029"><ele>11.0</ele><time>2026-04-03T08:08:42.007Z</time></trkpt><trkpt lat="43.575060058555216" lon="-5.9425563840197855"><ele>10.571428571428571</ele><time>2026-04-03T08:08:44.007Z</time></trkpt><trkpt lat="43.5750604482646" lon="-5.942467375943319"><ele>10.142857142857142</ele><time>2026-04-03T08:08:46.007Z</time></trkpt><trkpt lat="43.57509754634225" lon="-5.94238496803136"><ele>9.714285714285714</ele><time>2026-04-03T08:08:49.007Z</time></trkpt><trkpt lat="43.57513868533186" lon="-5.942318244049738"><ele>9.285714285714285</ele><time>2026-04-03T08:08:52.007Z</time></trkpt><trkpt lat="43.57512205972314" lon="-5.942208268339093"><ele>8.857142857142856</ele><time>2026-04-03T08:08:56.007Z</time></trkpt><trkpt lat="43.57510621131458" lon="-5.942118125854664"><ele>8.428571428571429</ele><time>2026-04-03T08:09:00.007Z</time></trkpt><trkpt lat="43.57511619700482" lon="-5.942024933506566"><ele>8.0</ele><time>2026-04-03T08:09:04.007Z</time></trkpt><trkpt lat="43.575106543439716" lon="-5.941902458581861"><ele>7.999999999999999</ele><time>2026-04-03T08:09:07.007Z</time></trkpt><trkpt lat="43.57506933591394" lon="-5.941814215924994"><ele>8.0</ele><time>2026-04-03T08:09:09.007Z</time></trkpt><trkpt lat="43.57504656297518" lon="-5.941712688679999"><ele>8.0</ele><time>2026-04-03T08:09:12.007Z</time></trkpt><trkpt lat="43.575024948489975" lon="-5.9415878272633815"><ele>8.0</ele><time>2026-04-03T08:09:16.007Z</time></trkpt><trkpt lat="43.575014579796125" lon="-5.941501188173188"><ele>7.999999999999999</ele><time>2026-04-03T08:09:19.007Z</time></trkpt><trkpt lat="43.575049222297615" lon="-5.941397619285586"><ele>8.0</ele><time>2026-04-03T08:09:21.007Z</time></trkpt><trkpt lat="43.57511527560491" lon="-5.941272434994849"><ele>7.833333333333333</ele><time>2026-04-03T08:09:23.007Z</time></trkpt><trkpt lat="43.575147995336664" lon="-5.941130893795022"><ele>7.666666666666666</ele><time>2026-04-03T08:09:25.007Z</time></trkpt><trkpt lat="43.57515324763755" lon="-5.941029014401096"><ele>7.5</ele><time>2026-04-03T08:09:27.007Z</time></trkpt><trkpt lat="43.57515997529434" lon="-5.940913267868597"><ele>7.333333333333334</ele><time>2026-04-03T08:09:29.007Z</time></trkpt><trkpt lat="43.575129523703964" lon="-5.940792498906419"><ele>7.166666666666667</ele><time>2026-04-03T08:09:31.007Z</time></trkpt><trkpt lat="43.575093049701756" lon="-5.940687806494418"><ele>7.0</ele><time>2026-04-03T08:09:33.007Z</time></trkpt><trkpt lat="43.575056008131874" lon="-5.9405946011644"><ele>7.000000000000001</ele><time>2026-04-03T08:09:35.007Z</time></trkpt><trkpt lat="43.57500670186844" lon="-5.940504271178912"><ele>7.0</ele><time>2026-04-03T08:09:37.007Z</time></trkpt><trkpt lat="43.575000690076" lon="-5.94038501959178"><ele>7.0</ele><time>2026-04-03T08:09:40.007Z</time></trkpt><trkpt lat="43.57498481917183" lon="-5.940299830142864"><ele>7.0</ele><time>2026-04-03T08:09:42.006Z</time></trkpt><trkpt lat="43.57497703316653" lon="-5.940198676336326"><ele>7.000000000000001</ele><time>2026-04-03T08:09:44.006Z</time></trkpt><trkpt lat="43.57494640613646" lon="-5.940086361709809"><ele>7.0</ele><time>2026-04-03T08:09:46.006Z</time></trkpt><trkpt lat="43.57496518493621" lon="-5.939973430949942"><ele>7.000000000000001</ele><time>2026-04-03T08:09:49.009Z</time></trkpt><trkpt lat="43.57494681658427" lon="-5.939853632570508"><ele>7.0</ele><time>2026-04-03T08:09:52.008Z</time></trkpt><trkpt lat="43.574951806302245" lon="-5.939717522304742"><ele>7.0</ele><time>2026-04-03T08:09:55.009Z</time></trkpt><trkpt lat="43.574971578903046" lon="-5.939626885948753"><ele>7.0</ele><time>2026-04-03T08:09:57.008Z</time></trkpt><trkpt lat="43.574983270274885" lon="-5.939499240751182"><ele>7.000000000000001</ele><time>2026-04-03T08:10:00.009Z</time></trkpt><trkpt lat="43.57498068387692" lon="-5.939411361011551"><ele>7.0</ele><time>2026-04-03T08:10:02.009Z</time></trkpt><trkpt lat="43.574977931210036" lon="-5.939323593668198"><ele>7.333333333333334</ele><time>2026-04-03T08:10:04.009Z</time></trkpt><trkpt lat="43.57495181734975" lon="-5.939197017141424"><ele>7.666666666666667</ele><time>2026-04-03T08:10:07.009Z</time></trkpt><trkpt lat="43.57492368996902" lon="-5.9391063338332035"><ele>8.0</ele><time>2026-04-03T08:10:09.009Z</time></trkpt><trkpt lat="43.57487838148104" lon="-5.939000903094314"><ele>8.333333333333334</ele><time>2026-04-03T08:10:12.009Z</time></trkpt><trkpt lat="43.57487960213902" lon="-5.938890728913495"><ele>8.666666666666666</ele><time>2026-04-03T08:10:15.009Z</time></trkpt><trkpt lat="43.574908282173894" lon="-5.938788279914655"><ele>9.0</ele><time>2026-04-03T08:10:18.009Z</time></trkpt><trkpt lat="43.574905738560986" lon="-5.938692557264405"><ele>9.0</ele><time>2026-04-03T08:10:20.009Z</time></trkpt><trkpt lat="43.574882180929606" lon="-5.9385837530846795"><ele>9.0</ele><time>2026-04-03T08:10:23.009Z</time></trkpt><trkpt lat="43.574830590528954" lon="-5.93851223142704"><ele>9.0</ele><time>2026-04-03T08:10:25.009Z</time></trkpt><trkpt lat="43.57481576843576" lon="-5.938391272859374"><ele>9.0</ele><time>2026-04-03T08:10:27.009Z</time></trkpt><trkpt lat="43.57475731104113" lon="-5.938314334602128"><ele>9.0</ele><time>2026-04-03T08:10:29.009Z</time></trkpt><trkpt lat="43.574761282418294" lon="-5.938167272740769"><ele>9.0</ele><time>2026-04-03T08:10:31.009Z</time></trkpt><trkpt lat="43.574757888887774" lon="-5.938016270595257"><ele>9.0</ele><time>2026-04-03T08:10:33.009Z</time></trkpt><trkpt lat="43.574762130566725" lon="-5.937859779324389"><ele>9.0</ele><time>2026-04-03T08:10:35.009Z</time></trkpt><trkpt lat="43.57477674502805" lon="-5.9377567578453165"><ele>9.0</ele><time>2026-04-03T08:10:36.009Z</time></trkpt><trkpt lat="43.574757659944225" lon="-5.9376162039140254"><ele>9.0</ele><time>2026-04-03T08:10:38.009Z</time></trkpt><trkpt lat="43.57468723625709" lon="-5.937534981329652"><ele>9.0</ele><time>2026-04-03T08:10:40.009Z</time></trkpt><trkpt lat="43.57462395822781" lon="-5.93743754768554"><ele>9.2</ele><time>2026-04-03T08:10:42.009Z</time></trkpt><trkpt lat="43.57457076205223" lon="-5.937339639985997"><ele>9.4</ele><time>2026-04-03T08:10:44.009Z</time></trkpt><trkpt lat="43.57454652651862" lon="-5.937211987880923"><ele>9.6</ele><time>2026-04-03T08:10:46.009Z</time></trkpt><trkpt lat="43.574528881313896" lon="-5.937075909806859"><ele>9.8</ele><time>2026-04-03T08:10:48.009Z</time></trkpt><trkpt lat="43.574546814510974" lon="-5.936941217717492"><ele>10.0</ele><time>2026-04-03T08:10:50.009Z</time></trkpt><trkpt lat="43.574546016485954" lon="-5.936816292307609"><ele>9.8</ele><time>2026-04-03T08:10:52.009Z</time></trkpt><trkpt lat="43.574540771162916" lon="-5.936696480934487"><ele>9.6</ele><time>2026-04-03T08:10:54.008Z</time></trkpt><trkpt lat="43.574533299595345" lon="-5.93657456133145"><ele>9.4</ele><time>2026-04-03T08:10:56.008Z</time></trkpt><trkpt lat="43.57452160744454" lon="-5.936428010086146"><ele>9.2</ele><time>2026-04-03T08:10:58.008Z</time></trkpt><trkpt lat="43.57450799357253" lon="-5.936269163082662"><ele>9.0</ele><time>2026-04-03T08:11:00.008Z</time></trkpt><trkpt lat="43.57448749655608" lon="-5.936134078538408"><ele>8.833333333333334</ele><time>2026-04-03T08:11:02.008Z</time></trkpt><trkpt lat="43.57446548081218" lon="-5.936002525450732"><ele>8.666666666666666</ele><time>2026-04-03T08:11:04.008Z</time></trkpt><trkpt lat="43.574467230505824" lon="-5.935878233717226"><ele>8.5</ele><time>2026-04-03T08:11:06.008Z</time></trkpt><trkpt lat="43.57445909351489" lon="-5.935758860289422"><ele>8.333333333333332</ele><time>2026-04-03T08:11:08.008Z</time></trkpt><trkpt lat="43.57445289054135" lon="-5.935659239170476"><ele>8.166666666666666</ele><time>2026-04-03T08:11:10.008Z</time></trkpt><trkpt lat="43.57445482266617" lon="-5.935565033366212"><ele>8.0</ele><time>2026-04-03T08:11:12.008Z</time></trkpt><trkpt lat="43.574443774721495" lon="-5.935432972578782"><ele>7.999999999999999</ele><time>2026-04-03T08:11:14.008Z</time></trkpt><trkpt lat="43.574447042608185" lon="-5.935318557740454"><ele>8.0</ele><time>2026-04-03T08:11:16.008Z</time></trkpt><trkpt lat="43.57444793179257" lon="-5.935215406123796"><ele>8.0</ele><time>2026-04-03T08:11:18.008Z</time></trkpt><trkpt lat="43.574450747124665" lon="-5.935101220262928"><ele>8.0</ele><time>2026-04-03T08:11:20.008Z</time></trkpt><trkpt lat="43.57445434532808" lon="-5.934970005935983"><ele>7.999999999999999</ele><time>2026-04-03T08:11:22.008Z</time></trkpt><trkpt lat="43.57444723279879" lon="-5.934853695388387"><ele>8.0</ele><time>2026-04-03T08:11:24.008Z</time></trkpt><trkpt lat="43.57443146494558" lon="-5.934730161346745"><ele>7.999999999999999</ele><time>2026-04-03T08:11:26.008Z</time></trkpt><trkpt lat="43.57442255738139" lon="-5.934617096987386"><ele>8.0</ele><time>2026-04-03T08:11:28.008Z</time></trkpt><trkpt lat="43.5744082853811" lon="-5.934487183494966"><ele>8.0</ele><time>2026-04-03T08:11:30.008Z</time></trkpt><trkpt lat="43.574397881004664" lon="-5.93436773465976"><ele>8.0</ele><time>2026-04-03T08:11:32.008Z</time></trkpt><trkpt lat="43.5743942369969" lon="-5.934244361130149"><ele>7.999999999999999</ele><time>2026-04-03T08:11:34.008Z</time></trkpt><trkpt lat="43.57437599346084" lon="-5.934126746353258"><ele>8.0</ele><time>2026-04-03T08:11:36.008Z</time></trkpt><trkpt lat="43.57436238930402" lon="-5.934015457022783"><ele>7.999999999999999</ele><time>2026-04-03T08:11:38.008Z</time></trkpt><trkpt lat="43.574348743633934" lon="-5.933913183260668"><ele>8.0</ele><time>2026-04-03T08:11:40.008Z</time></trkpt><trkpt lat="43.57434143476176" lon="-5.933813988132311"><ele>8.0</ele><time>2026-04-03T08:11:42.008Z</time></trkpt><trkpt lat="43.57433523715876" lon="-5.933712138711296"><ele>8.0</ele><time>2026-04-03T08:11:44.008Z</time></trkpt><trkpt lat="43.57432422931294" lon="-5.933598682515192"><ele>7.999999999999999</ele><time>2026-04-03T08:11:46.008Z</time></trkpt><trkpt lat="43.574326776324654" lon="-5.933486558638066"><ele>8.0</ele><time>2026-04-03T08:11:48.008Z</time></trkpt><trkpt lat="43.574326483281574" lon="-5.933361516017637"><ele>8.166666666666666</ele><time>2026-04-03T08:11:50.008Z</time></trkpt><trkpt lat="43.57431280910729" lon="-5.93324208467084"><ele>8.333333333333332</ele><time>2026-04-03T08:11:52.008Z</time></trkpt><trkpt lat="43.57430018769299" lon="-5.9331198782878145"><ele>8.5</ele><time>2026-04-03T08:11:54.008Z</time></trkpt><trkpt lat="43.57428720894794" lon="-5.933008834733522"><ele>8.666666666666666</ele><time>2026-04-03T08:11:56.009Z</time></trkpt><trkpt lat="43.57427505853212" lon="-5.932899464638957"><ele>8.833333333333334</ele><time>2026-04-03T08:11:58.01Z</time></trkpt><trkpt lat="43.57427132367333" lon="-5.932795368991295"><ele>9.0</ele><time>2026-04-03T08:12:00.009Z</time></trkpt><trkpt lat="43.57425985415707" lon="-5.9326871445262785"><ele>9.0</ele><time>2026-04-03T08:12:02.009Z</time></trkpt><trkpt lat="43.57425103588655" lon="-5.932576262385079"><ele>9.0</ele><time>2026-04-03T08:12:04.009Z</time></trkpt><trkpt lat="43.574247264883816" lon="-5.932462470915337"><ele>9.0</ele><time>2026-04-03T08:12:06.008Z</time></trkpt><trkpt lat="43.574240970100284" lon="-5.932351213415227"><ele>9.0</ele><time>2026-04-03T08:12:08.009Z</time></trkpt><trkpt lat="43.57423395273184" lon="-5.932245213886205"><ele>9.0</ele><time>2026-04-03T08:12:10.009Z</time></trkpt><trkpt lat="43.5742260280608" lon="-5.932148021494557"><ele>9.0</ele><time>2026-04-03T08:12:12.009Z</time></trkpt><trkpt lat="43.57421641315699" lon="-5.932046568499342"><ele>9.166666666666666</ele><time>2026-04-03T08:12:14.009Z</time></trkpt><trkpt lat="43.5742168647772" lon="-5.93195117167413"><ele>9.333333333333334</ele><time>2026-04-03T08:12:16.009Z</time></trkpt><trkpt lat="43.574226201225635" lon="-5.931833001567556"><ele>9.5</ele><time>2026-04-03T08:12:19.009Z</time></trkpt><trkpt lat="43.574239217122326" lon="-5.931699130551677"><ele>9.666666666666668</ele><time>2026-04-03T08:12:22.009Z</time></trkpt><trkpt lat="43.57425682925152" lon="-5.931564575525812"><ele>9.833333333333334</ele><time>2026-04-03T08:12:25.009Z</time></trkpt><trkpt lat="43.57426198971534" lon="-5.931463029399509"><ele>10.0</ele><time>2026-04-03T08:12:27.009Z</time></trkpt><trkpt lat="43.57428225242352" lon="-5.931356690194228"><ele>10.166666666666668</ele><time>2026-04-03T08:12:29.009Z</time></trkpt><trkpt lat="43.574291290879934" lon="-5.931255104836566"><ele>10.333333333333334</ele><time>2026-04-03T08:12:31.009Z</time></trkpt><trkpt lat="43.57431282997975" lon="-5.931155466521167"><ele>10.5</ele><time>2026-04-03T08:12:33.009Z</time></trkpt><trkpt lat="43.574309449455555" lon="-5.931031134343935"><ele>10.666666666666666</ele><time>2026-04-03T08:12:36.009Z</time></trkpt><trkpt lat="43.5743257755088" lon="-5.93093134476664"><ele>10.833333333333332</ele><time>2026-04-03T08:12:39.009Z</time></trkpt><trkpt lat="43.574349147059145" lon="-5.930829273296455"><ele>11.0</ele><time>2026-04-03T08:12:42.009Z</time></trkpt><trkpt lat="43.574371200493204" lon="-5.930737024598544"><ele>11.0</ele><time>2026-04-03T08:12:45.009Z</time></trkpt><trkpt lat="43.57440247395339" lon="-5.930643398254918"><ele>11.0</ele><time>2026-04-03T08:12:49.009Z</time></trkpt><trkpt lat="43.574379573878595" lon="-5.930559061018132"><ele>11.0</ele><time>2026-04-03T08:13:02.009Z</time></trkpt><trkpt lat="43.57438927650128" lon="-5.930461059192023"><ele>11.0</ele><time>2026-04-03T08:14:06.009Z</time></trkpt><trkpt lat="43.574422103878774" lon="-5.930367590115513"><ele>11.0</ele><time>2026-04-03T08:14:10.009Z</time></trkpt><trkpt lat="43.57447097652831" lon="-5.930277754699391"><ele>11.0</ele><time>2026-04-03T08:14:13.008Z</time></trkpt><trkpt lat="43.57450854975254" lon="-5.930168163482664"><ele>11.166666666666666</ele><time>2026-04-03T08:14:16.008Z</time></trkpt><trkpt lat="43.57452217043676" lon="-5.930079709023268"><ele>11.333333333333332</ele><time>2026-04-03T08:14:18.008Z</time></trkpt><trkpt lat="43.57452520222664" lon="-5.929948430938726"><ele>11.5</ele><time>2026-04-03T08:14:21.008Z</time></trkpt><trkpt lat="43.57455801870159" lon="-5.929833147679444"><ele>11.666666666666666</ele><time>2026-04-03T08:14:24.008Z</time></trkpt><trkpt lat="43.574602142771404" lon="-5.929748538921142"><ele>11.833333333333334</ele><time>2026-04-03T08:14:27.008Z</time></trkpt><trkpt lat="43.57463357352872" lon="-5.929664801620397"><ele>12.0</ele><time>2026-04-03T08:14:31.008Z</time></trkpt><trkpt lat="43.57471363588386" lon="-5.929666589571501"><ele>11.333333333333334</ele><time>2026-04-03T08:14:35.008Z</time></trkpt><trkpt lat="43.57478756953057" lon="-5.929712697865247"><ele>10.666666666666666</ele><time>2026-04-03T08:14:39.008Z</time></trkpt><trkpt lat="43.574862997344255" lon="-5.929726419391291"><ele>10.0</ele><time>2026-04-03T08:14:41.008Z</time></trkpt><trkpt lat="43.57492410710854" lon="-5.929759214454921"><ele>9.333333333333332</ele><time>2026-04-03T08:14:44.008Z</time></trkpt><trkpt lat="43.574988857473514" lon="-5.92978391430341"><ele>8.666666666666666</ele><time>2026-04-03T08:14:46.008Z</time></trkpt><trkpt lat="43.57507070157746" lon="-5.929788337121902"><ele>8.0</ele><time>2026-04-03T08:14:51.008Z</time></trkpt><trkpt lat="43.57525272786955" lon="-5.929774602051074"><ele>7.800000000000001</ele><time>2026-04-03T08:14:57.008Z</time></trkpt><trkpt lat="43.57535913190937" lon="-5.9297877411540005"><ele>7.6000000000000005</ele><time>2026-04-03T08:14:59.008Z</time></trkpt><trkpt lat="43.57544310752015" lon="-5.9298334578105845"><ele>7.3999999999999995</ele><time>2026-04-03T08:15:01.008Z</time></trkpt><trkpt lat="43.57552404028128" lon="-5.929774408925207"><ele>7.199999999999999</ele><time>2026-04-03T08:15:04.008Z</time></trkpt><trkpt lat="43.57557426697019" lon="-5.9296892415959706"><ele>7.0</ele><time>2026-04-03T08:15:06.008Z</time></trkpt><trkpt lat="43.5758153460817" lon="-5.929610794087064"><ele>7.0</ele><time>2026-04-03T08:15:16.008Z</time></trkpt><trkpt lat="43.57562903431343" lon="-5.929692993442185"><ele>6.999999999999999</ele><time>2026-04-03T08:15:28.007Z</time></trkpt><trkpt lat="43.57554599455825" lon="-5.9296802823432895"><ele>6.999999999999999</ele><time>2026-04-03T08:15:32.007Z</time></trkpt><trkpt lat="43.57547855260188" lon="-5.929653926633287"><ele>7.0</ele><time>2026-04-03T08:15:34.007Z</time></trkpt><trkpt lat="43.57541701647495" lon="-5.92970989775286"><ele>7.0</ele><time>2026-04-03T08:15:37.007Z</time></trkpt><trkpt lat="43.57534319970854" lon="-5.929719612266481"><ele>7.142857142857142</ele><time>2026-04-03T08:15:41.007Z</time></trkpt><trkpt lat="43.57528824477607" lon="-5.929667683544847"><ele>7.285714285714286</ele><time>2026-04-03T08:16:24.009Z</time></trkpt><trkpt lat="43.57520947099791" lon="-5.929658084457946"><ele>7.428571428571429</ele><time>2026-04-03T08:16:29.008Z</time></trkpt><trkpt lat="43.57514207634961" lon="-5.929612983022092"><ele>7.571428571428571</ele><time>2026-04-03T08:16:33.008Z</time></trkpt><trkpt lat="43.57508808994067" lon="-5.92956380307345"><ele>7.7142857142857135</ele><time>2026-04-03T08:16:36.008Z</time></trkpt><trkpt lat="43.57502234900557" lon="-5.929560073568093"><ele>7.857142857142857</ele><time>2026-04-03T08:16:38.008Z</time></trkpt><trkpt lat="43.57495544544012" lon="-5.929512652402063"><ele>8.0</ele><time>2026-04-03T08:16:41.008Z</time></trkpt><trkpt lat="43.57489134352537" lon="-5.9294877530122285"><ele>8.0</ele><time>2026-04-03T08:16:43.008Z</time></trkpt><trkpt lat="43.574822971740225" lon="-5.929469164124637"><ele>7.999999999999999</ele><time>2026-04-03T08:16:45.008Z</time></trkpt><trkpt lat="43.57475342152114" lon="-5.92947087189716"><ele>8.0</ele><time>2026-04-03T08:16:48.008Z</time></trkpt><trkpt lat="43.57468601886634" lon="-5.92950797406403"><ele>8.0</ele><time>2026-04-03T08:16:51.008Z</time></trkpt><trkpt lat="43.5746084833947" lon="-5.92952271186789"><ele>7.999999999999999</ele><time>2026-04-03T08:16:56.008Z</time></trkpt><trkpt lat="43.574545116930686" lon="-5.929535528192472"><ele>8.0</ele><time>2026-04-03T08:16:59.007Z</time></trkpt><trkpt lat="43.57448242451199" lon="-5.929512694408159"><ele>8.0</ele><time>2026-04-03T08:17:02.006Z</time></trkpt><trkpt lat="43.57442893908076" lon="-5.929448712275225"><ele>7.499999999999999</ele><time>2026-04-03T08:17:06.005Z</time></trkpt><trkpt lat="43.57438751666909" lon="-5.929378774909558"><ele>7.0</ele><time>2026-04-03T08:17:09.005Z</time></trkpt><trkpt lat="43.57436320979426" lon="-5.92927631207938"><ele>6.5</ele><time>2026-04-03T08:17:14.004Z</time></trkpt><trkpt lat="43.57430673106859" lon="-5.9292103591746175"><ele>6.0</ele><time>2026-04-03T08:17:17.003Z</time></trkpt><trkpt lat="43.574221703646295" lon="-5.929167435436393"><ele>5.5</ele><time>2026-04-03T08:17:19.003Z</time></trkpt><trkpt lat="43.57414498828783" lon="-5.929134834424436"><ele>5.0</ele><time>2026-04-03T08:17:21.003Z</time></trkpt><trkpt lat="43.5740840380677" lon="-5.929070176605272"><ele>5.0</ele><time>2026-04-03T08:17:24.002Z</time></trkpt><trkpt lat="43.57394236502337" lon="-5.929068480052574"><ele>5.0</ele><time>2026-04-03T08:17:26.002Z</time></trkpt><trkpt lat="43.57387610314504" lon="-5.9290604330203465"><ele>5.0</ele><time>2026-04-03T08:17:27.002Z</time></trkpt><trkpt lat="43.573801420221535" lon="-5.9290207963492145"><ele>5.0</ele><time>2026-04-03T08:17:30.002Z</time></trkpt><trkpt lat="43.57369342057653" lon="-5.928953728629636"><ele>5.0</ele><time>2026-04-03T08:17:34.002Z</time></trkpt><trkpt lat="43.57362415613718" lon="-5.928944932714944"><ele>5.833333333333334</ele><time>2026-04-03T08:17:35.002Z</time></trkpt><trkpt lat="43.57352850595829" lon="-5.928916417850491"><ele>6.666666666666667</ele><time>2026-04-03T08:17:37.002Z</time></trkpt><trkpt lat="43.57345202492889" lon="-5.928879505529302"><ele>7.5</ele><time>2026-04-03T08:17:39.002Z</time></trkpt><trkpt lat="43.57337921564722" lon="-5.928853764505846"><ele>8.333333333333334</ele><time>2026-04-03T08:17:41.001Z</time></trkpt><trkpt lat="43.57330440553123" lon="-5.928839810975717"><ele>9.166666666666668</ele><time>2026-04-03T08:17:43.001Z</time></trkpt><trkpt lat="43.573217742930495" lon="-5.928811733705691"><ele>10.0</ele><time>2026-04-03T08:17:46.001Z</time></trkpt><trkpt lat="43.57313039868782" lon="-5.9288102917599215"><ele>10.0</ele><time>2026-04-03T08:17:49.001Z</time></trkpt><trkpt lat="43.57306324950791" lon="-5.928790410754472"><ele>10.0</ele><time>2026-04-03T08:17:52.001Z</time></trkpt><trkpt lat="43.572990377668525" lon="-5.928763365461425"><ele>10.0</ele><time>2026-04-03T08:18:02.001Z</time></trkpt><trkpt lat="43.572959791787774" lon="-5.928655015890419"><ele>10.0</ele><time>2026-04-03T08:18:05.001Z</time></trkpt><trkpt lat="43.572983668180136" lon="-5.928550356606454"><ele>10.0</ele><time>2026-04-03T08:18:08.001Z</time></trkpt><trkpt lat="43.57304864500011" lon="-5.928497969950905"><ele>10.0</ele><time>2026-04-03T08:18:11.001Z</time></trkpt><trkpt lat="43.57307805653371" lon="-5.928417608743864"><ele>10.0</ele><time>2026-04-03T08:18:13.003Z</time></trkpt><trkpt lat="43.57308478061189" lon="-5.9283284751574925"><ele>9.166666666666668</ele><time>2026-04-03T08:18:16.002Z</time></trkpt><trkpt lat="43.573088551910324" lon="-5.92824121491102"><ele>8.333333333333334</ele><time>2026-04-03T08:18:19.002Z</time></trkpt><trkpt lat="43.5730945996799" lon="-5.928127530574279"><ele>7.5</ele><time>2026-04-03T08:18:22.002Z</time></trkpt><trkpt lat="43.573078082429134" lon="-5.927997356043708"><ele>6.666666666666667</ele><time>2026-04-03T08:18:25.002Z</time></trkpt><trkpt lat="43.57306485458628" lon="-5.927887661996356"><ele>5.833333333333334</ele><time>2026-04-03T08:18:28.002Z</time></trkpt><trkpt lat="43.57305480469737" lon="-5.927777739489951"><ele>5.0</ele><time>2026-04-03T08:18:30.002Z</time></trkpt><trkpt lat="43.57304312955907" lon="-5.927573760261146"><ele>4.666666666666667</ele><time>2026-04-03T08:18:32.002Z</time></trkpt><trkpt lat="43.573038414638475" lon="-5.927471559236459"><ele>4.333333333333334</ele><time>2026-04-03T08:18:33.002Z</time></trkpt><trkpt lat="43.57303737200753" lon="-5.927362921362498"><ele>4.0</ele><time>2026-04-03T08:18:34.002Z</time></trkpt><trkpt lat="43.5730385572649" lon="-5.927245578912247"><ele>3.666666666666667</ele><time>2026-04-03T08:18:35.002Z</time></trkpt><trkpt lat="43.57304509800591" lon="-5.927128364988234"><ele>3.3333333333333335</ele><time>2026-04-03T08:18:36.002Z</time></trkpt><trkpt lat="43.5730498850715" lon="-5.926996590072081"><ele>3.0</ele><time>2026-04-03T08:18:37.002Z</time></trkpt><trkpt lat="43.573053615891375" lon="-5.926863653122441"><ele>3.0</ele><time>2026-04-03T08:18:38.002Z</time></trkpt><trkpt lat="43.57307198238118" lon="-5.926733290503361"><ele>3.0</ele><time>2026-04-03T08:18:39.002Z</time></trkpt><trkpt lat="43.5730894355907" lon="-5.926611711973686"><ele>3.0</ele><time>2026-04-03T08:18:40.002Z</time></trkpt><trkpt lat="43.57309199530545" lon="-5.926487960867904"><ele>3.0</ele><time>2026-04-03T08:18:41.002Z</time></trkpt><trkpt lat="43.573082265981284" lon="-5.9263880601336805"><ele>3.0</ele><time>2026-04-03T08:18:42.002Z</time></trkpt><trkpt lat="43.573050246827954" lon="-5.926308212779896"><ele>3.0</ele><time>2026-04-03T08:18:43.002Z</time></trkpt><trkpt lat="43.57307309754052" lon="-5.926188338428851"><ele>2.8333333333333335</ele><time>2026-04-03T08:18:45.002Z</time></trkpt><trkpt lat="43.573067593429556" lon="-5.926065692192122"><ele>2.6666666666666665</ele><time>2026-04-03T08:18:47.002Z</time></trkpt><trkpt lat="43.573067329300486" lon="-5.925956652236578"><ele>2.5</ele><time>2026-04-03T08:18:49.002Z</time></trkpt><trkpt lat="43.57308411305932" lon="-5.9258457243466305"><ele>2.333333333333333</ele><time>2026-04-03T08:18:51.002Z</time></trkpt><trkpt lat="43.57308739912701" lon="-5.925725233208716"><ele>2.1666666666666665</ele><time>2026-04-03T08:18:53.002Z</time></trkpt><trkpt lat="43.573085461343325" lon="-5.925613819896084"><ele>2.0</ele><time>2026-04-03T08:18:55.002Z</time></trkpt><trkpt lat="43.573083307726066" lon="-5.9255094326686395"><ele>2.0</ele><time>2026-04-03T08:18:57.002Z</time></trkpt><trkpt lat="43.57308057698527" lon="-5.925408941723809"><ele>1.9999999999999998</ele><time>2026-04-03T08:18:59.002Z</time></trkpt><trkpt lat="43.57307517878775" lon="-5.925302551700353"><ele>2.0</ele><time>2026-04-03T08:19:01.002Z</time></trkpt><trkpt lat="43.57308007861667" lon="-5.925191537345677"><ele>2.0</ele><time>2026-04-03T08:19:03.002Z</time></trkpt><trkpt lat="43.573069541316585" lon="-5.92510302897102"><ele>1.9999999999999998</ele><time>2026-04-03T08:19:05.002Z</time></trkpt><trkpt lat="43.57307844088959" lon="-5.925005331356223"><ele>2.0</ele><time>2026-04-03T08:19:07.002Z</time></trkpt><trkpt lat="43.57308922901737" lon="-5.924908072257671"><ele>2.0</ele><time>2026-04-03T08:19:09.002Z</time></trkpt><trkpt lat="43.57309811541751" lon="-5.924809317591368"><ele>1.9999999999999998</ele><time>2026-04-03T08:19:11.002Z</time></trkpt><trkpt lat="43.57311153943286" lon="-5.92467612516324"><ele>2.0</ele><time>2026-04-03T08:19:14.002Z</time></trkpt><trkpt lat="43.57312178151083" lon="-5.924578099447161"><ele>2.0</ele><time>2026-04-03T08:19:16.002Z</time></trkpt><trkpt lat="43.573113156400446" lon="-5.924471502284266"><ele>2.0</ele><time>2026-04-03T08:19:18.002Z</time></trkpt><trkpt lat="43.57311121983205" lon="-5.924366202221965"><ele>1.9999999999999998</ele><time>2026-04-03T08:19:20.002Z</time></trkpt><trkpt lat="43.57310673733242" lon="-5.9242662453472414"><ele>2.0</ele><time>2026-04-03T08:19:22.002Z</time></trkpt><trkpt lat="43.57311000685022" lon="-5.924147365290603"><ele>1.9999999999999998</ele><time>2026-04-03T08:19:24.002Z</time></trkpt><trkpt lat="43.57310513851901" lon="-5.924043363006974"><ele>2.0</ele><time>2026-04-03T08:19:26.002Z</time></trkpt><trkpt lat="43.57310210219163" lon="-5.92393591814036"><ele>2.0</ele><time>2026-04-03T08:19:28.001Z</time></trkpt><trkpt lat="43.573097556977835" lon="-5.923838119350115"><ele>2.0</ele><time>2026-04-03T08:19:30.001Z</time></trkpt><trkpt lat="43.57309495691042" lon="-5.923714494804852"><ele>1.9999999999999998</ele><time>2026-04-03T08:19:32.001Z</time></trkpt><trkpt lat="43.57309337287941" lon="-5.923613475929235"><ele>2.0</ele><time>2026-04-03T08:19:34.001Z</time></trkpt><trkpt lat="43.57308532349181" lon="-5.9235145585515045"><ele>1.9999999999999998</ele><time>2026-04-03T08:19:36.001Z</time></trkpt><trkpt lat="43.573082470794546" lon="-5.923418752006073"><ele>2.0</ele><time>2026-04-03T08:19:38.001Z</time></trkpt><trkpt lat="43.57311257364899" lon="-5.923326422835334"><ele>2.0</ele><time>2026-04-03T08:19:41.001Z</time></trkpt><trkpt lat="43.57312891377899" lon="-5.923231966227741"><ele>2.0</ele><time>2026-04-03T08:19:44.001Z</time></trkpt><trkpt lat="43.573189612620745" lon="-5.923173188557303"><ele>1.9999999999999998</ele><time>2026-04-03T08:19:48.001Z</time></trkpt><trkpt lat="43.57328637193594" lon="-5.923183807467925"><ele>2.0</ele><time>2026-04-03T08:19:52.001Z</time></trkpt><trkpt lat="43.57338022402227" lon="-5.923223319380048"><ele>2.142857142857143</ele><time>2026-04-03T08:19:55.001Z</time></trkpt><trkpt lat="43.57345229957149" lon="-5.923240280954699"><ele>2.2857142857142856</ele><time>2026-04-03T08:19:57.001Z</time></trkpt><trkpt lat="43.573514039036304" lon="-5.92327713657279"><ele>2.4285714285714284</ele><time>2026-04-03T08:19:59.001Z</time></trkpt><trkpt lat="43.573584711926955" lon="-5.923313849060662"><ele>2.571428571428571</ele><time>2026-04-03T08:20:01.001Z</time></trkpt><trkpt lat="43.57364474232088" lon="-5.923372586638864"><ele>2.7142857142857144</ele><time>2026-04-03T08:20:03.001Z</time></trkpt><trkpt lat="43.573709908641035" lon="-5.9234302612742145"><ele>2.8571428571428568</ele><time>2026-04-03T08:20:05.001Z</time></trkpt><trkpt lat="43.57376217807904" lon="-5.923512731089089"><ele>3.0</ele><time>2026-04-03T08:20:07.001Z</time></trkpt><trkpt lat="43.573809036698634" lon="-5.923589971787188"><ele>2.9999999999999996</ele><time>2026-04-03T08:20:09.001Z</time></trkpt><trkpt lat="43.57384540676205" lon="-5.923689532817123"><ele>3.0</ele><time>2026-04-03T08:20:11.001Z</time></trkpt><trkpt lat="43.573881419949366" lon="-5.923784863162425"><ele>3.0</ele><time>2026-04-03T08:20:13.001Z</time></trkpt><trkpt lat="43.57391353871022" lon="-5.923872818150161"><ele>3.0</ele><time>2026-04-03T08:20:15.001Z</time></trkpt><trkpt lat="43.57394383271829" lon="-5.923968074966709"><ele>3.0</ele><time>2026-04-03T08:20:17.001Z</time></trkpt><trkpt lat="43.573959154749055" lon="-5.924058457417487"><ele>2.9999999999999996</ele><time>2026-04-03T08:20:19.002Z</time></trkpt><trkpt lat="43.573973040494046" lon="-5.924155375864163"><ele>3.0</ele><time>2026-04-03T08:20:21.002Z</time></trkpt><trkpt lat="43.573954390078804" lon="-5.924284618120986"><ele>3.0</ele><time>2026-04-03T08:20:24.002Z</time></trkpt><trkpt lat="43.573941101991466" lon="-5.924381934444254"><ele>3.0</ele><time>2026-04-03T08:20:26.002Z</time></trkpt><trkpt lat="43.57394694579852" lon="-5.924511298502285"><ele>3.0</ele><time>2026-04-03T08:20:29.002Z</time></trkpt><trkpt lat="43.57394233169155" lon="-5.924613738386127"><ele>3.0</ele><time>2026-04-03T08:20:31.002Z</time></trkpt><trkpt lat="43.573941817350104" lon="-5.924712553366171"><ele>3.0</ele><time>2026-04-03T08:20:33.002Z</time></trkpt><trkpt lat="43.57394998524049" lon="-5.924827127850662"><ele>3.0</ele><time>2026-04-03T08:20:35.002Z</time></trkpt><trkpt lat="43.57395580441415" lon="-5.924930733748138"><ele>2.9999999999999996</ele><time>2026-04-03T08:20:37.002Z</time></trkpt><trkpt lat="43.573948793065206" lon="-5.925028619449285"><ele>3.0</ele><time>2026-04-03T08:20:39.002Z</time></trkpt><trkpt lat="43.573940948585" lon="-5.925129867591991"><ele>3.0</ele><time>2026-04-03T08:20:41.002Z</time></trkpt><trkpt lat="43.573938171141876" lon="-5.925232064484841"><ele>3.0</ele><time>2026-04-03T08:20:43.002Z</time></trkpt><trkpt lat="43.57392814342967" lon="-5.92532965002619"><ele>3.0</ele><time>2026-04-03T08:20:45.002Z</time></trkpt><trkpt lat="43.573933538254266" lon="-5.925418135276855"><ele>2.9999999999999996</ele><time>2026-04-03T08:20:47.002Z</time></trkpt><trkpt lat="43.573937153247385" lon="-5.925537377895959"><ele>3.0</ele><time>2026-04-03T08:20:50.002Z</time></trkpt><trkpt lat="43.57395285664603" lon="-5.925634297204556"><ele>3.3333333333333335</ele><time>2026-04-03T08:20:52.002Z</time></trkpt><trkpt lat="43.57402034026105" lon="-5.925739540118103"><ele>3.666666666666667</ele><time>2026-04-03T08:20:54.002Z</time></trkpt><trkpt lat="43.574094468452024" lon="-5.925820009258866"><ele>4.0</ele><time>2026-04-03T08:20:56.002Z</time></trkpt><trkpt lat="43.5741406923256" lon="-5.925919804858971"><ele>4.333333333333334</ele><time>2026-04-03T08:20:58.002Z</time></trkpt><trkpt lat="43.5741993672948" lon="-5.925990867523994"><ele>4.666666666666667</ele><time>2026-04-03T08:21:00.002Z</time></trkpt><trkpt lat="43.57425782600734" lon="-5.92606039079474"><ele>5.0</ele><time>2026-04-03T08:21:03.002Z</time></trkpt><trkpt lat="43.574334124925095" lon="-5.926094500828367"><ele>5.0</ele><time>2026-04-03T08:21:06.002Z</time></trkpt><trkpt lat="43.57440193782461" lon="-5.92611200007431"><ele>5.0</ele><time>2026-04-03T08:21:08.002Z</time></trkpt><trkpt lat="43.57448213065279" lon="-5.9261593596419795"><ele>5.0</ele><time>2026-04-03T08:21:11.002Z</time></trkpt><trkpt lat="43.57456416701706" lon="-5.926214293216088"><ele>5.0</ele><time>2026-04-03T08:21:14.002Z</time></trkpt><trkpt lat="43.574623634848265" lon="-5.926256739708352"><ele>5.0</ele><time>2026-04-03T08:21:16.002Z</time></trkpt><trkpt lat="43.57468581901792" lon="-5.926342270942691"><ele>5.0</ele><time>2026-04-03T08:21:19.002Z</time></trkpt><trkpt lat="43.57476681470612" lon="-5.926413981389544"><ele>4.666666666666667</ele><time>2026-04-03T08:21:22.002Z</time></trkpt><trkpt lat="43.574833910167655" lon="-5.926445407575502"><ele>4.333333333333334</ele><time>2026-04-03T08:21:24.002Z</time></trkpt><trkpt lat="43.57491726217213" lon="-5.926486486146755"><ele>4.0</ele><time>2026-04-03T08:21:27.002Z</time></trkpt><trkpt lat="43.574976339251556" lon="-5.926542629377397"><ele>3.666666666666667</ele><time>2026-04-03T08:21:30.002Z</time></trkpt><trkpt lat="43.57504151259822" lon="-5.926567219393854"><ele>3.3333333333333335</ele><time>2026-04-03T08:21:33.001Z</time></trkpt><trkpt lat="43.57510647115312" lon="-5.926610712546744"><ele>3.0</ele><time>2026-04-03T08:21:37.001Z</time></trkpt><trkpt lat="43.57522384209048" lon="-5.926599062206185"><ele>3.0</ele><time>2026-04-03T08:22:40.002Z</time></trkpt><trkpt lat="43.57533053426592" lon="-5.926611989537275"><ele>3.0</ele><time>2026-04-03T08:23:06.002Z</time></trkpt><trkpt lat="43.57540970549225" lon="-5.926620046659099"><ele>3.0</ele><time>2026-04-03T08:23:09.002Z</time></trkpt><trkpt lat="43.57551842833962" lon="-5.926630435973929"><ele>3.0</ele><time>2026-04-03T08:23:13.002Z</time></trkpt><trkpt lat="43.57557996437542" lon="-5.926650193075358"><ele>3.0</ele><time>2026-04-03T08:23:15.001Z</time></trkpt><trkpt lat="43.575673300119135" lon="-5.926686008250161"><ele>3.1666666666666665</ele><time>2026-04-03T08:23:18.001Z</time></trkpt><trkpt lat="43.5757358713404" lon="-5.926712146616448"><ele>3.333333333333333</ele><time>2026-04-03T08:23:20.001Z</time></trkpt><trkpt lat="43.575807958912556" lon="-5.926724933796226"><ele>3.5</ele><time>2026-04-03T08:23:22.001Z</time></trkpt><trkpt lat="43.5758889245998" lon="-5.926760004803323"><ele>3.6666666666666665</ele><time>2026-04-03T08:23:25.001Z</time></trkpt><trkpt lat="43.57596072601017" lon="-5.926781823095448"><ele>3.833333333333333</ele><time>2026-04-03T08:23:27.001Z</time></trkpt><trkpt lat="43.57602980208409" lon="-5.926812262585311"><ele>4.0</ele><time>2026-04-03T08:23:29.001Z</time></trkpt><trkpt lat="43.57622611379327" lon="-5.926834390955267"><ele>4.0</ele><time>2026-04-03T08:23:35.001Z</time></trkpt><trkpt lat="43.57632667570174" lon="-5.926842713512222"><ele>4.0</ele><time>2026-04-03T08:23:38.001Z</time></trkpt><trkpt lat="43.57659323065895" lon="-5.926846727595602"><ele>4.0</ele><time>2026-04-03T08:23:47.001Z</time></trkpt><trkpt lat="43.57667829227578" lon="-5.92688085474457"><ele>3.9999999999999996</ele><time>2026-04-03T08:23:50.001Z</time></trkpt><trkpt lat="43.57676141515824" lon="-5.92692637710012"><ele>4.0</ele><time>2026-04-03T08:23:53.001Z</time></trkpt><trkpt lat="43.57685914122496" lon="-5.9269748160016285"><ele>4.0</ele><time>2026-04-03T08:23:56.001Z</time></trkpt><trkpt lat="43.57692210390163" lon="-5.926983719350924"><ele>4.0</ele><time>2026-04-03T08:23:58.001Z</time></trkpt><trkpt lat="43.576972382858834" lon="-5.927036201607605"><ele>3.9999999999999996</ele><time>2026-04-03T08:24:00.001Z</time></trkpt><trkpt lat="43.577050736723066" lon="-5.927086789876127"><ele>4.0</ele><time>2026-04-03T08:24:03.001Z</time></trkpt><trkpt lat="43.57713376072659" lon="-5.927127320324111"><ele>4.0</ele><time>2026-04-03T08:24:06.001Z</time></trkpt><trkpt lat="43.57720591668" lon="-5.927117634638273"><ele>4.0</ele><time>2026-04-03T08:24:08.001Z</time></trkpt><trkpt lat="43.577273715792586" lon="-5.927129207024003"><ele>4.0</ele><time>2026-04-03T08:24:10.001Z</time></trkpt><trkpt lat="43.5774085398876" lon="-5.927135354313112"><ele>4.0</ele><time>2026-04-03T08:24:14.001Z</time></trkpt><trkpt lat="43.577530856066325" lon="-5.92714226416975"><ele>4.0</ele><time>2026-04-03T08:24:18.001Z</time></trkpt><trkpt lat="43.57760996761213" lon="-5.927168153508711"><ele>3.9999999999999996</ele><time>2026-04-03T08:24:21Z</time></trkpt><trkpt lat="43.577693946528164" lon="-5.927176006808016"><ele>4.0</ele><time>2026-04-03T08:24:24Z</time></trkpt><trkpt lat="43.57775874531855" lon="-5.927187632064563"><ele>4.0</ele><time>2026-04-03T08:24:26Z</time></trkpt><trkpt lat="43.57782442130015" lon="-5.927199773626603"><ele>4.0</ele><time>2026-04-03T08:24:28Z</time></trkpt><trkpt lat="43.577909537344674" lon="-5.927232361890314"><ele>3.9999999999999996</ele><time>2026-04-03T08:24:31.003Z</time></trkpt><trkpt lat="43.57798838856975" lon="-5.927281560473909"><ele>4.0</ele><time>2026-04-03T08:24:34.002Z</time></trkpt><trkpt lat="43.57807138735476" lon="-5.927323283843611"><ele>4.0</ele><time>2026-04-03T08:24:37.002Z</time></trkpt><trkpt lat="43.57819756865923" lon="-5.927344440271035"><ele>4.0</ele><time>2026-04-03T08:24:41.002Z</time></trkpt><trkpt lat="43.57837287977996" lon="-5.927361813414105"><ele>4.0</ele><time>2026-04-03T08:24:47.002Z</time></trkpt><trkpt lat="43.57849922613973" lon="-5.927370340408302"><ele>4.0</ele><time>2026-04-03T08:24:52.002Z</time></trkpt><trkpt lat="43.578639503037195" lon="-5.927394123389585"><ele>3.8000000000000003</ele><time>2026-04-03T08:24:57.002Z</time></trkpt><trkpt lat="43.57875354649343" lon="-5.92739788891995"><ele>3.6000000000000005</ele><time>2026-04-03T08:25:01.001Z</time></trkpt><trkpt lat="43.57883384340607" lon="-5.9274076172991"><ele>3.4</ele><time>2026-04-03T08:25:04.001Z</time></trkpt><trkpt lat="43.57894148579489" lon="-5.927428712117203"><ele>3.2</ele><time>2026-04-03T08:25:08.001Z</time></trkpt><trkpt lat="43.57902193648451" lon="-5.927448888190286"><ele>3.0</ele><time>2026-04-03T08:25:11.001Z</time></trkpt><trkpt lat="43.57908843737139" lon="-5.927461833351734"><ele>3.0</ele><time>2026-04-03T08:25:14.001Z</time></trkpt><trkpt lat="43.57918754399535" lon="-5.927501727391701"><ele>3.0</ele><time>2026-04-03T08:25:18.001Z</time></trkpt><trkpt lat="43.5793784550137" lon="-5.927526046823912"><ele>3.0</ele><time>2026-04-03T08:25:25.001Z</time></trkpt><trkpt lat="43.57939800118762" lon="-5.927640036911648"><ele>3.0</ele><time>2026-04-03T08:25:28.001Z</time></trkpt><trkpt lat="43.57942724070368" lon="-5.927761368629665"><ele>3.0</ele><time>2026-04-03T08:25:30.001Z</time></trkpt><trkpt lat="43.579450257041316" lon="-5.927853866849107"><ele>3.0</ele><time>2026-04-03T08:25:32.001Z</time></trkpt><trkpt lat="43.57948107159625" lon="-5.927939809260145"><ele>3.0</ele><time>2026-04-03T08:25:34.001Z</time></trkpt><trkpt lat="43.57949311196708" lon="-5.928043032665012"><ele>3.0</ele><time>2026-04-03T08:25:36.001Z</time></trkpt><trkpt lat="43.57949844168873" lon="-5.928143148106237"><ele>3.0</ele><time>2026-04-03T08:25:38.001Z</time></trkpt><trkpt lat="43.57952454894568" lon="-5.928253181776981"><ele>3.0</ele><time>2026-04-03T08:25:42.001Z</time></trkpt><trkpt lat="43.579535535236936" lon="-5.928378635661958"><ele>2.9999999999999996</ele><time>2026-04-03T08:25:44.001Z</time></trkpt><trkpt lat="43.579551611604465" lon="-5.928473148644099"><ele>3.0</ele><time>2026-04-03T08:25:46.001Z</time></trkpt><trkpt lat="43.57957588443835" lon="-5.928565948023028"><ele>3.0</ele><time>2026-04-03T08:25:48.001Z</time></trkpt><trkpt lat="43.57961552850033" lon="-5.928647066016165"><ele>3.0</ele><time>2026-04-03T08:25:50.001Z</time></trkpt><trkpt lat="43.5796287605418" lon="-5.928737657468295"><ele>3.0</ele><time>2026-04-03T08:25:53.001Z</time></trkpt><trkpt lat="43.5796314540166" lon="-5.9288483751412455"><ele>2.9999999999999996</ele><time>2026-04-03T08:25:55.001Z</time></trkpt><trkpt lat="43.5796218308148" lon="-5.928946877989434"><ele>3.0</ele><time>2026-04-03T08:25:59.001Z</time></trkpt><trkpt lat="43.579922887301194" lon="-5.929097419915527"><ele>2.9999999999999996</ele><time>2026-04-03T08:26:03.001Z</time></trkpt><trkpt lat="43.57994953170773" lon="-5.92918305620394"><ele>3.0</ele><time>2026-04-03T08:26:05.001Z</time></trkpt><trkpt lat="43.57999500829938" lon="-5.929269847528816"><ele>3.0</ele><time>2026-04-03T08:26:07Z</time></trkpt><trkpt lat="43.58004921129277" lon="-5.929353267636124"><ele>3.0</ele><time>2026-04-03T08:26:10Z</time></trkpt><trkpt lat="43.5801178799218" lon="-5.92940251681105"><ele>3.0</ele><time>2026-04-03T08:26:12Z</time></trkpt><trkpt lat="43.580175765627125" lon="-5.929462217917313"><ele>2.9999999999999996</ele><time>2026-04-03T08:26:15Z</time></trkpt><trkpt lat="43.58023898068667" lon="-5.92950157379851"><ele>3.0</ele><time>2026-04-03T08:26:17Z</time></trkpt><trkpt lat="43.58046915987562" lon="-5.929532800055713"><ele>2.6</ele><time>2026-04-03T08:26:28Z</time></trkpt><trkpt lat="43.580538518741264" lon="-5.9295406128434855"><ele>2.1999999999999997</ele><time>2026-04-03T08:26:31Z</time></trkpt><trkpt lat="43.580657307843666" lon="-5.92955534020851"><ele>1.8</ele><time>2026-04-03T08:26:35Z</time></trkpt><trkpt lat="43.58075314845428" lon="-5.92961093618055"><ele>1.4</ele><time>2026-04-03T08:26:38.002Z</time></trkpt><trkpt lat="43.580854615889756" lon="-5.929659677007347"><ele>1.0</ele><time>2026-04-03T08:26:41.002Z</time></trkpt><trkpt lat="43.58094589323976" lon="-5.929674144106133"><ele>1.0</ele><time>2026-04-03T08:26:43.002Z</time></trkpt><trkpt lat="43.58104680109762" lon="-5.929714032147341"><ele>1.0</ele><time>2026-04-03T08:26:47.003Z</time></trkpt><trkpt lat="43.58115152409481" lon="-5.929743144641476"><ele>1.0</ele><time>2026-04-03T08:26:50.003Z</time></trkpt><trkpt lat="43.581226521762275" lon="-5.929790735148304"><ele>1.0</ele><time>2026-04-03T08:26:53.003Z</time></trkpt><trkpt lat="43.581290750699964" lon="-5.929810813957356"><ele>1.0</ele><time>2026-04-03T08:26:55.003Z</time></trkpt><trkpt lat="43.58140006461858" lon="-5.9298374766039865"><ele>2.0</ele><time>2026-04-03T08:26:58.003Z</time></trkpt><trkpt lat="43.58163042199305" lon="-5.929865088218126"><ele>3.0</ele><time>2026-04-03T08:27:05.003Z</time></trkpt><trkpt lat="43.58178070999921" lon="-5.9298661293177375"><ele>4.0</ele><time>2026-04-03T08:27:09.003Z</time></trkpt><trkpt lat="43.581854672452785" lon="-5.9298778736028135"><ele>4.0</ele><time>2026-04-03T08:27:11.003Z</time></trkpt><trkpt lat="43.581997634876274" lon="-5.929898449537131"><ele>4.0</ele><time>2026-04-03T08:27:15.003Z</time></trkpt><trkpt lat="43.582058844337915" lon="-5.929923969460973"><ele>4.0</ele><time>2026-04-03T08:27:17.003Z</time></trkpt><trkpt lat="43.58218526460816" lon="-5.929940559108434"><ele>4.0</ele><time>2026-04-03T08:27:21.003Z</time></trkpt><trkpt lat="43.582254129764934" lon="-5.929941288578702"><ele>4.0</ele><time>2026-04-03T08:27:23.002Z</time></trkpt><trkpt lat="43.582328781200836" lon="-5.92997596405848"><ele>3.9999999999999996</ele><time>2026-04-03T08:27:25.002Z</time></trkpt><trkpt lat="43.5823989269532" lon="-5.929994649983548"><ele>4.0</ele><time>2026-04-03T08:27:27.002Z</time></trkpt><trkpt lat="43.58251204630867" lon="-5.930014161023083"><ele>4.0</ele><time>2026-04-03T08:27:30.002Z</time></trkpt><trkpt lat="43.58258325682351" lon="-5.930025158652664"><ele>4.0</ele><time>2026-04-03T08:27:32.002Z</time></trkpt><trkpt lat="43.582667533738366" lon="-5.93006727186123"><ele>3.9999999999999996</ele><time>2026-04-03T08:27:34.002Z</time></trkpt><trkpt lat="43.58274415962157" lon="-5.930088923158606"><ele>4.0</ele><time>2026-04-03T08:27:36.002Z</time></trkpt><trkpt lat="43.58280999904655" lon="-5.930114478163496"><ele>4.25</ele><time>2026-04-03T08:27:38.002Z</time></trkpt><trkpt lat="43.58290263874781" lon="-5.93013287701002"><ele>4.5</ele><time>2026-04-03T08:27:40.002Z</time></trkpt><trkpt lat="43.58299274736308" lon="-5.930202334223391"><ele>4.75</ele><time>2026-04-03T08:27:43.002Z</time></trkpt><trkpt lat="43.583066376233404" lon="-5.930236163496112"><ele>5.0</ele><time>2026-04-03T08:27:45.002Z</time></trkpt><trkpt lat="43.58428290053144" lon="-5.93046849188271"><ele>4.666666666666667</ele><time>2026-04-03T08:28:03.002Z</time></trkpt><trkpt lat="43.584347438770585" lon="-5.930473021378484"><ele>4.333333333333334</ele><time>2026-04-03T08:28:04.002Z</time></trkpt><trkpt lat="43.58446667813111" lon="-5.930473115281134"><ele>4.0</ele><time>2026-04-03T08:28:08.002Z</time></trkpt><trkpt lat="43.58454263085673" lon="-5.930495164966337"><ele>3.666666666666667</ele><time>2026-04-03T08:28:10.002Z</time></trkpt><trkpt lat="43.58459768912231" lon="-5.930548302051268"><ele>3.3333333333333335</ele><time>2026-04-03T08:28:12.002Z</time></trkpt><trkpt lat="43.58466318503215" lon="-5.930596331082687"><ele>3.0</ele><time>2026-04-03T08:28:14.002Z</time></trkpt><trkpt lat="43.584741398839135" lon="-5.930671056851384"><ele>3.0</ele><time>2026-04-03T08:28:16.002Z</time></trkpt><trkpt lat="43.58481544420409" lon="-5.930699821482043"><ele>3.0</ele><time>2026-04-03T08:28:18.002Z</time></trkpt><trkpt lat="43.584897519610195" lon="-5.930738999892168"><ele>3.0</ele><time>2026-04-03T08:28:20.002Z</time></trkpt><trkpt lat="43.58497965015756" lon="-5.9308158795083585"><ele>3.0</ele><time>2026-04-03T08:28:22.002Z</time></trkpt><trkpt lat="43.58503117425122" lon="-5.930912907359395"><ele>3.0</ele><time>2026-04-03T08:28:24.002Z</time></trkpt><trkpt lat="43.58585061546343" lon="-5.930915292666156"><ele>3.0</ele><time>2026-04-03T08:28:43.003Z</time></trkpt><trkpt lat="43.585909997975364" lon="-5.930884592107108"><ele>3.0</ele><time>2026-04-03T08:28:44.003Z</time></trkpt><trkpt lat="43.58601433486778" lon="-5.930831033827382"><ele>3.0</ele><time>2026-04-03T08:28:46.003Z</time></trkpt><trkpt lat="43.58611939130094" lon="-5.930785598437689"><ele>3.0</ele><time>2026-04-03T08:28:48.002Z</time></trkpt><trkpt lat="43.58628451910304" lon="-5.93077462178422"><ele>3.0</ele><time>2026-04-03T08:28:51.003Z</time></trkpt><trkpt lat="43.58728202187776" lon="-5.9307543647001815"><ele>3.0</ele><time>2026-04-03T08:29:18.002Z</time></trkpt><trkpt lat="43.587364466002136" lon="-5.930704157506282"><ele>3.0</ele><time>2026-04-03T08:29:21.002Z</time></trkpt><trkpt lat="43.58743588334483" lon="-5.9306592239689495"><ele>3.0</ele><time>2026-04-03T08:29:23.002Z</time></trkpt><trkpt lat="43.58753033366301" lon="-5.930645888469348"><ele>3.0</ele><time>2026-04-03T08:29:26.002Z</time></trkpt><trkpt lat="43.587597175641605" lon="-5.930659894612419"><ele>3.0</ele><time>2026-04-03T08:29:28.002Z</time></trkpt><trkpt lat="43.58769799564516" lon="-5.9307399870147295"><ele>3.0</ele><time>2026-04-03T08:29:30.002Z</time></trkpt><trkpt lat="43.58779408925621" lon="-5.9308216018121165"><ele>3.0</ele><time>2026-04-03T08:29:32.002Z</time></trkpt><trkpt lat="43.58782590466489" lon="-5.930912008658221"><ele>3.0</ele><time>2026-04-03T08:29:34.002Z</time></trkpt><trkpt lat="43.5878678397497" lon="-5.931037174281731"><ele>3.0</ele><time>2026-04-03T08:29:36.002Z</time></trkpt><trkpt lat="43.58790523621981" lon="-5.931127138219999"><ele>3.0</ele><time>2026-04-03T08:29:39.002Z</time></trkpt><trkpt lat="43.58794268100986" lon="-5.9312045962535835"><ele>3.0</ele><time>2026-04-03T08:29:41.002Z</time></trkpt><trkpt lat="43.58800156962273" lon="-5.931253009945753"><ele>3.0</ele><time>2026-04-03T08:29:43.002Z</time></trkpt><trkpt lat="43.5880677297663" lon="-5.931368277714289"><ele>3.4</ele><time>2026-04-03T08:29:45.002Z</time></trkpt><trkpt lat="43.588124259116526" lon="-5.931449702172174"><ele>3.8</ele><time>2026-04-03T08:29:47.002Z</time></trkpt><trkpt lat="43.5881998861989" lon="-5.93157780574885"><ele>4.2</ele><time>2026-04-03T08:29:49.002Z</time></trkpt><trkpt lat="43.58826864712119" lon="-5.931694779471396"><ele>4.6</ele><time>2026-04-03T08:29:51.002Z</time></trkpt><trkpt lat="43.58834999130586" lon="-5.9318015008107645"><ele>5.0</ele><time>2026-04-03T08:29:53.002Z</time></trkpt><trkpt lat="43.58840861310724" lon="-5.931905119337576"><ele>5.0</ele><time>2026-04-03T08:29:55.002Z</time></trkpt><trkpt lat="43.588447481830705" lon="-5.931995769703173"><ele>5.0</ele><time>2026-04-03T08:29:57.002Z</time></trkpt><trkpt lat="43.58848693141297" lon="-5.932088699990704"><ele>5.0</ele><time>2026-04-03T08:29:59.002Z</time></trkpt><trkpt lat="43.58856926746171" lon="-5.932225541440293"><ele>5.0</ele><time>2026-04-03T08:30:01.002Z</time></trkpt><trkpt lat="43.58864692286732" lon="-5.9323343682399265"><ele>5.0</ele><time>2026-04-03T08:30:03.001Z</time></trkpt><trkpt lat="43.588715787624096" lon="-5.932462033261065"><ele>4.6</ele><time>2026-04-03T08:30:05.001Z</time></trkpt><trkpt lat="43.588784291391825" lon="-5.93258686917437"><ele>4.2</ele><time>2026-04-03T08:30:07.001Z</time></trkpt><trkpt lat="43.58886432926023" lon="-5.932707826473986"><ele>3.8</ele><time>2026-04-03T08:30:09.001Z</time></trkpt><trkpt lat="43.58893769066251" lon="-5.932827668703742"><ele>3.4</ele><time>2026-04-03T08:30:11.001Z</time></trkpt><trkpt lat="43.58899130136049" lon="-5.932940024184462"><ele>3.0</ele><time>2026-04-03T08:30:13.001Z</time></trkpt><trkpt lat="43.589047169770744" lon="-5.933058232917775"><ele>3.0</ele><time>2026-04-03T08:30:15.001Z</time></trkpt><trkpt lat="43.58911052980442" lon="-5.933104147418638"><ele>3.0</ele><time>2026-04-03T08:30:16.001Z</time></trkpt><trkpt lat="43.58915388071579" lon="-5.9331797046740835"><ele>3.0</ele><time>2026-04-03T08:30:17.001Z</time></trkpt><trkpt lat="43.58920582687927" lon="-5.933281120116357"><ele>3.0</ele><time>2026-04-03T08:30:19.001Z</time></trkpt><trkpt lat="43.589292310535996" lon="-5.933390928471561"><ele>3.0</ele><time>2026-04-03T08:30:21.001Z</time></trkpt><trkpt lat="43.589363577315126" lon="-5.933483742347109"><ele>3.0</ele><time>2026-04-03T08:30:23.001Z</time></trkpt><trkpt lat="43.5894076267285" lon="-5.933583608749677"><ele>2.9999999999999996</ele><time>2026-04-03T08:30:25.001Z</time></trkpt><trkpt lat="43.589437742358484" lon="-5.933683295867016"><ele>3.0</ele><time>2026-04-03T08:30:27.001Z</time></trkpt><trkpt lat="43.58945434006857" lon="-5.933784357710702"><ele>3.0</ele><time>2026-04-03T08:30:29.001Z</time></trkpt><trkpt lat="43.589448241700964" lon="-5.933872211067497"><ele>3.0</ele><time>2026-04-03T08:30:31.001Z</time></trkpt><trkpt lat="43.58944182895574" lon="-5.933965451964105"><ele>3.0</ele><time>2026-04-03T08:30:33.001Z</time></trkpt><trkpt lat="43.58942568842386" lon="-5.934053422106827"><ele>2.9999999999999996</ele><time>2026-04-03T08:30:35.001Z</time></trkpt><trkpt lat="43.58941708237413" lon="-5.934154900964202"><ele>3.0</ele><time>2026-04-03T08:30:37.001Z</time></trkpt><trkpt lat="43.589404520449605" lon="-5.934259599568385"><ele>3.1428571428571423</ele><time>2026-04-03T08:30:39.001Z</time></trkpt><trkpt lat="43.58937623550784" lon="-5.9343464367925804"><ele>3.2857142857142856</ele><time>2026-04-03T08:30:41.001Z</time></trkpt><trkpt lat="43.58936236266832" lon="-5.93444730661987"><ele>3.4285714285714284</ele><time>2026-04-03T08:30:43.001Z</time></trkpt><trkpt lat="43.58932868878247" lon="-5.934525208815813"><ele>3.571428571428571</ele><time>2026-04-03T08:30:45.001Z</time></trkpt><trkpt lat="43.589295152934554" lon="-5.934660832809648"><ele>3.714285714285714</ele><time>2026-04-03T08:30:48.001Z</time></trkpt><trkpt lat="43.58925839425936" lon="-5.934746321203585"><ele>3.8571428571428568</ele><time>2026-04-03T08:30:51.003Z</time></trkpt><trkpt lat="43.58921524375114" lon="-5.9348120435905"><ele>4.0</ele><time>2026-04-03T08:30:53.003Z</time></trkpt><trkpt lat="43.58918524862385" lon="-5.934912919505122"><ele>3.9999999999999996</ele><time>2026-04-03T08:30:55.003Z</time></trkpt><trkpt lat="43.58914109102534" lon="-5.934991782691149"><ele>4.0</ele><time>2026-04-03T08:30:57.002Z</time></trkpt><trkpt lat="43.58910233270314" lon="-5.935076232075785"><ele>4.0</ele><time>2026-04-03T08:30:59.003Z</time></trkpt><trkpt lat="43.58907880584287" lon="-5.9351842001932305"><ele>4.0</ele><time>2026-04-03T08:31:01.003Z</time></trkpt><trkpt lat="43.58903181233611" lon="-5.935278701336242"><ele>3.9999999999999996</ele><time>2026-04-03T08:31:03.003Z</time></trkpt><trkpt lat="43.58899382571847" lon="-5.935363246307871"><ele>4.0</ele><time>2026-04-03T08:31:05.003Z</time></trkpt><trkpt lat="43.58895100020266" lon="-5.935443295178936"><ele>3.571428571428571</ele><time>2026-04-03T08:31:07.003Z</time></trkpt><trkpt lat="43.5889127327276" lon="-5.9355379013728795"><ele>3.1428571428571423</ele><time>2026-04-03T08:31:09.003Z</time></trkpt><trkpt lat="43.58887511900929" lon="-5.935624372745211"><ele>2.714285714285714</ele><time>2026-04-03T08:31:11.003Z</time></trkpt><trkpt lat="43.58882914052615" lon="-5.935707133299866"><ele>2.2857142857142856</ele><time>2026-04-03T08:31:13.003Z</time></trkpt><trkpt lat="43.58878064570867" lon="-5.935774759640176"><ele>1.857142857142857</ele><time>2026-04-03T08:31:15.003Z</time></trkpt><trkpt lat="43.588732687408545" lon="-5.9358600947298745"><ele>1.4285714285714284</ele><time>2026-04-03T08:31:17.003Z</time></trkpt><trkpt lat="43.58868535012928" lon="-5.935928403740946"><ele>1.0</ele><time>2026-04-03T08:31:19.003Z</time></trkpt><trkpt lat="43.58863992908812" lon="-5.936009441293134"><ele>0.9999999999999999</ele><time>2026-04-03T08:31:21.003Z</time></trkpt><trkpt lat="43.588597640602714" lon="-5.936102902095154"><ele>1.0</ele><time>2026-04-03T08:31:23.003Z</time></trkpt><trkpt lat="43.58856690954633" lon="-5.936195605277305"><ele>1.0</ele><time>2026-04-03T08:31:25.003Z</time></trkpt><trkpt lat="43.5885268522908" lon="-5.936274491611318"><ele>1.0</ele><time>2026-04-03T08:31:27.003Z</time></trkpt><trkpt lat="43.58847828639221" lon="-5.9363511928380825"><ele>0.9999999999999999</ele><time>2026-04-03T08:31:29.003Z</time></trkpt><trkpt lat="43.58843200962661" lon="-5.936433528104972"><ele>1.0</ele><time>2026-04-03T08:31:31.002Z</time></trkpt><trkpt lat="43.58838568375956" lon="-5.936526600539514"><ele>1.0</ele><time>2026-04-03T08:31:33.002Z</time></trkpt><trkpt lat="43.58833947937424" lon="-5.936592846851414"><ele>0.9999999999999999</ele><time>2026-04-03T08:31:35.002Z</time></trkpt><trkpt lat="43.58828859278063" lon="-5.93666608151003"><ele>1.0</ele><time>2026-04-03T08:31:37.002Z</time></trkpt><trkpt lat="43.5882310725466" lon="-5.936748779972312"><ele>1.0</ele><time>2026-04-03T08:31:39.002Z</time></trkpt><trkpt lat="43.588196146607594" lon="-5.936828539409901"><ele>0.9999999999999999</ele><time>2026-04-03T08:31:41.002Z</time></trkpt><trkpt lat="43.588148080584546" lon="-5.936910561055255"><ele>1.0</ele><time>2026-04-03T08:31:43.002Z</time></trkpt><trkpt lat="43.588093822581975" lon="-5.936991709162565"><ele>1.0</ele><time>2026-04-03T08:31:45.002Z</time></trkpt><trkpt lat="43.588023555337124" lon="-5.937062391332273"><ele>0.9999999999999999</ele><time>2026-04-03T08:31:47.002Z</time></trkpt><trkpt lat="43.587957697742645" lon="-5.937118154551506"><ele>1.0</ele><time>2026-04-03T08:31:49.002Z</time></trkpt><trkpt lat="43.58790765437309" lon="-5.937175334751077"><ele>1.0</ele><time>2026-04-03T08:31:51.002Z</time></trkpt><trkpt lat="43.587831599224536" lon="-5.937222090239239"><ele>1.0</ele><time>2026-04-03T08:31:53.002Z</time></trkpt><trkpt lat="43.58776323935858" lon="-5.937294421014014"><ele>0.9999999999999999</ele><time>2026-04-03T08:31:55.002Z</time></trkpt><trkpt lat="43.587708711100134" lon="-5.937358161619619"><ele>1.0</ele><time>2026-04-03T08:31:57.002Z</time></trkpt><trkpt lat="43.587649103840306" lon="-5.937401100178843"><ele>1.1428571428571428</ele><time>2026-04-03T08:31:59.002Z</time></trkpt><trkpt lat="43.58758061487585" lon="-5.937479822145114"><ele>1.2857142857142856</ele><time>2026-04-03T08:32:01.002Z</time></trkpt><trkpt lat="43.587527249780486" lon="-5.937528037888188"><ele>1.4285714285714284</ele><time>2026-04-03T08:32:03.002Z</time></trkpt><trkpt lat="43.58746898110969" lon="-5.937580115702082"><ele>1.5714285714285714</ele><time>2026-04-03T08:32:05.002Z</time></trkpt><trkpt lat="43.587414443716305" lon="-5.937627902676036"><ele>1.714285714285714</ele><time>2026-04-03T08:32:07.002Z</time></trkpt><trkpt lat="43.587391944085574" lon="-5.937727633108368"><ele>1.857142857142857</ele><time>2026-04-03T08:32:09.002Z</time></trkpt><trkpt lat="43.58736159692082" lon="-5.937815981586544"><ele>2.0</ele><time>2026-04-03T08:32:11.002Z</time></trkpt><trkpt lat="43.587306447654285" lon="-5.937866533452113"><ele>2.1666666666666665</ele><time>2026-04-03T08:32:13.002Z</time></trkpt><trkpt lat="43.587242619924695" lon="-5.937978718203621"><ele>2.333333333333333</ele><time>2026-04-03T08:32:16.002Z</time></trkpt><trkpt lat="43.587209061405424" lon="-5.93805979886142"><ele>2.5</ele><time>2026-04-03T08:32:18.002Z</time></trkpt><trkpt lat="43.58713608131237" lon="-5.938177184883828"><ele>2.6666666666666665</ele><time>2026-04-03T08:32:21.002Z</time></trkpt><trkpt lat="43.58709727667718" lon="-5.93825037306016"><ele>2.8333333333333335</ele><time>2026-04-03T08:32:23.002Z</time></trkpt><trkpt lat="43.587084707345014" lon="-5.938337170083361"><ele>3.0</ele><time>2026-04-03T08:32:25.002Z</time></trkpt><trkpt lat="43.5870356789655" lon="-5.938438160641648"><ele>3.5</ele><time>2026-04-03T08:32:27.002Z</time></trkpt><trkpt lat="43.5869821716738" lon="-5.93850830529267"><ele>4.0</ele><time>2026-04-03T08:32:29.002Z</time></trkpt><trkpt lat="43.586935302831485" lon="-5.938608026295619"><ele>4.5</ele><time>2026-04-03T08:32:31.002Z</time></trkpt><trkpt lat="43.58690584648624" lon="-5.938723186403198"><ele>5.0</ele><time>2026-04-03T08:32:33.002Z</time></trkpt><trkpt lat="43.58686485517333" lon="-5.938810520592806"><ele>5.5</ele><time>2026-04-03T08:32:35.002Z</time></trkpt><trkpt lat="43.58682330284119" lon="-5.938888996179802"><ele>6.0</ele><time>2026-04-03T08:32:37.001Z</time></trkpt><trkpt lat="43.58677455942166" lon="-5.938978252088646"><ele>6.0</ele><time>2026-04-03T08:32:39.001Z</time></trkpt><trkpt lat="43.586727367628974" lon="-5.939069891792979"><ele>6.0</ele><time>2026-04-03T08:32:41.001Z</time></trkpt><trkpt lat="43.58669187528368" lon="-5.9391663370821925"><ele>6.0</ele><time>2026-04-03T08:32:43.001Z</time></trkpt><trkpt lat="43.58663919871289" lon="-5.939242816517077"><ele>6.0</ele><time>2026-04-03T08:32:45.001Z</time></trkpt><trkpt lat="43.58660203980263" lon="-5.939336127533938"><ele>6.0</ele><time>2026-04-03T08:32:47.001Z</time></trkpt><trkpt lat="43.58655182870423" lon="-5.939407296587745"><ele>6.0</ele><time>2026-04-03T08:32:49.001Z</time></trkpt><trkpt lat="43.58649884250033" lon="-5.939479634293705"><ele>5.999999999999999</ele><time>2026-04-03T08:32:51.001Z</time></trkpt><trkpt lat="43.5864470654968" lon="-5.939547248574092"><ele>6.0</ele><time>2026-04-03T08:32:53.001Z</time></trkpt><trkpt lat="43.58641604806628" lon="-5.939627388287847"><ele>6.0</ele><time>2026-04-03T08:32:55.003Z</time></trkpt><trkpt lat="43.58637960458639" lon="-5.9397068607612"><ele>6.0</ele><time>2026-04-03T08:32:57.003Z</time></trkpt><trkpt lat="43.58633425151658" lon="-5.939789679486167"><ele>6.0</ele><time>2026-04-03T08:32:59.003Z</time></trkpt><trkpt lat="43.586297896538426" lon="-5.9398724901208"><ele>5.999999999999999</ele><time>2026-04-03T08:33:01.003Z</time></trkpt><trkpt lat="43.586233665298536" lon="-5.939935720842224"><ele>6.0</ele><time>2026-04-03T08:33:03.003Z</time></trkpt><trkpt lat="43.58617852011632" lon="-5.940012456932671"><ele>5.571428571428571</ele><time>2026-04-03T08:33:05.003Z</time></trkpt><trkpt lat="43.58613465806859" lon="-5.940098049279953"><ele>5.142857142857142</ele><time>2026-04-03T08:33:07.003Z</time></trkpt><trkpt lat="43.586085536041246" lon="-5.940176714891996"><ele>4.7142857142857135</ele><time>2026-04-03T08:33:09.003Z</time></trkpt><trkpt lat="43.58602482732483" lon="-5.940252152107482"><ele>4.285714285714286</ele><time>2026-04-03T08:33:11.003Z</time></trkpt><trkpt lat="43.58596578281993" lon="-5.940314295003438"><ele>3.8571428571428568</ele><time>2026-04-03T08:33:13.003Z</time></trkpt><trkpt lat="43.58591588137997" lon="-5.940379188396812"><ele>3.4285714285714284</ele><time>2026-04-03T08:33:15.003Z</time></trkpt><trkpt lat="43.585865206375566" lon="-5.940453301484882"><ele>3.0</ele><time>2026-04-03T08:33:17.003Z</time></trkpt><trkpt lat="43.585812509568946" lon="-5.940533200907285"><ele>2.9999999999999996</ele><time>2026-04-03T08:33:19.003Z</time></trkpt><trkpt lat="43.58575603838964" lon="-5.9405987530296755"><ele>3.0</ele><time>2026-04-03T08:33:21.003Z</time></trkpt><trkpt lat="43.58571035843115" lon="-5.940680131876903"><ele>3.0</ele><time>2026-04-03T08:33:23.003Z</time></trkpt><trkpt lat="43.58563978136729" lon="-5.9407201970920624"><ele>3.0</ele><time>2026-04-03T08:33:25.003Z</time></trkpt><trkpt lat="43.58558182787387" lon="-5.940785170971971"><ele>3.0</ele><time>2026-04-03T08:33:27.003Z</time></trkpt><trkpt lat="43.58552718627589" lon="-5.940853905019788"><ele>2.9999999999999996</ele><time>2026-04-03T08:33:29.003Z</time></trkpt><trkpt lat="43.58548216229805" lon="-5.940925713888444"><ele>3.0</ele><time>2026-04-03T08:33:31.003Z</time></trkpt><trkpt lat="43.585423863887414" lon="-5.9409879371597105"><ele>2.8571428571428568</ele><time>2026-04-03T08:33:33.003Z</time></trkpt><trkpt lat="43.58537333108035" lon="-5.941050890423078"><ele>2.7142857142857144</ele><time>2026-04-03T08:33:35.003Z</time></trkpt><trkpt lat="43.58530742314694" lon="-5.9411415415162105"><ele>2.571428571428571</ele><time>2026-04-03T08:33:38.002Z</time></trkpt><trkpt lat="43.58526407171394" lon="-5.941215051195946"><ele>2.4285714285714284</ele><time>2026-04-03T08:33:40.002Z</time></trkpt><trkpt lat="43.58522031544504" lon="-5.941292425865312"><ele>2.2857142857142856</ele><time>2026-04-03T08:33:42.002Z</time></trkpt><trkpt lat="43.58517575522449" lon="-5.941372387678686"><ele>2.142857142857143</ele><time>2026-04-03T08:33:44.002Z</time></trkpt><trkpt lat="43.585132963051514" lon="-5.941458051095109"><ele>2.0</ele><time>2026-04-03T08:33:46.002Z</time></trkpt><trkpt lat="43.585085795631876" lon="-5.941539774744182"><ele>1.8333333333333333</ele><time>2026-04-03T08:33:48.002Z</time></trkpt><trkpt lat="43.5850424037338" lon="-5.941621729815892"><ele>1.6666666666666665</ele><time>2026-04-03T08:33:50.002Z</time></trkpt><trkpt lat="43.58499341835064" lon="-5.941695941418229"><ele>1.5</ele><time>2026-04-03T08:33:52.002Z</time></trkpt><trkpt lat="43.584939762558726" lon="-5.941771832382189"><ele>1.3333333333333333</ele><time>2026-04-03T08:33:54.002Z</time></trkpt><trkpt lat="43.58488390014669" lon="-5.941833282698784"><ele>1.1666666666666665</ele><time>2026-04-03T08:33:56.002Z</time></trkpt><trkpt lat="43.5848254978155" lon="-5.941915746899533"><ele>1.0</ele><time>2026-04-03T08:33:58.002Z</time></trkpt><trkpt lat="43.58477109046241" lon="-5.942004657054688"><ele>1.4285714285714284</ele><time>2026-04-03T08:34:00.002Z</time></trkpt><trkpt lat="43.584715369640634" lon="-5.942063661269962"><ele>1.857142857142857</ele><time>2026-04-03T08:34:02.002Z</time></trkpt><trkpt lat="43.58467498552494" lon="-5.942137127930698"><ele>2.2857142857142856</ele><time>2026-04-03T08:34:04.002Z</time></trkpt><trkpt lat="43.584611813032225" lon="-5.942188813854846"><ele>2.714285714285714</ele><time>2026-04-03T08:34:06.002Z</time></trkpt><trkpt lat="43.584555130701084" lon="-5.94226431881157"><ele>3.1428571428571423</ele><time>2026-04-03T08:34:08.002Z</time></trkpt><trkpt lat="43.584499240617774" lon="-5.942325503782602"><ele>3.571428571428571</ele><time>2026-04-03T08:34:10.002Z</time></trkpt><trkpt lat="43.584447929284444" lon="-5.94240851139718"><ele>4.0</ele><time>2026-04-03T08:34:13.002Z</time></trkpt><trkpt lat="43.58436446153165" lon="-5.942505479208927"><ele>4.285714285714286</ele><time>2026-04-03T08:34:16.002Z</time></trkpt><trkpt lat="43.58430482323719" lon="-5.942573334636413"><ele>4.571428571428571</ele><time>2026-04-03T08:34:19.002Z</time></trkpt><trkpt lat="43.58426112626187" lon="-5.942640185875039"><ele>4.857142857142857</ele><time>2026-04-03T08:34:21.002Z</time></trkpt><trkpt lat="43.58418930149357" lon="-5.9427286377686555"><ele>5.142857142857142</ele><time>2026-04-03T08:34:23.002Z</time></trkpt><trkpt lat="43.58414896472015" lon="-5.94279945234043"><ele>5.428571428571429</ele><time>2026-04-03T08:34:24.002Z</time></trkpt><trkpt lat="43.5841064983575" lon="-5.942867984584223"><ele>5.7142857142857135</ele><time>2026-04-03T08:34:25.002Z</time></trkpt><trkpt lat="43.584060303148696" lon="-5.942935212202202"><ele>6.0</ele><time>2026-04-03T08:34:26.002Z</time></trkpt><trkpt lat="43.58400991410865" lon="-5.943008152175882"><ele>6.0</ele><time>2026-04-03T08:34:27.002Z</time></trkpt><trkpt lat="43.5839704382532" lon="-5.943090810349081"><ele>6.0</ele><time>2026-04-03T08:34:28.002Z</time></trkpt><trkpt lat="43.583925754145135" lon="-5.943173554678107"><ele>6.0</ele><time>2026-04-03T08:34:29.002Z</time></trkpt><trkpt lat="43.58384541766234" lon="-5.943255131075396"><ele>6.0</ele><time>2026-04-03T08:34:32.002Z</time></trkpt><trkpt lat="43.58378063891159" lon="-5.943363914361396"><ele>6.0</ele><time>2026-04-03T08:34:34.002Z</time></trkpt><trkpt lat="43.58371885569758" lon="-5.9434635565935325"><ele>6.0</ele><time>2026-04-03T08:34:36.002Z</time></trkpt><trkpt lat="43.58365189141836" lon="-5.9435463692293915"><ele>6.0</ele><time>2026-04-03T08:34:38.002Z</time></trkpt><trkpt lat="43.58357881436634" lon="-5.9436270739875425"><ele>6.0</ele><time>2026-04-03T08:34:40.002Z</time></trkpt><trkpt lat="43.58350905571212" lon="-5.943709648397252"><ele>6.0</ele><time>2026-04-03T08:34:42.002Z</time></trkpt><trkpt lat="43.58344294222207" lon="-5.943774353027574"><ele>6.0</ele><time>2026-04-03T08:34:44.001Z</time></trkpt><trkpt lat="43.58335879787757" lon="-5.94383546218061"><ele>6.0</ele><time>2026-04-03T08:34:46.001Z</time></trkpt><trkpt lat="43.583305618025385" lon="-5.943927641086844"><ele>6.0</ele><time>2026-04-03T08:34:48.001Z</time></trkpt><trkpt lat="43.58325599525094" lon="-5.9440117007112505"><ele>6.0</ele><time>2026-04-03T08:34:50.001Z</time></trkpt><trkpt lat="43.583204483354415" lon="-5.944102224739104"><ele>6.0</ele><time>2026-04-03T08:34:52.001Z</time></trkpt><trkpt lat="43.58315602595067" lon="-5.944173368758808"><ele>6.0</ele><time>2026-04-03T08:34:54.001Z</time></trkpt><trkpt lat="43.5831217807749" lon="-5.944281977762344"><ele>6.0</ele><time>2026-04-03T08:34:56.001Z</time></trkpt><trkpt lat="43.58306510092341" lon="-5.944357654186798"><ele>6.0</ele><time>2026-04-03T08:34:58.001Z</time></trkpt><trkpt lat="43.58299956877225" lon="-5.94444122283722"><ele>6.0</ele><time>2026-04-03T08:35:00.003Z</time></trkpt><trkpt lat="43.582947423547566" lon="-5.94453131298532"><ele>6.333333333333333</ele><time>2026-04-03T08:35:02.003Z</time></trkpt><trkpt lat="43.5828763913911" lon="-5.944592071283063"><ele>6.666666666666666</ele><time>2026-04-03T08:35:04.003Z</time></trkpt><trkpt lat="43.582820355110954" lon="-5.944676187835216"><ele>7.0</ele><time>2026-04-03T08:35:06.003Z</time></trkpt><trkpt lat="43.58276119655563" lon="-5.9447531962709155"><ele>7.333333333333333</ele><time>2026-04-03T08:35:08.003Z</time></trkpt><trkpt lat="43.58271862390252" lon="-5.944833569783096"><ele>7.666666666666666</ele><time>2026-04-03T08:35:10.003Z</time></trkpt><trkpt lat="43.58267326764515" lon="-5.944924706607273"><ele>8.0</ele><time>2026-04-03T08:35:12.003Z</time></trkpt><trkpt lat="43.58261802656468" lon="-5.945011399856448"><ele>8.285714285714285</ele><time>2026-04-03T08:35:14.003Z</time></trkpt><trkpt lat="43.58256077825536" lon="-5.945093478206097"><ele>8.571428571428571</ele><time>2026-04-03T08:35:16.003Z</time></trkpt><trkpt lat="43.58251251104926" lon="-5.945169352143897"><ele>8.857142857142858</ele><time>2026-04-03T08:35:18.003Z</time></trkpt><trkpt lat="43.58245907518647" lon="-5.945243751547469"><ele>9.142857142857142</ele><time>2026-04-03T08:35:20.003Z</time></trkpt><trkpt lat="43.58242184255701" lon="-5.94531439910843"><ele>9.428571428571429</ele><time>2026-04-03T08:35:22.003Z</time></trkpt><trkpt lat="43.5823779399726" lon="-5.945392040844233"><ele>9.714285714285714</ele><time>2026-04-03T08:35:24.003Z</time></trkpt><trkpt lat="43.58233268172036" lon="-5.945478415025226"><ele>10.0</ele><time>2026-04-03T08:35:26.003Z</time></trkpt><trkpt lat="43.58228002955741" lon="-5.9455466818588025"><ele>10.0</ele><time>2026-04-03T08:35:28.003Z</time></trkpt><trkpt lat="43.5822360858713" lon="-5.945616967873621"><ele>10.0</ele><time>2026-04-03T08:35:30.003Z</time></trkpt><trkpt lat="43.58219992909517" lon="-5.945688343016219"><ele>10.0</ele><time>2026-04-03T08:35:32.003Z</time></trkpt><trkpt lat="43.582168314989346" lon="-5.945764861989114"><ele>10.0</ele><time>2026-04-03T08:35:34.003Z</time></trkpt><trkpt lat="43.582112538513314" lon="-5.94586596144679"><ele>10.0</ele><time>2026-04-03T08:35:37.003Z</time></trkpt><trkpt lat="43.58203879027093" lon="-5.945965274054202"><ele>10.0</ele><time>2026-04-03T08:35:41.003Z</time></trkpt><trkpt lat="43.5819955065039" lon="-5.946032655608749"><ele>9.166666666666668</ele><time>2026-04-03T08:35:44.003Z</time></trkpt><trkpt lat="43.581914703000024" lon="-5.94610129529641"><ele>8.333333333333334</ele><time>2026-04-03T08:35:47.003Z</time></trkpt><trkpt lat="43.58185634715257" lon="-5.946161756788659"><ele>7.5</ele><time>2026-04-03T08:35:50.003Z</time></trkpt><trkpt lat="43.58179019338274" lon="-5.946234615480947"><ele>6.666666666666667</ele><time>2026-04-03T08:35:53.003Z</time></trkpt><trkpt lat="43.58172278934529" lon="-5.94632859383906"><ele>5.833333333333334</ele><time>2026-04-03T08:35:56.003Z</time></trkpt><trkpt lat="43.58166797056552" lon="-5.946387262033516"><ele>5.0</ele><time>2026-04-03T08:35:58.003Z</time></trkpt><trkpt lat="43.58161134163052" lon="-5.946470617681344"><ele>5.0</ele><time>2026-04-03T08:36:00.003Z</time></trkpt><trkpt lat="43.58155190145629" lon="-5.94654762747404"><ele>5.0</ele><time>2026-04-03T08:36:02.003Z</time></trkpt><trkpt lat="43.581485390461786" lon="-5.946630218835926"><ele>5.0</ele><time>2026-04-03T08:36:04.003Z</time></trkpt><trkpt lat="43.58144299653809" lon="-5.9467182709615845"><ele>5.0</ele><time>2026-04-03T08:36:06.003Z</time></trkpt><trkpt lat="43.58136309685337" lon="-5.946801086117344"><ele>5.0</ele><time>2026-04-03T08:36:08.003Z</time></trkpt><trkpt lat="43.58129941290764" lon="-5.946882703450796"><ele>5.0</ele><time>2026-04-03T08:36:10.003Z</time></trkpt><trkpt lat="43.58123863827452" lon="-5.947013135228703"><ele>5.166666666666667</ele><time>2026-04-03T08:36:12.003Z</time></trkpt><trkpt lat="43.58118042894143" lon="-5.94717223481343"><ele>5.333333333333334</ele><time>2026-04-03T08:36:14.003Z</time></trkpt><trkpt lat="43.58114063941693" lon="-5.947250006731203"><ele>5.5</ele><time>2026-04-03T08:36:15.002Z</time></trkpt><trkpt lat="43.581093565738875" lon="-5.947343597754372"><ele>5.666666666666667</ele><time>2026-04-03T08:36:16.002Z</time></trkpt><trkpt lat="43.58104411007077" lon="-5.947451711334009"><ele>5.833333333333333</ele><time>2026-04-03T08:36:17.002Z</time></trkpt><trkpt lat="43.581004752158194" lon="-5.947536645294412"><ele>6.0</ele><time>2026-04-03T08:36:18.002Z</time></trkpt><trkpt lat="43.580966626696" lon="-5.947634110540179"><ele>6.0</ele><time>2026-04-03T08:36:19.002Z</time></trkpt><trkpt lat="43.580913228901494" lon="-5.9476959917050864"><ele>6.0</ele><time>2026-04-03T08:36:20.002Z</time></trkpt><trkpt lat="43.580853859260365" lon="-5.947750095103555"><ele>6.0</ele><time>2026-04-03T08:36:21.002Z</time></trkpt><trkpt lat="43.57977401522194" lon="-5.9486245853218795"><ele>6.166666666666667</ele><time>2026-04-03T08:36:23.002Z</time></trkpt><trkpt lat="43.57971531542361" lon="-5.9486803215689115"><ele>6.333333333333334</ele><time>2026-04-03T08:36:24.002Z</time></trkpt><trkpt lat="43.57961262307898" lon="-5.948786390994337"><ele>6.5</ele><time>2026-04-03T08:36:26.002Z</time></trkpt><trkpt lat="43.57955653456305" lon="-5.948841165761597"><ele>6.666666666666667</ele><time>2026-04-03T08:36:27.002Z</time></trkpt><trkpt lat="43.579501016781876" lon="-5.948890490641577"><ele>6.833333333333334</ele><time>2026-04-03T08:36:28.002Z</time></trkpt><trkpt lat="43.57943870953153" lon="-5.948947915365696"><ele>7.0</ele><time>2026-04-03T08:36:29.002Z</time></trkpt><trkpt lat="43.579385449830895" lon="-5.949005811171069"><ele>7.333333333333334</ele><time>2026-04-03T08:36:30.002Z</time></trkpt><trkpt lat="43.57929715667251" lon="-5.949043551560527"><ele>7.666666666666667</ele><time>2026-04-03T08:36:31.002Z</time></trkpt><trkpt lat="43.57922315959667" lon="-5.949078636812085"><ele>8.0</ele><time>2026-04-03T08:36:32.002Z</time></trkpt><trkpt lat="43.57916328463743" lon="-5.949108669527974"><ele>8.333333333333334</ele><time>2026-04-03T08:36:33.002Z</time></trkpt><trkpt lat="43.579073381095704" lon="-5.9491751002982625"><ele>8.666666666666666</ele><time>2026-04-03T08:36:35.002Z</time></trkpt><trkpt lat="43.57900636832645" lon="-5.949251256314858"><ele>9.0</ele><time>2026-04-03T08:36:37.002Z</time></trkpt><trkpt lat="43.57894476887101" lon="-5.949355828074293"><ele>9.333333333333334</ele><time>2026-04-03T08:36:39.002Z</time></trkpt><trkpt lat="43.578893354188516" lon="-5.949427515178119"><ele>9.666666666666666</ele><time>2026-04-03T08:36:41.002Z</time></trkpt><trkpt lat="43.57884841482908" lon="-5.949529401742538"><ele>10.0</ele><time>2026-04-03T08:36:43.002Z</time></trkpt><trkpt lat="43.57881602252086" lon="-5.949620211489444"><ele>10.333333333333332</ele><time>2026-04-03T08:36:46.002Z</time></trkpt><trkpt lat="43.578829909601374" lon="-5.949720217298779"><ele>10.666666666666666</ele><time>2026-04-03T08:36:50.002Z</time></trkpt><trkpt lat="43.578768949529" lon="-5.949818620061849"><ele>11.0</ele><time>2026-04-03T08:36:53.002Z</time></trkpt><trkpt lat="43.57874868501827" lon="-5.949904027388721"><ele>11.0</ele><time>2026-04-03T08:36:56.002Z</time></trkpt><trkpt lat="43.57872677713687" lon="-5.949988651332274"><ele>11.0</ele><time>2026-04-03T08:36:59.002Z</time></trkpt><trkpt lat="43.57866957969843" lon="-5.950047032423179"><ele>11.0</ele><time>2026-04-03T08:37:01.002Z</time></trkpt><trkpt lat="43.57863939454366" lon="-5.950180665694736"><ele>11.0</ele><time>2026-04-03T08:37:03.002Z</time></trkpt><trkpt lat="43.5786233658572" lon="-5.950267688827541"><ele>11.0</ele><time>2026-04-03T08:37:05.002Z</time></trkpt><trkpt lat="43.57854962401128" lon="-5.9503261401918035"><ele>11.0</ele><time>2026-04-03T08:37:08.003Z</time></trkpt><trkpt lat="43.57848621769847" lon="-5.950367711101812"><ele>11.0</ele><time>2026-04-03T08:37:11.003Z</time></trkpt><trkpt lat="43.57841942468401" lon="-5.950355366458163"><ele>11.0</ele><time>2026-04-03T08:37:14.003Z</time></trkpt><trkpt lat="43.57835429061587" lon="-5.950342590945411"><ele>11.0</ele><time>2026-04-03T08:37:17.003Z</time></trkpt><trkpt lat="43.57827152783961" lon="-5.950315424565727"><ele>11.0</ele><time>2026-04-03T08:37:20.003Z</time></trkpt><trkpt lat="43.57820571227265" lon="-5.950317838827016"><ele>11.0</ele><time>2026-04-03T08:37:23.003Z</time></trkpt><trkpt lat="43.578103696040905" lon="-5.950326545712763"><ele>11.0</ele><time>2026-04-03T08:37:26.003Z</time></trkpt><trkpt lat="43.57801440755708" lon="-5.950326636004282"><ele>11.0</ele><time>2026-04-03T08:37:29.003Z</time></trkpt><trkpt lat="43.577924142283194" lon="-5.950326657850501"><ele>11.0</ele><time>2026-04-03T08:37:31.003Z</time></trkpt><trkpt lat="43.57781051782808" lon="-5.950352588770893"><ele>11.0</ele><time>2026-04-03T08:37:33.003Z</time></trkpt><trkpt lat="43.57772913355753" lon="-5.950325523757999"><ele>11.0</ele><time>2026-04-03T08:37:35.003Z</time></trkpt><trkpt lat="43.577650227695564" lon="-5.950315384431336"><ele>11.0</ele><time>2026-04-03T08:37:37.003Z</time></trkpt><trkpt lat="43.57755072955279" lon="-5.9502838817130375"><ele>11.5</ele><time>2026-04-03T08:37:39.003Z</time></trkpt><trkpt lat="43.577476020405655" lon="-5.950250369832362"><ele>12.0</ele><time>2026-04-03T08:37:40.003Z</time></trkpt><trkpt lat="43.57741366730627" lon="-5.950226717865373"><ele>12.5</ele><time>2026-04-03T08:37:41.003Z</time></trkpt><trkpt lat="43.577354250020186" lon="-5.950197345763335"><ele>13.0</ele><time>2026-04-03T08:37:42.003Z</time></trkpt><trkpt lat="43.577233647695145" lon="-5.950153524828763"><ele>13.500000000000002</ele><time>2026-04-03T08:37:44.003Z</time></trkpt><trkpt lat="43.577171027164916" lon="-5.950129670267674"><ele>14.0</ele><time>2026-04-03T08:37:45.003Z</time></trkpt><trkpt lat="43.577096429183825" lon="-5.950138136798925"><ele>14.000000000000002</ele><time>2026-04-03T08:37:46.003Z</time></trkpt><trkpt lat="43.577019583304036" lon="-5.950153089025706"><ele>14.0</ele><time>2026-04-03T08:37:47.003Z</time></trkpt><trkpt lat="43.57694848590152" lon="-5.950178945241122"><ele>14.0</ele><time>2026-04-03T08:37:48.003Z</time></trkpt><trkpt lat="43.576899817174656" lon="-5.950262874999387"><ele>14.0</ele><time>2026-04-03T08:37:49.003Z</time></trkpt><trkpt lat="43.57686144360962" lon="-5.950388157504502"><ele>14.000000000000002</ele><time>2026-04-03T08:37:51.003Z</time></trkpt><trkpt lat="43.576785907549635" lon="-5.9504984418595335"><ele>14.0</ele><time>2026-04-03T08:37:53.003Z</time></trkpt><trkpt lat="43.576736682571195" lon="-5.950561161625016"><ele>13.714285714285714</ele><time>2026-04-03T08:37:54.003Z</time></trkpt><trkpt lat="43.57669504924637" lon="-5.950630054492732"><ele>13.428571428571429</ele><time>2026-04-03T08:37:55.003Z</time></trkpt><trkpt lat="43.57663114872367" lon="-5.950741702152738"><ele>13.142857142857142</ele><time>2026-04-03T08:37:57.003Z</time></trkpt><trkpt lat="43.57657850702509" lon="-5.950797472770761"><ele>12.857142857142858</ele><time>2026-04-03T08:37:58.003Z</time></trkpt><trkpt lat="43.576520719043494" lon="-5.950848720902838"><ele>12.571428571428571</ele><time>2026-04-03T08:37:59.003Z</time></trkpt><trkpt lat="43.57647359244026" lon="-5.950912717040424"><ele>12.285714285714285</ele><time>2026-04-03T08:38:00.003Z</time></trkpt><trkpt lat="43.576441857487296" lon="-5.950994548801278"><ele>12.0</ele><time>2026-04-03T08:38:01.003Z</time></trkpt><trkpt lat="43.576401687805166" lon="-5.951145450187722"><ele>12.0</ele><time>2026-04-03T08:38:03.003Z</time></trkpt><trkpt lat="43.57637022948183" lon="-5.951287759656823"><ele>12.0</ele><time>2026-04-03T08:38:05.003Z</time></trkpt><trkpt lat="43.57632122698905" lon="-5.951414641567857"><ele>12.0</ele><time>2026-04-03T08:38:07.003Z</time></trkpt><trkpt lat="43.576286130750425" lon="-5.9515225040674"><ele>12.0</ele><time>2026-04-03T08:38:09.003Z</time></trkpt><trkpt lat="43.57625326848221" lon="-5.951636865040864"><ele>12.0</ele><time>2026-04-03T08:38:11.003Z</time></trkpt><trkpt lat="43.576228327721346" lon="-5.951772619805589"><ele>12.0</ele><time>2026-04-03T08:38:13.003Z</time></trkpt><trkpt lat="43.57619818078318" lon="-5.951908233824982"><ele>12.0</ele><time>2026-04-03T08:38:15.003Z</time></trkpt><trkpt lat="43.57616554209018" lon="-5.9520009944096115"><ele>12.0</ele><time>2026-04-03T08:38:17.003Z</time></trkpt><trkpt lat="43.5761436330637" lon="-5.952097823196782"><ele>12.0</ele><time>2026-04-03T08:38:19.002Z</time></trkpt><trkpt lat="43.576114043600874" lon="-5.9521981268668265"><ele>12.0</ele><time>2026-04-03T08:38:21.002Z</time></trkpt><trkpt lat="43.57610224050089" lon="-5.952297016622847"><ele>12.0</ele><time>2026-04-03T08:38:23.002Z</time></trkpt><trkpt lat="43.576075063090094" lon="-5.952412251422462"><ele>12.0</ele><time>2026-04-03T08:38:26.002Z</time></trkpt><trkpt lat="43.57605774699406" lon="-5.952511817088979"><ele>12.0</ele><time>2026-04-03T08:38:28.002Z</time></trkpt><trkpt lat="43.57602526374978" lon="-5.952623778891101"><ele>12.0</ele><time>2026-04-03T08:38:31.002Z</time></trkpt><trkpt lat="43.576027539520005" lon="-5.952719228867619"><ele>12.0</ele><time>2026-04-03T08:38:34.002Z</time></trkpt><trkpt lat="43.576075611515975" lon="-5.9527913673436545"><ele>12.0</ele><time>2026-04-03T08:38:39.002Z</time></trkpt><trkpt lat="43.57613714030455" lon="-5.952834790796819"><ele>12.0</ele><time>2026-04-03T08:38:42.002Z</time></trkpt><trkpt lat="43.57623373053393" lon="-5.952874140167437"><ele>12.0</ele><time>2026-04-03T08:39:09.998Z</time></trkpt></trkseg></trk></gpx>